[[{"header":{"parameterUnit":"m.s-1","parameterCategory":1,"la1":31.0,"la2":29.5877,"lo1":-88.7671,"lo2":-86.6584,"dy":0.0162,"dx":0.0185,"nx":115,"ny":88,"refTime":"2025-03-04T06:00:00:Z","depth":0,"parameterNumber":2,"parameterNumberName":"U-component_of_WINDS"},"data":[0.0,0.0,0.0,0.0,0.0,0.0,0.0,0.0,0.0,0.0,0.0,0.0,0.0,0.0,0.0,0.0,0.0,0.0,0.0,0.0,0.0,0.0,0.0,0.0,0.0,0.0,0.0,0.0,0.0,0.0,0.0,0.0,0.0,0.0,0.0,0.0,0.0,0.0,0.0,0.0,0.0,0.0,0.0,0.0,0.0,0.0,0.0,0.0,0.0,0.0,0.0,0.0,0.0,0.0,0.0,0.0,0.0,0.0,0.0,0.0,0.0,0.0,0.0,0.0,0.0,0.0,0.0,0.0,0.0,0.0,0.0,0.0,0.0,0.0,0.0,0.0,0.0,0.0,0.0,0.0,0.0,0.0,0.0,0.0,0.0,0.0,0.0,0.0,0.0,0.0,0.0,0.0,0.0,0.0,0.0,0.0,0.0,0.0,0.0,0.0,0.0,0.0,0.0,0.0,0.0,0.0,0.0,0.0,0.0,0.0,0.0,0.0,0.0,0.0,0.0,0.0,0.0,0.0,0.0,0.0,0.0,0.0,0.0,0.0,0.0,0.0,0.0,0.0,0.0,0.0,0.0,0.0,0.0,0.0,0.0,0.0,0.0,0.0,0.0,0.0,0.0,0.0,0.0,0.0,0.0,0.0,0.0,0.0,0.0,0.0,0.0,0.0,0.0,0.0,0.0,0.0,0.0,0.0,0.0,0.0,0.0,0.0,0.0,0.0,0.0,0.0,0.0,0.0,0.0,0.0,0.0,0.0,0.0,0.0,0.0,0.0,0.0,0.0,0.0,0.0,0.0,0.0,0.0,0.0,0.0,0.0,0.0,0.0,0.0,0.0,0.0,0.0,0.0,0.0,0.0,0.0,0.0,0.0,0.0,0.0,0.0,0.0,0.0,0.0,0.0,0.0,0.0,0.0,0.0,0.0,0.0,0.0,0.0,0.0,0.0,0.0,0.0,0.0,0.0,0.0,0.0,0.0,0.0,0.0,0.0,0.0,0.0,0.0,0.0,0.0,0.0,0.0,0.0,0.0,0.0,0.0,0.0,0.0,0.0,0.0,0.0,0.0,0.0,0.0,0.0,0.0,0.0,0.0,0.0,0.0,0.0,0.0,0.0,0.0,0.0,0.0,0.0,0.0,0.0,0.0,0.0,0.0,0.0,0.0,0.0,0.0,0.0,0.0,0.0,0.0,0.0,0.0,0.0,0.0,0.0,0.0,0.0,0.0,0.0,0.0,0.0,0.0,0.0,0.0,0.0,0.0,0.0,0.0,0.0,0.0,0.0,0.0,0.0,0.0,0.0,0.0,0.0,0.0,0.0,0.0,0.0,0.0,0.0,0.0,0.0,0.0,0.0,0.0,0.0,0.0,0.0,0.0,0.0,0.0,0.0,0.0,0.0,0.0,0.0,0.0,0.0,0.0,0.0,0.0,0.0,0.0,0.0,0.0,0.0,0.0,0.0,0.0,0.0,0.0,0.0,0.0,0.0,0.0,0.0,0.0,0.0,0.0,0.0,0.0,0.0,0.0,0.0,0.0,0.0,0.0,0.0,0.0,0.0,0.0,0.0,0.0,0.0,0.0,0.0,0.0,0.0,0.0,0.0,0.0,0.0,0.0,0.0,0.0,0.0,0.0,0.0,0.0,0.0,0.0,0.0,0.0,0.0,0.0,0.0,0.0,0.0,0.0,0.0,0.0,0.0,0.0,0.0,0.0,0.0,0.0,0.0,0.0,0.0,0.0,0.0,0.0,0.0,0.0,0.0,0.0,0.0,0.0,0.0,0.0,0.0,0.0,0.0,0.0,0.0,0.0,0.0,0.0,0.0,0.0,0.0,0.0,0.0,0.0,0.0,0.0,0.0,0.0,0.0,0.0,0.0,0.0,0.0,0.0,0.0,0.0,0.0,0.0,0.0,0.0,0.0,0.0,0.0,0.0,0.0,0.0,0.0,0.0,0.0,0.0,0.0,0.0,0.0,0.0,0.0,0.0,0.0,0.0,0.0,0.0,0.0,0.0,0.0,0.0,0.0,0.0,0.0,0.0,0.0,0.0,0.0,0.0,0.0,0.0,0.0,0.0,0.0,0.0,0.0,0.0,0.0,0.0,0.0,0.0,0.0,0.0,0.0,0.0,0.0,0.0,0.0,0.0,0.0,0.0,0.0,0.0,0.0,0.0,0.0,0.0,0.0,0.0,0.0,0.0,0.0,0.0,0.0,0.0,0.0,0.0,0.0,0.0,0.0,0.0,0.0,0.0,0.0,0.0,0.0,0.0,0.0,0.0,0.0,0.0,0.0,0.0,0.0,0.0,0.0,0.0,0.0,0.0,0.0,0.0,0.0,0.0,0.0,0.0,0.0,0.0,0.0,0.0,0.0,0.0,0.0,0.0,0.0,0.0,0.0,0.0,0.0,0.0,0.0,0.0,0.0,0.0,0.0,0.0,0.0,0.0,0.0,0.0,0.0,0.0,0.0,0.0,0.0,0.0,0.0,0.0,0.0,0.0,0.0,0.0,0.0,0.0,0.0,0.0,0.0,0.0,0.0,0.0,0.0,0.0,0.0,0.0,0.0,0.0,0.0,0.0,0.0,0.0,0.0,0.0,0.0,0.0,0.0,0.0,0.0,0.0,0.0,0.0,0.0,0.0,0.0,0.0,0.0,0.0,0.0,0.0,0.0,0.0,0.0,0.0,0.0,0.0,0.0,0.0,0.0,0.0,0.0,0.0,0.0,0.0,0.0,0.0,0.0,0.0,0.0,0.0,0.0,0.0,0.0,0.0,0.0,0.0,0.0,0.0,0.0,0.0,0.0,0.0,0.0,0.0,0.0,0.0,0.0,0.0,0.0,0.0,0.0,0.0,0.0,0.0,0.0,0.0,0.0,0.0,0.0,0.0,0.0,0.0,0.0,0.0,0.0,0.0,0.0,0.0,0.0,0.0,0.0,0.0,0.0,0.0,0.0,0.0,0.0,0.0,0.0,0.0,0.0,0.0,0.0,0.0,0.0,0.0,0.0,0.0,0.0,0.0,0.0,0.0,0.0,0.0,0.0,0.0,0.0,0.0,0.0,0.0,0.0,0.0,0.0,0.0,0.0,0.0,0.0,0.0,0.0,0.0,0.0,0.0,0.0,0.0,0.0,0.0,0.0,0.0,0.0,0.0,0.0,0.0,0.0,0.0,0.0,0.0,0.0,0.0,0.0,0.0,0.0,0.0,0.0,0.0,0.0,0.0,0.0,0.0,0.0,0.0,0.0,0.0,0.0,0.0,0.0,0.0,0.0,0.0,0.0,0.0,0.0,0.0,0.0,0.0,0.0,0.0,0.0,0.0,0.0,0.0,0.0,0.0,0.0,0.0,0.0,0.0,0.0,0.0,0.0,0.0,0.0,0.0,0.0,0.0,0.0,0.0,0.0,0.0,0.0,0.0,0.0,0.0,0.0,0.0,0.0,0.0,0.0,0.0,0.0,0.0,0.0,0.0,0.0,0.0,0.0,0.0,0.0,0.0,0.0,0.0,0.0,0.0,0.0,0.0,0.0,0.0,0.0,0.0,0.0,0.0,0.0,0.0,0.0,0.0,0.0,0.0,0.0,0.0,0.0,0.0,0.0,0.0,0.0,0.0,0.0,0.0,0.0,0.0,0.0,0.0,0.0,0.0,0.0,0.0,0.0,0.0,0.0,0.0,0.0,0.0,0.0,0.0,0.0,0.0,0.0,0.0,0.0,0.0,0.0,0.0,0.0,0.0,0.0,0.0,0.0,0.0,0.0,0.0,0.0,0.0,0.0,0.0,0.0,0.0,0.0,0.0,0.0,0.0,0.0,0.0,0.0,0.0,0.0,0.0,0.0,0.0,0.0,0.0,0.0,0.0,0.0,0.0,0.0,0.0,0.0,0.0,0.0,0.0,0.0,0.0,0.0,0.0,0.0,0.0,0.0,0.0,0.0,0.0,0.0,0.0,0.0,0.0,0.0,0.0,0.0,0.0,0.0,0.0,0.0,0.0,0.0,0.0,0.0,0.0,0.0,0.0,0.0,0.0,0.0,0.0,0.0,0.0,0.0,0.0,0.0,0.0,0.0,0.0,0.0,0.0,0.0,0.0,0.0,0.0,0.0,0.0,0.0,0.0,0.0,0.0,0.0,0.0,0.0,0.0,0.0,0.0,0.0,0.0,0.0,0.0,0.0,0.0,0.0,0.0,0.0,0.0,0.0,0.0,0.0,0.0,0.0,0.0,0.0,0.0,0.0,0.0,0.0,0.0,0.0,0.0,0.0,0.0,-1.9364,0.0,0.0,0.0,0.0,0.0,0.0,0.0,0.0,0.0,0.0,0.0,0.0,0.0,0.0,0.0,0.0,0.0,0.0,0.0,0.0,0.0,0.0,0.0,0.0,0.0,0.0,0.0,0.0,0.0,0.0,0.0,0.0,0.0,0.0,0.0,0.0,0.0,0.0,0.0,0.0,0.0,0.0,0.0,0.0,0.0,0.0,0.0,0.0,0.0,0.0,0.0,0.0,0.0,0.0,0.0,0.0,0.0,0.0,0.0,0.0,0.0,0.0,0.0,0.0,0.0,0.0,0.0,0.0,0.0,0.0,0.0,0.0,0.0,0.0,0.0,0.0,0.0,0.0,0.0,0.0,0.0,0.0,0.0,0.0,0.0,0.0,0.0,0.0,0.0,0.0,0.0,0.0,0.0,0.0,0.0,0.0,0.0,0.0,0.0,0.0,0.0,0.0,0.0,0.0,0.0,0.0,0.0,0.0,0.0,0.0,-1.9482,-1.9446,-1.9222,-1.918,-1.936,0.0,0.0,0.0,0.0,0.0,0.0,0.0,0.0,0.0,0.0,0.0,0.0,0.0,0.0,0.0,0.0,0.0,0.0,0.0,0.0,0.0,0.0,0.0,0.0,0.0,0.0,0.0,0.0,0.0,0.0,0.0,0.0,0.0,0.0,0.0,0.0,0.0,0.0,0.0,0.0,0.0,0.0,0.0,0.0,0.0,0.0,0.0,0.0,0.0,0.0,0.0,0.0,0.0,0.0,0.0,0.0,0.0,0.0,0.0,0.0,0.0,0.0,0.0,0.0,0.0,0.0,0.0,0.0,0.0,0.0,0.0,0.0,0.0,0.0,0.0,0.0,0.0,0.0,0.0,0.0,0.0,0.0,0.0,0.0,0.0,0.0,0.0,0.0,0.0,0.0,0.0,0.0,0.0,0.0,0.0,0.0,0.0,0.0,0.0,0.0,0.0,0.0,0.0,0.0,0.0,0.0,0.0,0.0,0.0,0.0,0.0,0.0,-1.9918,-1.9778,-1.9885,0.0,0.0,0.0,0.0,0.0,0.0,0.0,0.0,0.0,0.0,0.0,0.0,0.0,0.0,0.0,0.0,0.0,0.0,0.0,0.0,0.0,0.0,0.0,0.0,0.0,0.0,0.0,0.0,0.0,0.0,0.0,0.0,0.0,0.0,0.0,0.0,0.0,0.0,0.0,0.0,0.0,0.0,0.0,0.0,0.0,0.0,0.0,0.0,0.0,0.0,0.0,0.0,0.0,0.0,0.0,0.0,0.0,0.0,0.0,0.0,0.0,0.0,0.0,0.0,0.0,0.0,0.0,0.0,0.0,0.0,0.0,0.0,0.0,0.0,0.0,0.0,0.0,0.0,0.0,0.0,0.0,0.0,0.0,0.0,0.0,0.0,0.0,0.0,0.0,0.0,0.0,0.0,0.0,0.0,0.0,0.0,0.0,0.0,0.0,0.0,0.0,0.0,0.0,0.0,0.0,0.0,0.0,0.0,0.0,0.0,-2.0634,-2.2778,-2.204,0.0,-2.1619,0.0,0.0,0.0,0.0,0.0,0.0,0.0,0.0,0.0,0.0,0.0,0.0,0.0,0.0,0.0,0.0,0.0,0.0,0.0,0.0,0.0,0.0,0.0,0.0,0.0,0.0,0.0,0.0,0.0,0.0,0.0,0.0,0.0,0.0,0.0,0.0,0.0,0.0,0.0,0.0,0.0,0.0,0.0,0.0,0.0,0.0,0.0,0.0,0.0,0.0,0.0,0.0,0.0,0.0,0.0,0.0,0.0,0.0,0.0,0.0,0.0,0.0,0.0,0.0,0.0,0.0,0.0,0.0,0.0,0.0,0.0,0.0,0.0,0.0,0.0,0.0,0.0,0.0,0.0,0.0,0.0,0.0,0.0,0.0,0.0,0.0,0.0,0.0,0.0,0.0,0.0,0.0,0.0,0.0,0.0,0.0,0.0,0.0,0.0,0.0,0.0,0.0,0.0,0.0,0.0,0.0,0.0,0.0,0.0,0.0,0.0,-2.2481,-2.2101,-2.1879,0.0,0.0,0.0,0.0,0.0,0.0,0.0,0.0,0.0,0.0,0.0,0.0,0.0,0.0,0.0,0.0,0.0,0.0,0.0,0.0,0.0,0.0,0.0,0.0,0.0,0.0,0.0,0.0,0.0,0.0,0.0,0.0,0.0,0.0,0.0,0.0,0.0,0.0,0.0,0.0,0.0,0.0,0.0,0.0,0.0,0.0,0.0,0.0,0.0,0.0,0.0,0.0,0.0,0.0,0.0,0.0,0.0,0.0,0.0,0.0,0.0,0.0,0.0,0.0,0.0,0.0,0.0,0.0,0.0,0.0,0.0,0.0,0.0,0.0,0.0,0.0,0.0,0.0,0.0,0.0,0.0,0.0,0.0,0.0,0.0,0.0,0.0,0.0,0.0,0.0,0.0,0.0,0.0,0.0,0.0,0.0,0.0,0.0,0.0,0.0,0.0,0.0,0.0,0.0,0.0,0.0,0.0,0.0,0.0,0.0,-2.2442,0.0,-2.2661,-2.2609,-2.2328,-2.182,0.0,0.0,0.0,0.0,0.0,0.0,0.0,0.0,0.0,0.0,0.0,0.0,0.0,0.0,0.0,0.0,0.0,0.0,0.0,0.0,0.0,0.0,0.0,0.0,0.0,0.0,0.0,0.0,0.0,0.0,0.0,0.0,0.0,0.0,0.0,0.0,0.0,0.0,0.0,0.0,0.0,0.0,0.0,0.0,0.0,0.0,0.0,0.0,0.0,0.0,0.0,0.0,0.0,0.0,0.0,0.0,0.0,0.0,0.0,0.0,0.0,0.0,0.0,0.0,0.0,0.0,0.0,0.0,0.0,0.0,0.0,0.0,0.0,0.0,0.0,0.0,0.0,0.0,0.0,0.0,0.0,0.0,0.0,0.0,0.0,0.0,0.0,0.0,0.0,0.0,0.0,0.0,0.0,0.0,0.0,0.0,0.0,0.0,0.0,0.0,0.0,0.0,0.0,0.0,0.0,0.0,0.0,0.0,0.0,-2.3582,-2.2778,-2.4255,-2.4273,-2.3517,0.0,0.0,0.0,0.0,0.0,0.0,0.0,0.0,0.0,0.0,0.0,0.0,0.0,0.0,0.0,0.0,0.0,0.0,0.0,0.0,0.0,0.0,0.0,0.0,0.0,0.0,0.0,0.0,0.0,0.0,0.0,0.0,0.0,0.0,0.0,0.0,0.0,0.0,0.0,0.0,0.0,0.0,0.0,0.0,0.0,0.0,0.0,0.0,0.0,0.0,0.0,0.0,0.0,0.0,0.0,0.0,0.0,0.0,0.0,0.0,0.0,0.0,0.0,0.0,0.0,0.0,0.0,0.0,0.0,0.0,0.0,0.0,0.0,0.0,0.0,0.0,0.0,0.0,0.0,0.0,0.0,0.0,0.0,0.0,0.0,0.0,0.0,0.0,0.0,0.0,0.0,0.0,0.0,0.0,0.0,0.0,0.0,0.0,0.0,0.0,0.0,0.0,0.0,0.0,0.0,0.0,0.0,0.0,0.0,-2.2105,-2.207,-2.3511,-2.6458,-2.4226,-2.3033,0.0,0.0,0.0,0.0,0.0,0.0,0.0,0.0,0.0,0.0,0.0,0.0,0.0,0.0,0.0,0.0,0.0,0.0,0.0,0.0,0.0,0.0,0.0,0.0,0.0,0.0,0.0,0.0,0.0,0.0,0.0,0.0,0.0,0.0,0.0,0.0,0.0,0.0,0.0,0.0,0.0,0.0,0.0,0.0,0.0,0.0,0.0,0.0,0.0,0.0,0.0,0.0,0.0,0.0,0.0,0.0,0.0,0.0,0.0,0.0,0.0,0.0,0.0,0.0,0.0,0.0,0.0,0.0,0.0,0.0,0.0,0.0,0.0,0.0,0.0,0.0,0.0,0.0,0.0,0.0,0.0,0.0,0.0,0.0,0.0,0.0,0.0,0.0,0.0,0.0,0.0,0.0,0.0,0.0,0.0,0.0,0.0,0.0,0.0,0.0,0.0,0.0,0.0,0.0,0.0,0.0,0.0,0.0,0.0,-2.1194,0.0,-2.491,0.0,-2.4261,-2.2788,0.0,0.0,0.0,0.0,0.0,0.0,0.0,0.0,0.0,0.0,0.0,0.0,0.0,0.0,0.0,0.0,0.0,0.0,0.0,0.0,0.0,0.0,0.0,0.0,0.0,0.0,0.0,0.0,0.0,0.0,0.0,0.0,0.0,0.0,0.0,0.0,0.0,0.0,0.0,0.0,0.0,0.0,0.0,0.0,0.0,0.0,0.0,0.0,0.0,0.0,0.0,0.0,0.0,0.0,0.0,0.0,0.0,0.0,0.0,0.0,0.0,0.0,0.0,0.0,0.0,0.0,0.0,0.0,0.0,0.0,0.0,0.0,0.0,0.0,0.0,0.0,0.0,0.0,0.0,0.0,0.0,0.0,0.0,0.0,0.0,0.0,0.0,0.0,0.0,0.0,0.0,0.0,0.0,0.0,0.0,0.0,0.0,0.0,0.0,0.0,0.0,0.0,0.0,0.0,0.0,0.0,0.0,0.0,0.0,-2.4332,-2.6684,-2.6795,-2.4685,-2.4481,-2.2922,0.0,0.0,0.0,0.0,0.0,0.0,0.0,0.0,0.0,0.0,0.0,0.0,0.0,0.0,0.0,0.0,0.0,0.0,0.0,0.0,0.0,0.0,0.0,0.0,0.0,0.0,0.0,0.0,0.0,0.0,0.0,0.0,0.0,0.0,0.0,0.0,0.0,0.0,0.0,0.0,0.0,0.0,0.0,0.0,0.0,0.0,0.0,0.0,0.0,0.0,0.0,0.0,0.0,0.0,0.0,0.0,0.0,0.0,0.0,0.0,0.0,0.0,0.0,0.0,0.0,0.0,0.0,0.0,0.0,0.0,0.0,0.0,0.0,0.0,0.0,0.0,0.0,0.0,0.0,0.0,0.0,0.0,0.0,0.0,0.0,0.0,0.0,0.0,0.0,0.0,0.0,0.0,0.0,0.0,0.0,0.0,0.0,0.0,0.0,0.0,0.0,0.0,0.0,0.0,0.0,0.0,0.0,0.0,0.0,-2.2848,-2.5178,-2.6628,-2.6869,-2.4241,-2.3099,0.0,0.0,0.0,0.0,0.0,0.0,0.0,0.0,0.0,0.0,0.0,0.0,0.0,0.0,0.0,0.0,0.0,0.0,0.0,0.0,0.0,0.0,0.0,0.0,0.0,0.0,0.0,0.0,0.0,0.0,0.0,0.0,0.0,0.0,0.0,0.0,0.0,0.0,0.0,0.0,0.0,0.0,0.0,0.0,0.0,0.0,0.0,0.0,0.0,0.0,0.0,0.0,0.0,0.0,0.0,0.0,0.0,0.0,0.0,0.0,0.0,0.0,0.0,0.0,0.0,0.0,0.0,0.0,0.0,0.0,0.0,0.0,0.0,0.0,0.0,0.0,0.0,0.0,0.0,0.0,0.0,0.0,0.0,0.0,0.0,0.0,0.0,0.0,0.0,0.0,0.0,0.0,0.0,0.0,0.0,0.0,0.0,0.0,0.0,0.0,0.0,0.0,0.0,0.0,0.0,0.0,0.0,0.0,0.0,-2.5355,-2.7018,-2.8152,-2.8579,-2.5764,-2.4426,-2.4687,0.0,0.0,0.0,0.0,0.0,0.0,0.0,0.0,0.0,0.0,0.0,0.0,0.0,0.0,0.0,0.0,0.0,0.0,0.0,0.0,0.0,0.0,0.0,0.0,0.0,0.0,0.0,0.0,0.0,0.0,0.0,0.0,0.0,0.0,0.0,0.0,0.0,0.0,0.0,0.0,0.0,0.0,0.0,0.0,0.0,0.0,0.0,0.0,0.0,0.0,0.0,0.0,0.0,0.0,0.0,0.0,0.0,0.0,0.0,0.0,0.0,0.0,0.0,0.0,0.0,0.0,0.0,0.0,0.0,0.0,0.0,0.0,0.0,0.0,0.0,0.0,0.0,0.0,0.0,0.0,0.0,0.0,0.0,0.0,0.0,0.0,0.0,0.0,0.0,0.0,0.0,0.0,0.0,0.0,0.0,0.0,0.0,0.0,0.0,0.0,0.0,0.0,0.0,0.0,0.0,0.0,0.0,0.0,-3.0883,-3.1738,-3.1422,-2.9834,-2.8709,-2.6702,0.0,0.0,0.0,0.0,0.0,0.0,0.0,0.0,0.0,0.0,0.0,0.0,0.0,0.0,0.0,0.0,0.0,0.0,0.0,0.0,0.0,0.0,0.0,0.0,0.0,0.0,0.0,0.0,0.0,0.0,0.0,0.0,0.0,0.0,0.0,0.0,0.0,0.0,0.0,0.0,0.0,0.0,0.0,0.0,0.0,0.0,0.0,0.0,0.0,0.0,0.0,0.0,0.0,0.0,0.0,0.0,0.0,0.0,0.0,0.0,0.0,0.0,0.0,0.0,0.0,0.0,0.0,0.0,0.0,0.0,0.0,0.0,0.0,0.0,0.0,0.0,0.0,0.0,0.0,0.0,0.0,0.0,0.0,0.0,0.0,0.0,0.0,0.0,0.0,0.0,0.0,0.0,0.0,0.0,0.0,0.0,0.0,0.0,0.0,0.0,0.0,0.0,0.0,0.0,0.0,0.0,0.0,0.0,0.0,-3.4172,-3.6166,-3.6147,-3.393,-3.0772,-2.8356,0.0,0.0,0.0,0.0,0.0,0.0,0.0,0.0,0.0,0.0,0.0,0.0,0.0,0.0,0.0,0.0,0.0,0.0,0.0,0.0,0.0,0.0,0.0,0.0,0.0,0.0,0.0,0.0,0.0,0.0,0.0,0.0,0.0,0.0,0.0,0.0,0.0,0.0,0.0,0.0,0.0,0.0,0.0,0.0,0.0,0.0,0.0,0.0,0.0,0.0,0.0,0.0,0.0,0.0,0.0,0.0,0.0,0.0,0.0,0.0,0.0,0.0,0.0,0.0,0.0,0.0,0.0,0.0,0.0,0.0,0.0,0.0,0.0,0.0,0.0,0.0,0.0,0.0,0.0,0.0,0.0,0.0,0.0,0.0,0.0,0.0,0.0,0.0,0.0,0.0,0.0,0.0,0.0,0.0,0.0,0.0,0.0,0.0,0.0,0.0,0.0,0.0,0.0,0.0,0.0,0.0,0.0,0.0,-3.4011,-3.6553,-3.9593,-4.016,-3.8111,-3.4432,-3.1255,0.0,0.0,0.0,0.0,0.0,0.0,0.0,0.0,0.0,0.0,0.0,0.0,0.0,0.0,0.0,0.0,0.0,0.0,0.0,0.0,0.0,0.0,0.0,0.0,0.0,0.0,0.0,0.0,0.0,0.0,0.0,0.0,0.0,0.0,0.0,0.0,0.0,0.0,0.0,0.0,0.0,0.0,0.0,0.0,0.0,0.0,0.0,0.0,0.0,0.0,0.0,0.0,0.0,0.0,0.0,0.0,0.0,0.0,0.0,0.0,0.0,0.0,0.0,0.0,0.0,0.0,0.0,0.0,0.0,0.0,0.0,0.0,0.0,0.0,0.0,0.0,0.0,0.0,0.0,0.0,0.0,0.0,0.0,0.0,0.0,0.0,0.0,0.0,0.0,0.0,0.0,0.0,0.0,0.0,0.0,0.0,0.0,0.0,0.0,0.0,0.0,0.0,0.0,0.0,0.0,0.0,0.0,0.0,-3.6658,-3.8508,-4.2106,-4.3311,-4.1712,-3.8464,-3.4488,0.0,0.0,0.0,0.0,0.0,0.0,0.0,0.0,0.0,0.0,0.0,0.0,0.0,0.0,0.0,0.0,0.0,0.0,0.0,0.0,0.0,0.0,0.0,0.0,0.0,0.0,0.0,0.0,0.0,0.0,0.0,0.0,0.0,0.0,0.0,0.0,0.0,0.0,0.0,0.0,0.0,0.0,0.0,0.0,0.0,0.0,0.0,0.0,0.0,0.0,0.0,0.0,0.0,0.0,0.0,0.0,0.0,0.0,0.0,0.0,0.0,0.0,0.0,0.0,0.0,0.0,0.0,0.0,0.0,0.0,0.0,0.0,0.0,0.0,0.0,0.0,0.0,0.0,0.0,0.0,0.0,0.0,0.0,0.0,0.0,0.0,0.0,0.0,0.0,0.0,0.0,0.0,0.0,0.0,0.0,0.0,0.0,0.0,0.0,0.0,0.0,0.0,0.0,0.0,0.0,0.0,0.0,0.0,-3.8261,-4.1128,-4.3189,-4.3737,-4.2725,-3.8798,-3.4996,0.0,0.0,0.0,0.0,0.0,0.0,0.0,0.0,0.0,0.0,0.0,0.0,0.0,0.0,0.0,0.0,0.0,0.0,0.0,0.0,0.0,0.0,0.0,0.0,0.0,0.0,0.0,0.0,0.0,0.0,0.0,0.0,0.0,0.0,0.0,0.0,0.0,0.0,0.0,0.0,0.0,0.0,0.0,0.0,0.0,0.0,0.0,0.0,-2.0826,0.0,0.0,0.0,0.0,0.0,0.0,0.0,0.0,0.0,0.0,0.0,0.0,0.0,0.0,0.0,0.0,0.0,0.0,0.0,0.0,0.0,0.0,0.0,0.0,0.0,0.0,0.0,0.0,0.0,0.0,0.0,0.0,0.0,0.0,0.0,0.0,0.0,0.0,0.0,0.0,0.0,0.0,0.0,0.0,0.0,0.0,0.0,0.0,0.0,0.0,0.0,0.0,0.0,0.0,0.0,0.0,0.0,0.0,0.0,-3.9202,-4.2014,-4.3554,-4.4076,-4.3515,-4.0258,-3.6532,0.0,0.0,0.0,0.0,0.0,0.0,0.0,0.0,0.0,0.0,0.0,0.0,0.0,0.0,0.0,0.0,0.0,0.0,0.0,0.0,0.0,0.0,0.0,0.0,0.0,0.0,0.0,0.0,0.0,0.0,0.0,0.0,0.0,0.0,0.0,0.0,0.0,0.0,0.0,0.0,0.0,0.0,0.0,0.0,0.0,0.0,0.0,0.0,0.0,0.0,0.0,0.0,0.0,0.0,0.0,0.0,0.0,0.0,0.0,0.0,0.0,0.0,0.0,0.0,0.0,0.0,0.0,0.0,0.0,0.0,0.0,0.0,0.0,0.0,0.0,0.0,0.0,0.0,0.0,0.0,0.0,0.0,0.0,0.0,0.0,0.0,0.0,0.0,0.0,0.0,0.0,0.0,0.0,0.0,0.0,0.0,0.0,0.0,0.0,0.0,0.0,0.0,0.0,0.0,0.0,0.0,0.0,-3.6652,-3.9712,-4.2479,-4.3727,-4.4329,-4.4262,-4.1785,-3.8149,-3.338,0.0,0.0,0.0,0.0,0.0,0.0,0.0,0.0,0.0,0.0,0.0,0.0,0.0,0.0,0.0,0.0,0.0,0.0,0.0,0.0,0.0,0.0,0.0,0.0,0.0,0.0,0.0,0.0,0.0,0.0,0.0,0.0,0.0,0.0,0.0,0.0,0.0,0.0,-1.923,-2.0982,0.0,0.0,0.0,0.0,0.0,0.0,0.0,0.0,-2.2507,0.0,0.0,0.0,0.0,0.0,0.0,0.0,0.0,0.0,0.0,0.0,0.0,0.0,0.0,0.0,0.0,0.0,0.0,0.0,0.0,0.0,0.0,0.0,0.0,0.0,0.0,0.0,0.0,0.0,0.0,0.0,0.0,0.0,0.0,0.0,0.0,0.0,0.0,0.0,0.0,0.0,0.0,0.0,0.0,0.0,0.0,0.0,0.0,0.0,0.0,0.0,0.0,0.0,0.0,0.0,0.0,-3.7552,-3.7627,-3.9766,-4.4152,-4.4406,-4.4416,-4.4225,-4.1771,-3.8377,-3.4179,0.0,0.0,0.0,0.0,0.0,0.0,0.0,0.0,0.0,0.0,0.0,0.0,0.0,0.0,0.0,0.0,0.0,0.0,0.0,0.0,0.0,0.0,0.0,0.0,0.0,0.0,0.0,0.0,0.0,0.0,0.0,0.0,0.0,0.0,0.0,0.0,0.0,0.0,0.0,-2.5791,-2.7087,0.0,0.0,0.0,0.0,0.0,0.0,0.0,0.0,-2.2482,0.0,0.0,0.0,0.0,0.0,0.0,0.0,0.0,0.0,0.0,0.0,0.0,0.0,0.0,0.0,0.0,0.0,0.0,0.0,0.0,0.0,0.0,0.0,0.0,0.0,0.0,0.0,0.0,0.0,0.0,0.0,0.0,0.0,0.0,0.0,0.0,0.0,0.0,0.0,0.0,0.0,0.0,0.0,0.0,0.0,0.0,0.0,0.0,0.0,0.0,0.0,0.0,0.0,0.0,0.0,-3.65,-3.8869,-4.1544,-4.4663,-4.4672,-4.4537,-4.4341,-4.104,-3.7614,0.0,0.0,0.0,0.0,0.0,0.0,0.0,0.0,0.0,0.0,0.0,0.0,0.0,0.0,0.0,0.0,0.0,0.0,0.0,0.0,0.0,0.0,0.0,0.0,0.0,0.0,0.0,0.0,0.0,0.0,0.0,0.0,0.0,0.0,0.0,0.0,0.0,0.0,0.0,0.0,-2.7623,-2.9098,-3.0608,0.0,0.0,0.0,0.0,0.0,0.0,-2.4984,-2.3735,0.0,0.0,0.0,0.0,0.0,0.0,0.0,0.0,0.0,0.0,0.0,0.0,0.0,0.0,0.0,0.0,0.0,0.0,0.0,0.0,0.0,0.0,0.0,0.0,0.0,0.0,0.0,0.0,0.0,0.0,0.0,0.0,0.0,0.0,0.0,0.0,0.0,0.0,0.0,0.0,0.0,0.0,0.0,0.0,0.0,0.0,0.0,0.0,0.0,0.0,0.0,0.0,0.0,0.0,0.0,-3.4927,-3.9532,-4.2863,-4.4732,-4.4745,-4.4632,-4.4439,-4.0525,-3.7063,0.0,0.0,0.0,0.0,0.0,0.0,0.0,0.0,0.0,0.0,0.0,0.0,0.0,0.0,0.0,0.0,0.0,0.0,0.0,0.0,0.0,0.0,0.0,0.0,0.0,0.0,0.0,0.0,0.0,0.0,0.0,0.0,0.0,0.0,0.0,0.0,0.0,0.0,0.0,0.0,0.0,-3.1106,-3.2561,-3.0511,0.0,0.0,0.0,0.0,-2.8319,-2.7444,0.0,0.0,0.0,0.0,0.0,0.0,0.0,0.0,0.0,0.0,0.0,0.0,0.0,0.0,0.0,0.0,0.0,0.0,0.0,0.0,0.0,0.0,0.0,0.0,0.0,0.0,0.0,0.0,0.0,0.0,0.0,0.0,0.0,0.0,0.0,0.0,0.0,0.0,0.0,0.0,0.0,0.0,0.0,0.0,0.0,0.0,0.0,0.0,0.0,0.0,0.0,0.0,0.0,0.0,0.0,0.0,-3.4832,-3.8384,-4.1661,-4.4549,-4.4712,-4.4646,-4.4477,-4.1087,-3.7736,0.0,0.0,0.0,0.0,0.0,0.0,0.0,0.0,0.0,0.0,0.0,0.0,0.0,0.0,0.0,0.0,0.0,0.0,0.0,0.0,0.0,0.0,0.0,0.0,0.0,0.0,0.0,0.0,0.0,0.0,0.0,0.0,0.0,0.0,0.0,0.0,0.0,0.0,0.0,0.0,0.0,-3.4808,-3.3651,-3.2368,-3.1798,0.0,0.0,-3.1288,-3.2815,-3.2952,0.0,0.0,0.0,0.0,0.0,0.0,0.0,0.0,0.0,0.0,0.0,0.0,0.0,0.0,0.0,0.0,0.0,0.0,0.0,0.0,0.0,0.0,0.0,0.0,0.0,0.0,0.0,0.0,0.0,0.0,0.0,0.0,0.0,0.0,0.0,0.0,0.0,0.0,0.0,0.0,0.0,0.0,0.0,0.0,0.0,0.0,0.0,0.0,0.0,0.0,0.0,0.0,0.0,0.0,0.0,-3.2301,-3.4984,-4.0081,-4.34,-4.4752,-4.4808,-4.4764,-4.46,-4.0008,-3.6351,0.0,0.0,0.0,0.0,0.0,0.0,0.0,0.0,0.0,0.0,0.0,0.0,0.0,0.0,0.0,0.0,0.0,0.0,0.0,0.0,0.0,0.0,0.0,0.0,0.0,0.0,0.0,0.0,0.0,0.0,0.0,0.0,0.0,0.0,0.0,0.0,0.0,0.0,0.0,0.0,0.0,0.0,-3.6384,-3.529,0.0,0.0,0.0,-3.3398,-3.4044,0.0,0.0,0.0,0.0,0.0,0.0,0.0,0.0,0.0,0.0,0.0,0.0,0.0,0.0,0.0,0.0,0.0,0.0,0.0,0.0,0.0,0.0,0.0,0.0,0.0,0.0,0.0,0.0,0.0,0.0,0.0,0.0,0.0,0.0,0.0,0.0,0.0,0.0,0.0,0.0,0.0,0.0,0.0,0.0,0.0,0.0,0.0,0.0,0.0,0.0,0.0,0.0,0.0,0.0,0.0,0.0,0.0,-3.4984,-4.1503,-4.4895,-4.4895,-4.4895,-4.4751,-4.4367,-3.9626,0.0,0.0,0.0,0.0,0.0,0.0,0.0,0.0,0.0,0.0,0.0,0.0,0.0,0.0,0.0,0.0,0.0,0.0,0.0,0.0,0.0,0.0,0.0,0.0,0.0,0.0,0.0,0.0,0.0,0.0,0.0,0.0,0.0,0.0,0.0,0.0,0.0,0.0,0.0,0.0,0.0,0.0,-3.6064,-3.8162,-3.7544,-3.7294,0.0,0.0,-3.5675,-3.6072,-3.6817,-3.5643,0.0,0.0,0.0,0.0,0.0,0.0,0.0,0.0,0.0,0.0,0.0,0.0,0.0,0.0,0.0,0.0,0.0,0.0,0.0,0.0,0.0,0.0,0.0,0.0,0.0,0.0,0.0,0.0,0.0,0.0,0.0,0.0,0.0,0.0,0.0,0.0,0.0,0.0,0.0,0.0,0.0,0.0,0.0,0.0,0.0,0.0,0.0,0.0,0.0,0.0,0.0,0.0,0.0,0.0,0.0,-3.5059,-4.1503,-4.4895,-4.4895,-4.4895,-4.4535,-4.3765,-4.1028,-3.7659,0.0,0.0,0.0,0.0,0.0,0.0,0.0,0.0,0.0,0.0,0.0,0.0,0.0,0.0,0.0,0.0,0.0,0.0,0.0,0.0,0.0,0.0,0.0,0.0,0.0,0.0,0.0,0.0,0.0,0.0,0.0,0.0,0.0,0.0,0.0,0.0,0.0,0.0,0.0,0.0,0.0,-3.6722,-3.7636,-3.8319,-3.956,0.0,0.0,-3.9143,-4.0655,-4.2053,-4.068,-3.3671,0.0,0.0,0.0,0.0,0.0,0.0,0.0,0.0,0.0,0.0,0.0,0.0,0.0,0.0,0.0,0.0,0.0,0.0,0.0,0.0,0.0,0.0,0.0,0.0,0.0,0.0,0.0,0.0,0.0,0.0,0.0,0.0,0.0,0.0,0.0,0.0,0.0,0.0,0.0,0.0,0.0,0.0,0.0,0.0,0.0,0.0,0.0,0.0,0.0,0.0,0.0,0.0,0.0,-3.3277,-3.4965,-4.1503,-4.4895,-4.4895,-4.4895,-4.4762,-4.444,-4.1476,-3.7915,0.0,0.0,0.0,0.0,0.0,0.0,0.0,0.0,0.0,0.0,0.0,0.0,0.0,0.0,0.0,0.0,0.0,0.0,0.0,0.0,0.0,0.0,0.0,0.0,0.0,0.0,0.0,0.0,-2.1107,-2.1589,-2.1104,0.0,0.0,0.0,0.0,0.0,0.0,0.0,0.0,0.0,0.0,-3.7521,-4.0325,-4.0569,0.0,0.0,-4.1363,-4.0643,-4.1234,-4.0966,-3.9069,-3.4305,-3.1986,0.0,0.0,0.0,0.0,0.0,0.0,0.0,0.0,0.0,0.0,0.0,0.0,0.0,0.0,0.0,0.0,0.0,0.0,0.0,0.0,0.0,0.0,0.0,0.0,0.0,0.0,0.0,0.0,0.0,0.0,0.0,0.0,0.0,0.0,0.0,0.0,0.0,0.0,0.0,0.0,0.0,0.0,0.0,0.0,0.0,0.0,0.0,0.0,0.0,0.0,0.0,0.0,-3.3446,-3.5287,-4.1658,-4.4919,-4.4895,-4.4895,-4.48,-4.4497,-4.1776,-3.8441,0.0,0.0,0.0,0.0,0.0,0.0,0.0,0.0,0.0,0.0,0.0,0.0,0.0,0.0,0.0,0.0,0.0,0.0,0.0,0.0,0.0,0.0,0.0,0.0,0.0,0.0,0.0,0.0,-2.2171,-2.2287,-2.1742,0.0,0.0,0.0,0.0,0.0,0.0,0.0,0.0,0.0,0.0,-3.8497,-4.1829,-4.1829,-4.1662,-4.2236,-4.1403,-4.0811,-4.0999,-4.0059,-3.8196,-3.4955,0.0,0.0,0.0,0.0,0.0,0.0,0.0,0.0,0.0,0.0,0.0,0.0,0.0,0.0,0.0,0.0,0.0,0.0,0.0,0.0,0.0,0.0,0.0,0.0,0.0,0.0,0.0,0.0,0.0,0.0,-2.5006,0.0,0.0,0.0,0.0,0.0,0.0,0.0,0.0,0.0,0.0,0.0,0.0,0.0,0.0,0.0,0.0,0.0,0.0,0.0,0.0,0.0,0.0,0.0,-3.6217,-4.1979,-4.4974,-4.4895,-4.4895,-4.4554,-4.3758,-4.209,-3.9589,-3.614,0.0,0.0,0.0,0.0,0.0,0.0,0.0,0.0,0.0,0.0,0.0,0.0,0.0,0.0,0.0,0.0,0.0,0.0,0.0,0.0,0.0,0.0,0.0,0.0,0.0,0.0,-2.0983,-2.0918,-2.1026,0.0,0.0,0.0,0.0,0.0,0.0,0.0,0.0,0.0,0.0,-3.7021,-3.9658,-4.1386,-4.159,-4.1609,-4.1664,-4.0271,-3.9491,-4.0346,-4.0255,-3.9081,0.0,0.0,0.0,0.0,0.0,0.0,0.0,0.0,0.0,0.0,0.0,0.0,0.0,0.0,0.0,0.0,0.0,0.0,0.0,0.0,0.0,0.0,0.0,0.0,0.0,0.0,0.0,-2.8236,-2.765,0.0,0.0,0.0,0.0,0.0,0.0,0.0,0.0,0.0,0.0,0.0,-3.4819,-3.5362,0.0,0.0,0.0,0.0,0.0,0.0,0.0,0.0,0.0,0.0,0.0,0.0,-3.4378,-3.6435,-4.2083,-4.5045,-4.4974,-4.4955,-4.483,-4.4497,-4.2886,-3.9665,-3.468,0.0,0.0,0.0,0.0,0.0,0.0,0.0,0.0,0.0,0.0,0.0,0.0,0.0,0.0,0.0,0.0,0.0,0.0,0.0,0.0,0.0,0.0,0.0,0.0,0.0,-2.2234,0.0,0.0,0.0,0.0,0.0,0.0,0.0,0.0,0.0,0.0,0.0,-3.2951,-3.6499,-3.8347,-3.9954,-4.1525,-4.1735,-4.1936,0.0,0.0,0.0,0.0,0.0,0.0,0.0,0.0,0.0,0.0,0.0,0.0,0.0,0.0,-3.3823,-2.9288,-2.8233,-2.811,-2.8343,0.0,0.0,0.0,0.0,0.0,0.0,0.0,0.0,0.0,0.0,0.0,0.0,0.0,0.0,-3.1358,0.0,-3.0178,0.0,0.0,0.0,0.0,0.0,0.0,0.0,0.0,-3.5916,-3.7731,-3.8257,-3.8763,-3.8304,0.0,-3.5851,-3.3024,0.0,0.0,0.0,0.0,0.0,0.0,0.0,0.0,-3.5287,-3.7338,-4.2432,-4.5114,-4.5045,-4.5045,-4.5022,-4.4948,-4.3046,-3.9819,-3.5135,-3.2065,-2.9298,0.0,0.0,0.0,0.0,0.0,0.0,0.0,0.0,0.0,0.0,0.0,0.0,0.0,0.0,0.0,0.0,0.0,0.0,0.0,0.0,0.0,0.0,0.0,-2.3273,0.0,0.0,0.0,0.0,0.0,0.0,0.0,0.0,0.0,-2.9756,-3.2888,-3.6118,-3.8812,-4.0096,-4.0946,-4.1397,0.0,0.0,0.0,0.0,0.0,0.0,0.0,-3.8222,-3.8133,-3.769,-3.7383,-3.7487,-3.8713,-3.9372,-3.842,0.0,0.0,-3.3618,-3.2383,-3.2242,-3.2524,-3.2983,-3.323,-3.3,-3.3565,-3.4022,0.0,0.0,0.0,0.0,0.0,0.0,0.0,0.0,-3.4358,-3.4732,0.0,-3.2917,0.0,0.0,0.0,0.0,0.0,-3.4514,0.0,0.0,-4.1562,-4.3128,-4.1762,-4.1724,-4.1266,-4.0492,-4.0416,-3.8658,-3.5267,-3.1305,0.0,0.0,0.0,0.0,0.0,0.0,-3.6493,-3.9023,-4.3075,-4.517,-4.5114,-4.5114,-4.5065,-4.4931,-4.2631,-4.0138,-3.7514,-3.5069,-3.2615,-3.0132,-2.7638,0.0,0.0,0.0,0.0,0.0,0.0,0.0,0.0,0.0,0.0,0.0,0.0,0.0,0.0,0.0,0.0,0.0,0.0,0.0,0.0,-2.47,0.0,0.0,0.0,0.0,0.0,0.0,0.0,0.0,0.0,0.0,-3.2655,-3.5877,-3.8956,-4.0572,0.0,0.0,0.0,0.0,-4.1448,-3.9946,-3.9019,-3.8606,-3.8662,-3.9914,-4.0892,-4.0917,0.0,0.0,-4.1863,-4.2227,-4.2137,-3.9967,-4.1722,-4.2679,-3.989,-3.7651,-3.6488,-3.7015,-3.6208,-3.545,-3.6013,-3.6807,-3.721,-4.054,0.0,0.0,0.0,0.0,-3.734,-3.8706,-4.1084,-4.052,-3.9718,-3.8792,-3.8104,0.0,0.0,0.0,0.0,0.0,0.0,-3.8104,-4.0998,-4.2497,-4.415,-4.6003,-4.6003,-4.5258,-4.3883,-4.3864,-4.2412,-3.9737,-3.8476,-3.4617,-2.8306,0.0,0.0,0.0,0.0,-3.8238,-4.0788,-4.3748,-4.5254,-4.517,-4.517,-4.4576,-4.3344,-4.2599,-4.1028,-3.8489,-3.7158,-3.5313,-3.2784,-3.0269,0.0,0.0,0.0,0.0,0.0,0.0,0.0,0.0,0.0,0.0,0.0,0.0,0.0,0.0,0.0,0.0,0.0,0.0,0.0,-2.3894,-2.5055,-2.5534,0.0,0.0,0.0,0.0,0.0,0.0,0.0,0.0,0.0,-3.7583,-3.8688,-3.983,0.0,0.0,-4.0653,-4.0092,-4.1248,-4.2191,-4.2354,0.0,0.0,0.0,-4.3196,-4.2888,-4.3367,-4.4584,-4.52,-4.4434,-4.4575,-4.4578,-4.3869,-4.4036,-4.3989,-4.328,-4.2601,-4.1982,-4.1677,-4.1271,-4.1075,-4.125,-4.1055,-4.0872,-4.5239,-4.1609,-4.0616,-4.0798,-4.1733,-4.159,-4.2832,-4.4961,-4.4475,-4.3883,-4.3242,-4.2584,-4.096,-3.862,-3.7646,0.0,0.0,0.0,-4.1199,-4.4265,-4.4628,-4.587,-4.7712,-4.7788,-4.7283,-4.629,-4.5927,-4.4819,-4.2995,-4.2335,-3.9279,-3.4063,0.0,0.0,-3.4475,-3.7617,-4.0119,-4.2011,-4.4169,-4.5286,-4.5235,-4.5235,-4.4402,-4.2709,-4.2633,-4.1594,-3.9393,-3.8509,-3.7224,-3.5358,-3.2885,-3.0377,0.0,0.0,0.0,0.0,0.0,0.0,0.0,0.0,0.0,0.0,0.0,-2.3372,0.0,0.0,0.0,0.0,-2.4864,-2.5792,-2.6607,-2.7574,0.0,0.0,0.0,0.0,0.0,0.0,0.0,-3.487,-3.7371,-3.9286,-4.0279,-4.0696,-4.1207,-4.209,-4.1749,-4.1374,-4.1297,0.0,-4.346,-4.3989,-4.4462,-4.4953,-4.5476,-4.5268,-4.5381,-4.6403,-4.6886,-4.7057,-4.6877,-4.6778,-4.6669,-4.6474,-4.6031,-4.5644,-4.5636,-4.5636,-4.5257,-4.4196,-4.3925,-4.3925,-4.3925,-4.3304,-4.2888,-4.8716,-4.7788,-4.5477,-4.4465,-4.4484,-4.5258,-4.6042,-4.6787,-4.6806,-4.7196,-4.778,-4.6271,-4.5125,-4.4159,-4.1905,0.0,-4.3214,-4.3968,-4.5163,-4.6729,-4.7521,-4.7941,-4.7998,-4.7998,-4.7979,-4.7884,-4.7092,-4.629,-4.543,-4.3883,-4.2698,-4.1867,-4.0291,-3.9412,-3.9298,-4.0788,-4.203,-4.2908,-4.4418,-4.5231,-4.5277,-4.5277,-4.4484,-4.2772,-4.2714,-4.1902,-4.0203,-3.9337,-3.8509,-3.7595,-3.5309,-3.2891,-3.0388,0.0,0.0,0.0,0.0,0.0,0.0,0.0,0.0,0.0,0.0,0.0,0.0,0.0,0.0,0.0,-2.8775,0.0,-3.1345,-3.1459,0.0,0.0,0.0,-3.0284,-3.272,-3.4415,-3.5988,-3.7542,0.0,0.0,-4.1408,0.0,-4.2829,-4.3682,-4.3701,-4.3625,-4.3701,-4.4402,-4.5009,-4.5129,-4.5274,-4.5312,-4.5603,-4.6531,-4.7799,-4.9131,-4.9707,-4.9378,-4.8945,-4.8565,-4.8272,-4.7907,-4.7588,-4.7288,-4.7232,-4.712,-4.6708,-4.5132,-4.4767,-4.4692,-4.4656,-4.4086,-4.364,-4.9882,-4.9652,-4.906,-4.8468,-4.7895,-4.8116,-4.8659,-4.9385,-4.9385,-4.9175,-4.8754,-4.8384,-4.7704,-4.6852,-4.6279,-4.6241,-4.6623,-4.6795,-4.7474,-4.8479,-4.8678,-4.9117,-4.9691,-4.971,-4.9385,-4.8793,-4.8582,-4.8048,-4.7188,-4.6137,-4.5526,-4.5258,-4.4303,-4.2832,-4.1017,-4.1953,-4.2889,-4.3701,-4.4102,-4.4628,-4.5258,-4.5277,-4.4494,-4.2841,-4.2774,-4.1991,-4.033,-4.0063,-3.9242,-3.7743,-3.6476,-3.4647,-3.2179,-2.886,0.0,0.0,0.0,0.0,0.0,0.0,0.0,0.0,0.0,-2.6413,-2.3131,0.0,-2.7269,0.0,-3.104,-3.298,-3.3161,-3.3748,0.0,0.0,-3.4708,-3.5439,-3.7845,-3.9066,-3.9854,-4.0252,-4.1958,-4.3125,-4.3183,-4.3308,-4.3713,-4.4538,-4.3566,-4.2943,-4.3606,-4.4971,-4.6108,-4.6752,-4.7808,-4.8471,-4.7826,-4.8098,-4.8704,-4.9668,-4.9759,-4.9663,-4.9525,-4.9102,-4.8743,-4.862,-4.8157,-4.7797,-4.7713,-4.75,-4.719,-4.6711,-4.6078,-4.5517,-4.5517,-4.4892,-4.4496,-5.0875,-5.0856,-5.0455,-4.9824,-4.9129,-4.948,-4.9882,-5.0283,-5.0302,-5.0054,-4.9652,-4.9633,-4.9366,-4.8915,-4.8896,-4.8926,-4.8907,-4.8907,-4.9175,-4.9614,-4.9614,-4.9882,-5.0302,-5.0302,-5.0073,-4.9633,-4.927,-4.885,-4.8353,-4.7494,-4.7062,-4.7073,-4.6634,-4.5335,-4.3291,-4.3673,-4.4131,-4.4571,-4.459,-4.4991,-4.5755,-4.5105,-4.3921,-4.2278,-4.1877,-4.0711,-3.8677,-3.862,-3.7971,-3.6661,-3.5785,-3.4527,-3.2752,-2.9837,-2.7611,0.0,0.0,0.0,0.0,0.0,0.0,0.0,0.0,0.0,0.0,0.0,-2.9715,0.0,-3.3752,-3.5636,-3.6036,-3.6796,-3.7585,-3.843,-3.8555,-3.9391,-4.1478,-4.2112,-4.2541,-4.2891,-4.3764,-4.4326,-4.4391,-4.4315,-4.4431,-4.4953,-4.4493,-4.4438,-4.5217,-4.6184,-4.7131,-4.8338,-4.9021,-4.9078,-4.8243,-4.8452,-4.8831,-4.9273,-4.9616,-4.9745,-4.9585,-4.9185,-4.8796,-4.8621,-4.8175,-4.7793,-4.7731,-4.756,-4.7385,-4.7244,-4.6869,-4.6511,-4.644,-4.5823,-4.5386,-5.1766,-5.1708,-5.0932,-5.0168,-4.948,-5.0187,-5.0283,-4.9977,-4.9977,-5.0054,-5.0149,-5.0245,-5.0302,-5.0302,-5.0302,-5.0302,-5.0302,-5.0302,-5.0302,-5.0302,-5.0302,-5.0302,-5.0302,-5.0302,-5.0302,-5.0264,-4.9606,-4.9263,-4.9213,-4.8391,-4.796,-4.7941,-4.775,-4.6901,-4.5507,-4.5335,-4.5277,-4.5297,-4.5403,-4.5755,-4.6309,-4.4809,-4.3147,-4.1418,-4.0559,-3.8983,-3.6634,-3.65,-3.6099,-3.5248,-3.4636,-3.3929,-3.3024,-3.0706,-2.9006,0.0,-2.6695,0.0,0.0,0.0,0.0,0.0,0.0,0.0,0.0,-3.2034,-3.291,-3.4404,-3.67,-3.8433,-3.9309,-4.0109,-4.0898,-4.163,-4.1812,-4.2479,-4.3858,-4.4067,-4.4322,-4.5026,-4.5103,-4.5103,-4.5076,-4.5057,-4.5022,-4.5083,-4.5508,-4.608,-4.7018,-4.7233,-4.7845,-4.9419,-4.8907,-4.8073,-4.7643,-4.7959,-4.8338,-4.8547,-4.9007,-4.9456,-4.9122,-4.8872,-4.8595,-4.8311,-4.7931,-4.7604,-4.7494,-4.7325,-4.7183,-4.7151,-4.7111,-4.7108,-4.7154,-4.6693,-4.6197,-5.2659,-5.264,-5.2408,-5.1868,-5.1142,-5.1295,-5.0176,-4.8266,-4.8266,-4.8678,-4.9366,-5.0015,-5.0302,-5.0302,-5.0302,-5.0302,-5.0302,-5.0302,-5.0302,-5.0302,-5.0302,-5.0302,-5.0302,-5.0302,-5.0302,-5.0302,-5.0149,-5.0092,-5.0054,-4.9232,-4.885,-4.8793,-4.7455,-4.6577,-4.6271,0.0,0.0,0.0,-4.5946,-4.6023,-4.5507,-4.4532,-4.2879,-4.0616,-3.9699,0.0,-3.6615,-3.65,-3.6099,-3.5278,-3.5717,0.0,0.0,0.0,0.0,0.0,0.0,0.0,0.0,0.0,0.0,0.0,-3.4601,-3.444,-3.3665,-3.5967,-3.7658,-3.7964,-3.9624,-4.1044,-4.1893,-4.2702,-4.3245,-4.3431,-4.4054,-4.4587,-4.4866,-4.4866,-4.4931,-4.5065,-4.5103,-4.5125,-4.517,-4.5106,-4.5084,-4.5167,-4.5278,-4.5658,-4.6384,-4.7049,-4.7555,-4.7789,-4.7296,-4.6923,-4.734,-4.6999,-4.7055,-4.7453,-4.7719,-4.7882,-4.7878,-4.8077,-4.8219,-4.8077,-4.7642,-4.7182,-4.7145,-4.6399,-4.5992,-4.6533,-4.6659,-4.6795,-4.718,-4.7154,-4.7038,-5.352,0.0,-5.297,-5.2346,0.0,-5.1601,-5.0634,-4.9041,-4.9041,-4.927,-4.9729,-5.013,-5.0302,-5.0283,-4.9882,-4.971,-4.9691,-4.927,-4.9289,-4.9691,-4.971,-4.992,-5.0302,-5.0302,-5.0302,-5.0302,-5.0302,-5.0302,-5.0283,-4.9882,-4.95,-4.9079,-4.822,-4.736,-4.65,-4.6099,-4.5889,-4.5889,-4.6309,-4.6519,-4.6481,-4.5297,-4.3634,-4.1609,0.0,0.0,0.0,0.0,0.0,0.0,0.0,0.0,0.0,0.0,0.0,-3.3883,-3.354,-3.3662,-3.4503,-3.5335,-3.6519,-3.819,-3.9489,-3.9327,-3.7273,-3.9431,-4.1027,-4.1389,-4.2219,-4.304,-4.389,-4.4348,-4.4586,-4.4611,-4.4995,-4.5224,-4.5203,-4.5192,-4.5192,-4.5192,-4.5203,-4.5222,-4.5254,-4.5192,-4.5159,-4.523,-4.5551,-4.5754,-4.5772,-4.6426,-4.6915,-4.6872,-4.6531,-4.6196,-4.6165,-4.6297,-4.6297,-4.6733,-4.7131,-4.7359,-4.7397,-4.731,-4.7273,-4.7207,-4.6687,-4.6224,-4.6168,-4.5683,-4.5436,-4.5798,-4.5906,-4.5974,-4.6302,-4.687,-4.7385,-5.4369,-5.4269,-5.3581,-5.2785,-5.204,-5.204,-5.1544,-5.0722,0.0,0.0,0.0,-5.0665,-5.0722,-5.0684,-4.9901,-4.9538,-4.9492,-4.864,-4.864,-4.9289,-4.932,-4.9671,-5.0283,-5.0302,-5.0302,-5.0302,-5.0302,-5.0302,-5.0302,-5.0302,-4.9977,-4.9358,-4.9175,-4.8315,-4.6825,-4.6577,-4.6519,-4.6519,-4.6519,-4.6844,-4.7483,-4.608,-4.4494,-4.2851,-4.1189,-3.9174,-3.6806,-3.6576,-3.5859,-3.4549,-3.456,-3.474,-3.4866,-3.4885,-3.5572,-3.7035,-3.7302,-3.799,-3.9355,-3.9718,-4.0597,-4.2259,-4.3787,-4.3624,-4.1141,-4.2488,-4.373,-4.4369,-4.4579,-4.4961,-4.566,-4.5736,-4.5736,-4.5736,-4.5736,-4.5755,-4.5755,-4.5736,-4.5831,-4.5736,-4.5812,-4.5736,-4.5812,-4.5769,-4.5576,-4.5595,-4.6205,-4.6393,-4.5643,-4.5856,-4.6126,-4.6079,-4.5954,-4.5697,-4.5242,-4.5476,-4.5956,-4.5956,-4.6487,-4.691,-4.6811,-4.6473,-4.6194,-4.6079,-4.5517,-4.5172,-4.5093,-4.4912,-4.4947,-4.5055,-4.5091,-4.5146,-4.5381,-4.6241,-4.7045,-5.5272,-5.5211,-5.5084,-5.4543,-5.376,-5.3741,-5.3244,-5.2403,-5.1735,-5.1417,-5.1455,-5.2155,-5.2461,-5.2403,-5.162,-5.1257,-5.12,-5.0359,-5.0015,0.0,-5.013,-5.0187,-5.0302,-5.0302,-5.0302,-5.0302,-5.0302,-5.0302,-5.0302,-5.0302,-5.0245,-5.0054,-4.9454,-4.8602,-4.7635,-4.6882,-4.6519,-4.6519,-4.6519,-4.6557,-4.6672,-4.5774,-4.4494,-4.2851,-4.1227,-3.9451,-3.7597,-3.6939,-3.6405,-3.6175,-3.6814,-3.7521,-3.8247,-3.8304,-3.8744,-3.969,-4.0425,-4.0903,-4.117,-4.2488,-4.4006,-4.564,-4.6719,-4.6184,-4.3815,-4.5,-4.6042,-4.6175,-4.6738,-4.7292,-4.7436,-4.7417,-4.7398,-4.7417,-4.7444,-4.7455,-4.7398,-4.7349,-4.7311,-4.7322,-4.7444,-4.7379,-4.7292,-4.733,-4.7013,-4.6612,-4.6975,-4.728,-4.6437,-4.5703,-4.5323,-4.5262,-4.5216,-4.5112,-4.5119,-4.5007,-4.5192,-4.5066,-4.5255,-4.5363,-4.5162,-4.5212,-4.5208,-4.4923,-4.4564,-4.4297,-4.424,-4.3698,-4.3697,-4.4114,-4.4258,-4.4458,-4.4983,-4.5452,-4.5827,-5.5463,-5.5403,-5.5396,-5.5193,-5.4811,-5.4811,-5.4581,-5.418,-5.3836,-5.311,-5.2308,-5.2633,-5.2785,-5.2728,-5.1964,-5.1322,-5.0856,-5.0034,-4.9652,-4.9652,-4.9652,-4.9882,-5.0264,-5.0302,-5.0302,-5.0302,-5.0302,-5.0302,-5.0302,-5.0302,-5.0302,-5.0245,-4.9511,-4.8888,-4.8468,-4.7646,-4.6978,-4.6519,-4.6519,-4.6519,-4.6481,-4.6137,-4.5583,-4.4819,-4.3615,-4.2641,-4.1867,-4.1476,-4.1074,-4.0607,-4.0912,-4.1323,-4.1676,-4.1714,-4.2306,-4.3577,-4.3997,-4.4418,-4.4895,-4.563,-4.6375,-4.715,-4.7559,-4.733,-4.6165,-4.6757,-4.7215,-4.7215,-4.7597,-4.7788,-4.7807,-4.822,-4.8506,-4.8487,-4.8506,-4.8506,-4.843,-4.8048,-4.7788,-4.7788,-4.7788,-4.7788,-4.7788,-4.7788,-4.7693,-4.7302,-4.7597,-4.7627,-4.7264,-4.6457,-4.5707,-4.5273,-4.5103,-4.5273,-4.5573,-4.5252,-4.5178,-4.5495,-4.5198,-4.4884,-4.4655,-4.4649,-4.4419,-4.421,-4.3815,-4.3483,-4.3463,-4.3172,-4.3137,-4.3281,-4.3425,-4.3643,-4.3932,-4.4313,-4.4909,-5.5476,-5.5422,-5.5403,-5.5422,-5.5422,-5.5409,-5.539,-5.5396,-5.5365,-5.4639,-5.3492,-5.3378,-5.3378,-5.3301,-5.2518,-5.1697,-5.0837,-5.0034,-4.9557,-4.9366,-4.9377,-4.971,-5.0245,-5.0302,-5.0302,-5.0302,-5.0302,-5.0302,-5.0302,-5.0302,-5.0302,-5.0225,-4.9671,-4.9366,-4.9328,-4.8525,-4.7761,-4.7111,-4.6901,-4.671,-4.6519,-4.6519,-4.65,-4.6462,-4.5889,-4.5488,-4.5297,-4.5277,-4.4972,-4.435,-4.4303,-4.4369,-4.4541,-4.456,-4.5229,-4.6585,-4.6806,-4.7073,-4.7731,-4.7979,-4.8105,-4.8105,-4.8258,-4.8361,-4.8353,-4.8361,-4.8266,-4.8151,-4.8495,-4.8743,-4.8877,-4.95,-4.995,-4.995,-4.995,-5.0027,-4.9874,-4.9194,-4.8648,-4.8648,-4.8495,-4.8399,-4.8361,-4.8361,-4.8399,-4.8437,-4.822,-4.8105,-4.8028,-4.7494,-4.6784,-4.6015,-4.5589,-4.5635,-4.6185,-4.5991,-4.5916,-4.6424,-4.5975,-4.554,-4.5198,-4.4632,-4.4187,-4.4032,-4.346,-4.3178,-4.305,-4.2957,-4.2937,-4.2992,-4.301,-4.2973,-4.3064,-4.3463,-4.4077,-5.5551,-5.5492,-5.5499,-5.5499,-5.5468,-5.542,-5.5395,-5.5402,-5.539,-5.5345,-5.5078,-5.5154,-5.5097,-5.504,-5.4218,-5.3359,-5.248,-5.1735,-5.0932,-5.0225,-5.0187,-5.0225,-5.0302,-5.0302,-5.0302,-5.0302,-5.0302,-5.0302,-5.0302,-5.0302,-5.0302,-5.0302,-5.0225,-5.0168,-5.0073,-4.9385,-4.8938,-4.8831,-4.8086,-4.7292,-4.6557,-4.6519,-4.6519,-4.65,-4.6424,-4.6042,-4.543,-4.5277,-4.5258,-4.5182,-4.522,-4.5545,-4.6194,-4.629,-4.671,-4.7597,-4.7693,-4.7731,-4.7865,-4.8525,-4.8976,-4.9033,-4.9595,-4.9977,-4.9996,-5.0015,-4.9729,-4.9385,-5.0359,-5.1016,-5.1283,-5.1907,-5.2289,-5.2231,-5.2289,-5.2461,-5.2193,-5.1754,-5.1245,-5.1226,-5.0271,-5.0054,-4.9882,-4.9862,-4.9939,-4.9805,-4.9289,-4.8965,-4.8945,-4.8735,-4.8353,-4.7586,-4.6911,-4.6473,-4.6587,-4.6965,-4.7099,-4.7233,-4.7182,-4.6625,-4.5925,-4.5486,-4.524,-4.4355,-4.3607,-4.3336,-4.3248,-4.3123,-4.2919,-4.2937,-4.2955,-4.2973,-4.2937,-4.3155,-4.3588,-5.5562,-5.5523,-5.5523,-5.5523,-5.5492,-5.5432,-5.5389,-5.5395,-5.539,-5.539,-5.539,-5.539,-5.539,-5.5365,-5.5021,-5.439,-5.3531,-5.269,-5.1868,-5.1066,-5.055,-5.0302,-5.0302,-5.0302,-5.0302,-5.0302,-5.0302,-5.0302,-5.0302,-5.0302,-5.0302,-5.0302,-5.0302,-5.0302,-5.0264,-4.9977,-4.9576,-4.9079,-4.8754,-4.8162,-4.7341,-4.6768,-4.6519,-4.6519,-4.6519,-4.6634,-4.6768,-4.6787,-4.6997,-4.7485,-4.7543,-4.7925,-4.8697,-4.8754,-4.8907,-4.9251,-4.9289,-4.927,-4.9289,-4.9614,-4.9805,-4.9805,-5.0111,-5.0302,-5.0302,-5.0302,-5.034,-5.0665,-5.1219,-5.1773,-5.2289,-5.3072,-5.3569,-5.3569,-5.3569,-5.3378,-5.2824,-5.2117,-5.1448,-5.0932,-5.0531,-5.0302,-5.0302,-5.0302,-5.0302,-5.0283,-4.9977,-4.9786,-4.9767,-4.9415,-4.8976,-4.864,-4.8235,-4.8048,-4.7914,-4.765,-4.785,-4.7991,-4.7409,-4.6575,-4.6783,-4.5563,-4.4904,-4.4934,-4.4119,-4.3548,-4.3388,-4.3142,-4.2919,-4.3046,-4.3426,-4.3626,-4.3608,-4.3969,-4.4277,-5.5596,-5.5562,-5.5551,-5.5551,-5.5551,-5.548,-5.5444,-5.542,-5.5415,-5.5396,-5.539,-5.539,-5.539,-5.539,-5.539,-5.4925,-5.4085,-5.3435,-5.2575,-5.1639,-5.0951,-5.0531,-5.0321,-5.0302,-5.0302,-5.0302,-5.0302,-5.0302,-5.0302,-5.0302,-5.0302,-5.0302,-5.0302,-5.0302,-5.0302,-5.0302,-5.0015,-4.95,-4.9423,-4.9003,-4.82,-4.7551,-4.7092,-4.6901,-4.7092,-4.7532,-4.8143,-4.8361,-4.8774,-4.9385,-4.9423,-4.9671,-5.0245,-5.0302,-5.0302,-5.0302,-5.0302,-5.0302,-5.0302,-5.0302,-5.0302,-5.0321,-5.0493,-5.0646,-5.0703,-5.0856,-5.1372,-5.2174,-5.2289,-5.2614,-5.311,-5.3951,-5.4428,-5.4448,-5.4467,-5.4104,-5.3282,-5.2422,-5.1639,-5.0818,-5.0531,-5.0302,-5.0302,-5.0302,-5.0302,-5.0283,-5.0283,-5.0302,-5.0245,-4.9805,-4.9454,-4.9423,-4.9404,-4.9285,-4.9074,-4.8822,-4.8684,-4.8762,-4.8211,-4.7788,-4.7871,-4.6429,-4.5517,-4.6186,-4.4814,-4.4033,-4.4073,-4.3741,-4.3389,-4.3607,-4.4005,-4.4421,-4.4421,-4.4947,-4.4947,-5.5703,-5.5703,-5.5684,-5.5673,-5.5692,-5.5607,-5.5551,-5.548,-5.542,-5.5396,-5.5384,-5.539,-5.539,-5.539,-5.539,-5.4944,-5.4199,-5.4027,-5.3187,-5.183,-5.1532,-5.1085,-5.0321,-5.0302,-5.0302,-5.0302,-5.0302,-5.0302,-5.0302,-5.0302,-5.0302,-5.0302,-5.0302,-5.0302,-5.0302,-5.0302,-5.0283,-5.0168,-5.0168,-4.9843,-4.9148,-4.8995,-4.8544,-4.796,-4.8487,-4.8842,-4.9003,-4.9729,-5.013,-5.0206,-5.013,-5.0225,-5.0302,-5.0302,-5.0302,-5.0302,-5.0302,-5.0302,-5.0302,-5.0302,-5.0302,-5.0397,-5.0932,-5.1474,-5.1353,-5.1945,-5.269,-5.3817,-5.3722,-5.3874,-5.4085,-5.4715,-5.5212,-5.5231,-5.5275,-5.4887,-5.4085,-5.3225,-5.2422,-5.162,-5.0875,-5.0436,-5.0321,-5.0302,-5.0302,-5.0302,-5.0302,-5.0302,-5.0283,-5.0225,-5.0149,-5.013,-5.0099,-4.9954,-4.9284,-4.9341,-4.9782,-4.9758,-4.9422,-4.941,-4.9036,-4.8549,-4.7985,-4.7278,-4.5952,-4.5145,-4.5008,-4.4797,-4.4541,-4.4639,-4.4947,-4.5218,-4.5236,-4.5254,-4.5327,-5.5684,-5.5684,-5.5684,-5.5684,-5.5684,-5.5618,-5.5562,-5.5473,-5.5432,-5.539,-5.5384,-5.539,-5.539,-5.539,-5.539,-5.5231,-5.4906,-5.4371,-5.376,-5.3091,-5.2098,-5.1429,-5.1123,-5.0569,-5.0302,-5.0302,-5.0302,-5.0302,-5.0302,-5.0302,-5.0302,-5.0302,-5.0302,-5.0302,-5.0302,-5.0302,-5.0302,-5.0302,-5.0302,-5.0149,-4.9882,-4.9862,-4.971,-4.9385,-4.864,-4.8277,-4.8277,-4.8563,-4.8945,-4.9519,-4.9538,-4.9767,-5.0225,-5.0302,-5.0302,-5.0302,-5.0302,-5.0302,-5.0302,-5.0302,-5.0302,-5.0321,-5.0569,-5.0837,-5.0913,-5.1544,-5.2365,-5.3148,-5.3836,-5.4256,-5.4849,-5.525,-5.539,-5.539,-5.5371,-5.5059,-5.4314,-5.3798,-5.3301,-5.248,-5.1639,-5.0971,-5.0474,-5.0302,-5.0302,-5.0302,-5.0302,-5.0302,-5.0302,-5.0302,-5.0302,-5.0302,-5.0283,-5.0195,-4.9954,-5.0018,-5.0197,-5.0033,-4.9849,-4.9694,-4.9416,-4.8605,-4.7909,-4.8088,-4.6967,-4.603,-4.5756,-4.537,-4.5225,-4.5345,-4.5689,-4.6051,-4.6069,-4.6214,-4.6269,-5.5684,-5.5684,-5.5684,-5.5684,-5.5703,-5.5651,-5.5593,-5.5504,-5.5456,-5.5421,-5.5416,-5.539,-5.539,-5.539,-5.539,-5.539,-5.5345,-5.4791,-5.4371,-5.4008,-5.2919,-5.2117,-5.1563,-5.1009,-5.0569,-5.034,-5.0302,-5.0302,-5.0302,-5.0302,-5.0302,-5.0302,-5.0302,-5.0302,-5.0302,-5.0302,-5.0302,-5.0302,-5.0302,-5.0302,-5.0302,-5.0302,-5.0302,-5.0149,-4.9194,-4.8602,-4.8621,-4.859,-4.885,-4.9385,-4.948,-4.9729,-5.0245,-5.0302,-5.0302,-5.0302,-5.0302,-5.0302,-5.0302,-5.0302,-5.0302,-5.0321,-5.0588,-5.0722,-5.0799,-5.1754,-5.2594,-5.3263,-5.4008,-5.483,-5.5218,-5.539,-5.539,-5.539,-5.539,-5.504,-5.4256,-5.4104,-5.3683,-5.2862,-5.204,-5.1353,-5.0837,-5.0493,-5.034,-5.0302,-5.0302,-5.0302,-5.0302,-5.0302,-5.0302,-5.0302,-5.0302,-5.0302,-5.0176,-5.0214,-5.029,-5.0145,-5.0087,-4.9964,-4.9681,-4.8788,-4.8384,-4.858,-4.8089,-4.708,-4.6395,-4.5987,-4.5938,-4.5999,-4.6432,-4.6884,-4.7029,-4.7246,-4.712,-5.5684,-5.5684,-5.5684,-5.5684,-5.5684,-5.5684,-5.5618,-5.5516,-5.5511,-5.547,-5.5396,-5.5403,-5.539,-5.539,-5.539,-5.539,-5.5365,-5.5288,-5.4887,-5.4218,-5.4008,-5.3129,-5.1888,-5.1697,-5.1238,-5.0588,-5.0378,-5.0359,-5.0436,-5.0359,-5.0302,-5.0302,-5.0302,-5.0302,-5.0302,-5.0302,-5.0302,-5.0302,-5.0302,-5.0302,-5.0302,-5.0302,-5.0302,-5.0302,-5.0168,-5.0092,-5.0168,-5.0168,-5.013,-5.0187,-5.0225,-5.0283,-5.0283,-5.0302,-5.0302,-5.0302,-5.0302,-5.0302,-5.0302,-5.0302,-5.0302,-5.0397,-5.1035,-5.1417,-5.1455,-5.2843,-5.3836,-5.3874,-5.4677,-5.5371,-5.5352,-5.539,-5.539,-5.539,-5.539,-5.504,-5.4448,-5.4142,-5.3779,-5.2996,-5.2231,-5.1665,-5.141,-5.0799,-5.034,-5.0302,-5.0302,-5.0302,-5.0302,-5.0302,-5.0302,-5.0302,-5.0302,-5.0302,-5.0302,-5.0302,-5.0302,-5.0271,-5.0252,-5.019,-5.0068,-4.9473,-4.9251,-4.9277,-4.8405,-4.7439,-4.6925,-4.6604,-4.6821,-4.6975,-4.7409,-4.7518,-4.7554,-4.7572,-4.7627,-5.5684,-5.5684,-5.5684,-5.5684,-5.5684,-5.5684,-5.564,-5.5562,-5.5527,-5.5456,-5.5409,-5.5396,-5.539,-5.539,-5.539,-5.5409,-5.539,-5.5384,-5.5231,-5.4925,-5.439,-5.3855,-5.3282,-5.269,-5.227,-5.1945,-5.1467,-5.12,-5.1104,-5.0608,-5.0302,-5.0302,-5.0302,-5.0302,-5.0302,-5.0302,-5.0302,-5.0302,-5.0302,-5.0302,-5.0302,-5.0302,-5.0302,-5.0302,-5.0302,-5.0302,-5.0302,-5.0302,-5.0302,-5.0302,-5.0302,-5.0302,-5.0302,-5.0302,-5.0302,-5.0302,-5.0302,-5.0302,-5.0302,-5.0302,-5.0302,-5.0455,-5.1092,-5.1207,-5.1035,-5.2824,-5.376,-5.3531,-5.4486,-5.539,-5.539,-5.539,-5.539,-5.539,-5.539,-5.5307,-5.5002,-5.4944,-5.4581,-5.3798,-5.2938,-5.227,-5.1639,-5.0894,-5.0417,-5.0359,-5.034,-5.0302,-5.0302,-5.0302,-5.0302,-5.0302,-5.0302,-5.0302,-5.0302,-5.0302,-5.0302,-5.0302,-5.029,-5.0278,-5.0194,-5.0108,-4.9959,-4.9468,-4.8584,-4.7942,-4.7474,-4.7319,-4.7428,-4.75,-4.7591,-4.7645,-4.7699,-4.7699,-4.7699,-5.5876,-5.6156,-5.5818,-5.6088,-5.653,-5.603,-5.6055,-5.6441,-5.6141,-5.6139,-5.6333,-5.6346,-5.632,-5.632,-5.6339,-5.6148,-5.5861,-5.5842,-5.567,-5.5384,-5.4906,-5.4448,-5.4046,-5.3206,-5.2785,-5.2709,-5.2289,-5.2059,-5.2002,-5.1219,-5.0779,-5.0779,-5.0474,-5.0302,-5.0302,-5.0302,-5.0302,-5.0302,-5.0302,-5.0302,-5.0302,-5.0302,-5.0302,-5.0302,-5.0302,-5.0302,-5.0302,-5.0302,-5.0302,-5.0302,-5.0302,-5.0302,-5.0302,-5.0302,-5.0302,-5.0302,-5.0302,-5.0302,-5.0302,-5.0302,-5.0302,-5.0436,-5.1104,-5.1391,-5.1295,-5.29,-5.3722,-5.3626,-5.4562,-5.539,-5.539,-5.539,-5.539,-5.539,-5.539,-5.539,-5.539,-5.539,-5.5212,-5.4543,-5.3836,-5.3129,-5.2518,-5.1455,-5.0856,-5.076,-5.0493,-5.0302,-5.0302,-5.0302,-5.0302,-5.0302,-5.0302,-5.0302,-5.0302,-5.0302,-5.0302,-5.0302,-5.0302,-5.0267,-5.0207,-5.012,-4.9986,-4.9309,-4.8509,-4.8105,-4.7645,-4.7596,-4.7645,-4.7699,-4.7699,-4.7699,-4.7699,-4.7699,-4.7699,-5.6291,-5.6926,-5.6203,-5.6799,-5.7896,-5.6626,-5.6786,-5.7824,-5.7254,-5.7243,-5.7775,-5.7704,-5.776,-5.7804,-5.7659,-5.7295,-5.6791,-5.669,-5.639,-5.588,-5.5498,-5.5078,-5.4295,-5.3588,-5.3282,-5.3168,-5.2977,-5.2862,-5.2843,-5.2059,-5.1677,-5.1601,-5.1009,-5.0493,-5.0646,-5.0474,-5.0474,-5.0512,-5.0378,-5.0302,-5.0302,-5.0302,-5.0302,-5.0302,-5.0302,-5.0302,-5.0302,-5.0302,-5.0302,-5.0302,-5.0302,-5.0302,-5.0302,-5.0302,-5.0302,-5.0302,-5.0302,-5.0302,-5.0302,-5.0302,-5.0378,-5.0569,-5.1276,-5.1665,-5.1926,-5.3244,-5.4218,-5.4027,-5.4849,-5.539,-5.539,-5.539,-5.539,-5.539,-5.539,-5.539,-5.539,-5.539,-5.5294,-5.5193,-5.4658,-5.4008,-5.3664,-5.2365,-5.1697,-5.1353,-5.0818,-5.0417,-5.0493,-5.0512,-5.034,-5.0302,-5.0302,-5.0302,-5.0302,-5.0302,-5.0302,-5.0302,-5.029,-5.0267,-5.0095,-4.9961,-4.9655,-4.9001,-4.8495,-4.8131,-4.7886,-4.7762,-4.7699,-4.7699,-4.7699,-4.7699,-4.7699,-4.7699,-4.7699,-5.7176,-5.7915,-5.7723,-5.7896,-5.8242,-5.7761,-5.7827,-5.8227,-5.7997,-5.7968,-5.8117,-5.808,-5.8081,-5.8055,-5.8062,-5.7877,-5.7692,-5.7621,-5.7544,-5.7179,-5.653,-5.5842,-5.5193,-5.483,-5.4658,-5.4562,-5.4027,-5.376,-5.3683,-5.29,-5.2499,-5.248,-5.2193,-5.2079,-5.2079,-5.1505,-5.1264,-5.1162,-5.0588,-5.0359,-5.034,-5.034,-5.0302,-5.0302,-5.0302,-5.0302,-5.0302,-5.0302,-5.0302,-5.0302,-5.0302,-5.0302,-5.0302,-5.0302,-5.0321,-5.0378,-5.034,-5.034,-5.0359,-5.0378,-5.0608,-5.1238,-5.2021,-5.248,-5.2556,-5.4065,-5.46,-5.4467,-5.4887,-5.539,-5.539,-5.539,-5.539,-5.539,-5.539,-5.539,-5.539,-5.539,-5.539,-5.5294,-5.4639,-5.4008,-5.332,-5.2518,-5.1792,-5.1608,-5.1085,-5.0569,-5.0856,-5.055,-5.0302,-5.0302,-5.0302,-5.0302,-5.0302,-5.0302,-5.0302,-5.0302,-5.029,-5.0236,-4.9955,-4.9632,-4.9148,-4.8532,-4.8192,-4.7845,-4.7783,-4.7699,-4.7699,-4.7699,-4.7699,-4.7699,-4.7699,-4.7699,-4.7699,-5.7357,-5.8704,-5.7665,-5.805,-5.9088,-5.8223,-5.8357,-5.9135,-5.8865,-5.8707,-5.8695,-5.8647,-5.8591,-5.8591,-5.8591,-5.8553,-5.8521,-5.8489,-5.8259,-5.7823,-5.7351,-5.6492,-5.567,-5.539,-5.539,-5.5365,-5.4906,-5.4677,-5.4505,-5.3779,-5.3378,-5.3244,-5.2977,-5.2805,-5.269,-5.2384,-5.2117,-5.204,-5.1582,-5.1219,-5.0875,-5.0856,-5.0588,-5.0417,-5.0302,-5.0302,-5.0302,-5.0302,-5.0302,-5.0302,-5.0302,-5.0302,-5.0302,-5.0302,-5.0455,-5.0779,-5.0856,-5.099,-5.1295,-5.1353,-5.1563,-5.2136,-5.2862,-5.3263,-5.355,-5.4639,-5.5097,-5.4868,-5.5174,-5.5345,-5.539,-5.539,-5.539,-5.539,-5.539,-5.539,-5.539,-5.539,-5.539,-5.5269,-5.4963,-5.4505,-5.3894,-5.3129,-5.2747,-5.2448,-5.1677,-5.1429,-5.136,-5.0768,-5.0397,-5.0512,-5.0493,-5.0493,-5.0512,-5.0531,-5.0608,-5.0588,-5.0622,-5.0522,-5.0044,-4.9563,-4.8915,-4.8402,-4.7992,-4.7699,-4.7699,-4.7699,-4.7699,-4.7699,-4.7699,-4.7699,-4.7699,-4.788,-4.7862,-5.7261,-5.93,-5.7049,-5.7915,-6.0146,-5.8454,-5.8819,-6.0327,-5.9876,-5.9545,-5.9552,-5.9472,-5.9491,-5.9466,-5.9491,-5.9441,-5.9357,-5.9357,-5.8807,-5.8353,-5.7905,-5.7294,-5.6071,-5.5995,-5.5957,-5.588,-5.5632,-5.5517,-5.5307,-5.4639,-5.4276,-5.4123,-5.3511,-5.3187,-5.3301,-5.3072,-5.2938,-5.29,-5.2652,-5.2231,-5.1811,-5.1677,-5.1353,-5.0703,-5.0588,-5.0703,-5.0722,-5.0703,-5.0703,-5.0627,-5.0474,-5.0588,-5.0588,-5.0627,-5.0951,-5.1532,-5.1754,-5.2002,-5.2556,-5.2556,-5.2766,-5.3015,-5.3626,-5.4161,-5.4333,-5.5002,-5.5333,-5.5237,-5.5371,-5.539,-5.539,-5.539,-5.539,-5.539,-5.539,-5.539,-5.539,-5.539,-5.539,-5.539,-5.5403,-5.5384,-5.5097,-5.4677,-5.4027,-5.3339,-5.2575,-5.2193,-5.204,-5.1677,-5.1276,-5.1028,-5.0932,-5.0741,-5.076,-5.0779,-5.0894,-5.0971,-5.11,-5.0964,-5.0374,-4.98,-4.9015,-4.8403,-4.7931,-4.7738,-4.7699,-4.7699,-4.7699,-4.7699,-4.7699,-4.7699,-4.7735,-4.8061,-4.817,-5.7819,-5.9454,-5.8896,-5.9492,-6.0589,-6.0223,-6.0242,-6.0742,-6.0577,-6.0392,-6.0431,-6.0438,-6.0407,-6.0407,-6.0299,-6.0404,-6.0214,-6.0163,-5.9785,-5.8918,-5.8861,-5.8326,-5.7504,-5.7371,-5.7332,-5.7141,-5.6587,-5.6358,-5.6129,-5.5575,-5.5116,-5.5059,-5.483,-5.4811,-5.4677,-5.4065,-5.3817,-5.3722,-5.3225,-5.2843,-5.2633,-5.2537,-5.2155,-5.141,-5.1314,-5.1658,-5.2136,-5.227,-5.227,-5.2117,-5.1735,-5.1639,-5.1964,-5.2117,-5.2251,-5.2442,-5.2537,-5.2633,-5.2785,-5.2977,-5.311,-5.3779,-5.4046,-5.4409,-5.5078,-5.5231,-5.539,-5.539,-5.539,-5.539,-5.539,-5.539,-5.539,-5.539,-5.539,-5.539,-5.539,-5.539,-5.539,-5.539,-5.5384,-5.5174,-5.4543,-5.4467,-5.4142,-5.3989,-5.3569,-5.3015,-5.2728,-5.2499,-5.2117,-5.1716,-5.1735,-5.1639,-5.1639,-5.162,-5.162,-5.162,-5.1672,-5.1484,-5.0896,-5.0169,-4.9429,-4.864,-4.7866,-4.7777,-4.7811,-4.7699,-4.7699,-4.7699,-4.7717,-4.7699,-4.7808,-4.817,-4.8475,-5.8215,-5.9973,-5.9281,-5.9665,-6.0627,-6.0396,-6.0416,-6.0742,-6.08,-6.055,-6.0242,-6.0185,-6.0185,-6.0204,-6.0192,-6.0268,-6.0546,-6.0525,-6.0242,-5.9772,-5.9701,-5.9472,-5.9205,-5.8956,-5.8765,-5.802,-5.7466,-5.7218,-5.6988,-5.6434,-5.5976,-5.5899,-5.5632,-5.5307,-5.539,-5.4925,-5.4734,-5.4658,-5.4295,-5.3855,-5.3492,-5.3397,-5.2996,-5.2346,-5.2174,-5.2403,-5.2709,-5.2766,-5.2996,-5.3168,-5.2996,-5.2709,-5.2747,-5.2824,-5.2977,-5.3339,-5.3397,-5.3664,-5.3855,-5.4046,-5.4256,-5.4619,-5.4715,-5.4963,-5.5275,-5.539,-5.539,-5.539,-5.539,-5.539,-5.539,-5.539,-5.539,-5.539,-5.539,-5.539,-5.539,-5.539,-5.539,-5.539,-5.539,-5.5212,-5.4868,-5.4619,-5.4658,-5.4696,-5.4104,-5.3569,-5.3339,-5.3091,-5.2747,-5.248,-5.2594,-5.2614,-5.2614,-5.2575,-5.248,-5.2442,-5.2384,-5.205,-5.154,-5.0721,-4.9913,-4.9152,-4.8442,-4.7998,-4.7977,-4.7847,-4.779,-4.7753,-4.7753,-4.7717,-4.7916,-4.8384,-4.8637,-5.8531,-6.0492,-5.9069,-5.9377,-6.055,-6.0069,-6.0185,-6.0742,-6.08,-6.0473,-5.9838,-5.9704,-5.9954,-5.9781,-5.9838,-6.0114,-6.0425,-6.0499,-6.0335,-6.0297,-6.025,-6.0193,-6.0155,-6.0021,-5.9606,-5.8345,-5.8135,-5.8096,-5.7848,-5.7256,-5.6683,-5.6492,-5.5957,-5.5594,-5.5466,-5.539,-5.5288,-5.5231,-5.5154,-5.4906,-5.4428,-5.4295,-5.3894,-5.3473,-5.3053,-5.3187,-5.3378,-5.3473,-5.3607,-5.4237,-5.4295,-5.3894,-5.3416,-5.3225,-5.3454,-5.4276,-5.4295,-5.4543,-5.4944,-5.5193,-5.5237,-5.539,-5.5365,-5.5365,-5.5371,-5.539,-5.539,-5.5479,-5.5536,-5.5785,-5.5766,-5.5995,-5.588,-5.5689,-5.5613,-5.5536,-5.5409,-5.539,-5.539,-5.539,-5.539,-5.5269,-5.5269,-5.5174,-5.5294,-5.5275,-5.4677,-5.4218,-5.3989,-5.3855,-5.3626,-5.3588,-5.3779,-5.3836,-5.3836,-5.3741,-5.3626,-5.3492,-5.3339,-5.2935,-5.2485,-5.2117,-5.1378,-4.9939,-4.9198,-4.8805,-4.8448,-4.8333,-4.8224,-4.795,-4.7859,-4.7916,-4.8242,-4.8637,-4.8981,-5.8723,-5.9685,-5.9415,-5.9896,-6.0704,-6.0627,-6.0627,-6.0762,-6.08,-6.0723,-6.0569,-6.0569,-6.0512,-6.0531,-6.0569,-6.0649,-6.0629,-6.0552,-6.0472,-6.0458,-6.0431,-6.0403,-6.0403,-6.0384,-6.0155,-5.9873,-5.9338,-5.8918,-5.8708,-5.8096,-5.7428,-5.6778,-5.6511,-5.6186,-5.5728,-5.539,-5.5517,-5.5517,-5.5447,-5.5218,-5.5116,-5.504,-5.4982,-5.4639,-5.4161,-5.4218,-5.4715,-5.4906,-5.5059,-5.5193,-5.5193,-5.5059,-5.4811,-5.4791,-5.4906,-5.5002,-5.504,-5.5142,-5.5352,-5.539,-5.539,-5.539,-5.539,-5.539,-5.539,-5.5409,-5.5447,-5.5689,-5.611,-5.6664,-5.7428,-5.7237,-5.7008,-5.6645,-5.6282,-5.6091,-5.5632,-5.5422,-5.539,-5.539,-5.539,-5.539,-5.539,-5.539,-5.539,-5.539,-5.5103,-5.4868,-5.4791,-5.4811,-5.4849,-5.4906,-5.5078,-5.5097,-5.5097,-5.4982,-5.4868,-5.4715,-5.4517,-5.4216,-5.3896,-5.3808,-5.2976,-5.1261,-5.0216,-4.9796,-4.9423,-4.9003,-4.9003,-4.9021,-4.8641,-4.8224,-4.8858,-4.951,-5.0053,-5.9415,-6.0146,-6.0185,-6.0416,-6.0742,-6.08,-6.08,-6.08,-6.08,-6.08,-6.08,-6.08,-6.08,-6.08,-6.08,-6.0765,-6.0673,-6.0546,-6.0493,-6.0485,-6.0431,-6.0403,-6.0403,-6.0403,-6.0403,-6.0288,-5.995,-5.9739,-5.9682,-5.8918,-5.8288,-5.7944,-5.7523,-5.7065,-5.6664,-5.6282,-5.6052,-5.5957,-5.5651,-5.5428,-5.5409,-5.539,-5.539,-5.525,-5.504,-5.504,-5.525,-5.539,-5.5371,-5.5371,-5.5371,-5.539,-5.539,-5.539,-5.539,-5.539,-5.539,-5.539,-5.539,-5.539,-5.539,-5.539,-5.539,-5.539,-5.539,-5.5409,-5.5632,-5.6148,-5.6778,-5.7428,-5.781,-5.7944,-5.7676,-5.7313,-5.6931,-5.6511,-5.6071,-5.5689,-5.5536,-5.5447,-5.539,-5.539,-5.539,-5.539,-5.539,-5.539,-5.539,-5.539,-5.539,-5.539,-5.539,-5.5384,-5.5384,-5.5384,-5.5403,-5.5403,-5.539,-5.539,-5.5305,-5.4981,-5.4557,-5.4132,-5.3422,-5.2181,-5.1424,-5.0736,-5.013,-4.9619,-4.9858,-5.0021,-4.9546,-4.9311,-4.9836,-5.0397,-5.0832,-6.0165,-6.08,-6.08,-6.08,-6.08,-6.08,-6.08,-6.08,-6.08,-6.08,-6.08,-6.08,-6.08,-6.0793,-6.0827,-6.0796,-6.0722,-6.0604,-6.0546,-6.0493,-6.0444,-6.0403,-6.0403,-6.0403,-6.0403,-6.0384,-6.0346,-6.0403,-6.0179,-5.9682,-5.9319,-5.8822,-5.8326,-5.8001,-5.7676,-5.7103,-5.6887,-5.6454,-5.6243,-5.588,-5.567,-5.5479,-5.539,-5.539,-5.539,-5.5365,-5.539,-5.539,-5.539,-5.539,-5.539,-5.539,-5.539,-5.539,-5.539,-5.539,-5.539,-5.539,-5.539,-5.539,-5.539,-5.539,-5.539,-5.539,-5.5498,-5.5689,-5.611,-5.6969,-5.7657,-5.8307,-5.8593,-5.8479,-5.8345,-5.8039,-5.7562,-5.7008,-5.6721,-5.6358,-5.588,-5.5747,-5.5536,-5.5479,-5.5517,-5.539,-5.539,-5.539,-5.539,-5.539,-5.539,-5.539,-5.539,-5.539,-5.539,-5.539,-5.539,-5.5403,-5.539,-5.539,-5.5305,-5.5071,-5.4572,-5.4066,-5.3286,-5.2596,-5.2162,-5.1479,-5.0859,-5.0456,-5.0709,-5.0705,-5.0343,-5.0434,-5.0959,-5.1049,-5.1194,-6.0704,-6.08,-6.08,-6.08,-6.08,-6.08,-6.08,-6.08,-6.08,-6.08,-6.08,-6.08,-6.08,-6.0827,-6.0923,-6.0901,-6.0869,-6.0762,-6.0726,-6.0725,-6.0516,-6.0403,-6.0403,-6.0403,-6.0403,-6.0403,-6.0403,-6.0403,-6.0346,-6.0217,-5.9816,-5.9262,-5.9071,-5.8689,-5.8249,-5.7905,-5.7351,-5.6893,-5.7237,-5.716,-5.6434,-5.5766,-5.5517,-5.539,-5.539,-5.539,-5.539,-5.539,-5.539,-5.539,-5.539,-5.539,-5.539,-5.539,-5.539,-5.539,-5.539,-5.539,-5.539,-5.539,-5.539,-5.539,-5.539,-5.539,-5.5689,-5.6339,-5.7199,-5.8689,-5.8937,-5.9205,-5.9663,-5.9963,-5.9682,-5.9185,-5.8651,-5.8192,-5.781,-5.7027,-5.6568,-5.6377,-5.6301,-5.5899,-5.5708,-5.5536,-5.539,-5.539,-5.539,-5.539,-5.539,-5.539,-5.539,-5.539,-5.539,-5.539,-5.539,-5.539,-5.539,-5.539,-5.5305,-5.5113,-5.4506,-5.3959,-5.3452,-5.2828,-5.2466,-5.2236,-5.1796,-5.1556,-5.1629,-5.143,-5.1122,-5.1484,-5.2082,-5.1973,-5.1647,-6.08,-6.08,-6.08,-6.08,-6.08,-6.08,-6.08,-6.08,-6.08,-6.08,-6.08,-6.08,-6.08,-6.088,-6.0924,-6.1213,-6.135,-6.1109,-6.1058,-6.1128,-6.0811,-6.046,-6.0403,-6.0403,-6.0403,-6.0518,-6.0403,-6.0403,-6.0403,-6.0403,-6.0122,-5.9892,-5.9816,-5.9739,-5.9109,-5.8803,-5.844,-5.8116,-5.7925,-5.7428,-5.674,-5.6262,-5.588,-5.5441,-5.5428,-5.5428,-5.5422,-5.539,-5.539,-5.539,-5.539,-5.539,-5.539,-5.539,-5.539,-5.539,-5.539,-5.539,-5.539,-5.5409,-5.5428,-5.5422,-5.5479,-5.5594,-5.6148,-5.7237,-5.8135,-5.8962,-5.9568,-6.0007,-6.0293,-6.0384,-6.0198,-5.9854,-5.9434,-5.9109,-5.8574,-5.7886,-5.7332,-5.7179,-5.7008,-5.6625,-5.6129,-5.5651,-5.5536,-5.5536,-5.5479,-5.539,-5.539,-5.539,-5.539,-5.539,-5.539,-5.539,-5.539,-5.539,-5.539,-5.539,-5.539,-5.5099,-5.4406,-5.3832,-5.3413,-5.2996,-5.254,-5.2435,-5.2485,-5.2335,-5.2082,-5.1991,-5.1919,-5.2172,-5.2408,-5.2371,-5.2154,-6.08,-6.08,-6.08,-6.08,-6.08,-6.08,-6.08,-6.08,-6.08,-6.0816,-6.0845,-6.0899,-6.1018,-6.1222,-6.1447,-6.1843,-6.2409,-6.1769,-6.1797,-6.1787,-6.1513,-6.1181,-6.1225,-6.1115,-6.1134,-6.1,-6.1249,-6.1058,-6.079,-6.0695,-6.069,-6.0422,-6.0269,-6.0288,-6.0179,-5.9778,-5.9357,-5.93,-5.8364,-5.7753,-5.7371,-5.7065,-5.6625,-5.6205,-5.5842,-5.5689,-5.567,-5.5441,-5.539,-5.539,-5.539,-5.539,-5.539,-5.539,-5.539,-5.539,-5.539,-5.5556,-5.5708,-5.5804,-5.5708,-5.5766,-5.6052,-5.6568,-5.7294,-5.8517,-5.9319,-5.9491,-5.9931,-6.0288,-6.0403,-6.0403,-6.0346,-6.0122,-5.9854,-5.9606,-5.93,-5.8631,-5.8116,-5.7925,-5.7714,-5.7428,-5.6836,-5.5995,-5.5689,-5.5689,-5.5594,-5.5409,-5.539,-5.539,-5.5441,-5.5441,-5.546,-5.546,-5.5466,-5.5447,-5.5428,-5.5447,-5.5447,-5.5004,-5.4307,-5.3905,-5.355,-5.3122,-5.2604,-5.2508,-5.2485,-5.2503,-5.248,-5.2317,-5.2226,-5.2353,-5.248,-5.2498,-5.2498,-6.08,-6.08,-6.0793,-6.0812,-6.08,-6.08,-6.0781,-6.0816,-6.0804,-6.0927,-6.1128,-6.12,-6.1702,-6.221,-6.2424,-6.2801,-6.3477,-6.335,-6.3122,-6.297,-6.2861,-6.2529,-6.2424,-6.2376,-6.251,-6.251,-6.2338,-6.1975,-6.1688,-6.1535,-6.1096,-6.0518,-6.0518,-6.0441,-6.0365,-6.0212,-6.0102,-5.9854,-5.8918,-5.8498,-5.8364,-5.8154,-5.7676,-5.7447,-5.6931,-5.6524,-5.6486,-5.5995,-5.5594,-5.5613,-5.5575,-5.5422,-5.5441,-5.539,-5.539,-5.5594,-5.5613,-5.5919,-5.632,-5.6396,-5.6486,-5.6734,-5.7179,-5.781,-5.844,-5.8822,-5.9472,-6.0064,-6.0307,-6.0365,-6.0403,-6.0403,-6.0403,-6.0327,-6.0141,-6.0083,-5.9816,-5.9434,-5.8956,-5.8708,-5.8364,-5.8001,-5.7351,-5.6454,-5.6091,-5.6091,-5.5575,-5.539,-5.539,-5.539,-5.5479,-5.5517,-5.5517,-5.5536,-5.5575,-5.5689,-5.5995,-5.588,-5.5766,-5.5026,-5.4153,-5.3869,-5.3702,-5.3038,-5.2536,-5.2531,-5.2526,-5.2503,-5.2498,-5.2498,-5.2498,-5.2498,-5.2498,-5.2498,-5.2498,-6.08,-6.0793,-6.0899,-6.0877,-6.08,-6.08,-6.0853,-6.0902,-6.0923,-6.135,-6.1919,-6.2,-6.2475,-6.3104,-6.3335,-6.3696,-6.4193,-6.3688,-6.3731,-6.3597,-6.3373,-6.3021,-6.2921,-6.2987,-6.2873,-6.2987,-6.2949,-6.2834,-6.2452,-6.2395,-6.2299,-6.1803,-6.0981,-6.0479,-6.0403,-6.0422,-6.0403,-6.0288,-5.9753,-5.9453,-5.8918,-5.8842,-5.8402,-5.7848,-5.7714,-5.7409,-5.7351,-5.7122,-5.6683,-5.6301,-5.6167,-5.5938,-5.5651,-5.5575,-5.5766,-5.6071,-5.6148,-5.6587,-5.7065,-5.7027,-5.6816,-5.7504,-5.8135,-5.8803,-5.9229,-5.9529,-5.9931,-6.0307,-6.0403,-6.0403,-6.0403,-6.0403,-6.0403,-6.0403,-6.0403,-6.0403,-6.025,-5.9854,-5.9568,-5.9205,-5.8803,-5.8402,-5.7657,-5.6874,-5.6645,-5.6454,-5.5861,-5.539,-5.539,-5.5409,-5.5517,-5.5651,-5.5689,-5.6186,-5.6301,-5.6473,-5.6625,-5.6415,-5.6148,-5.5386,-5.461,-5.4066,-5.3814,-5.3083,-5.2563,-5.2554,-5.2549,-5.2503,-5.2498,-5.2498,-5.2498,-5.2498,-5.2498,-5.2498,-5.2498,-6.101,-6.1255,-6.1398,-6.1206,-6.0935,-6.1181,-6.1351,-6.1481,-6.177,-6.2226,-6.2931,-6.3021,-6.3517,-6.4134,-6.428,-6.4629,-6.4991,-6.4783,-6.4629,-6.4507,-6.4249,-6.3794,-6.3695,-6.3732,-6.3885,-6.3656,-6.3618,-6.3656,-6.3293,-6.3293,-6.3025,-6.249,-6.1803,-6.1268,-6.0733,-6.0499,-6.0422,-6.0403,-6.0327,-6.016,-5.9529,-5.9472,-5.9357,-5.8727,-5.8479,-5.8268,-5.8135,-5.7886,-5.7466,-5.716,-5.6931,-5.6702,-5.6377,-5.6224,-5.6454,-5.6759,-5.7065,-5.7409,-5.781,-5.7867,-5.7753,-5.867,-5.9128,-5.9453,-5.9644,-6.0045,-6.0307,-6.0365,-6.0403,-6.0403,-6.0403,-6.0403,-6.0403,-6.0403,-6.0403,-6.0403,-6.0403,-6.0141,-5.9931,-5.9663,-5.9224,-5.8708,-5.8096,-5.7313,-5.653,-5.6262,-5.5766,-5.539,-5.539,-5.5447,-5.5536,-5.5708,-5.588,-5.653,-5.7199,-5.6931,-5.6759,-5.7218,-5.684,-5.614,-5.5435,-5.4865,-5.4017,-5.3208,-5.2795,-5.2649,-5.2572,-5.2521,-5.2498,-5.2498,-5.2498,-5.2498,-5.2498,-5.2498,-5.2498,-6.1505,-6.2258,-6.2409,-6.1931,-6.1329,-6.2063,-6.2461,-6.2553,-6.3215,-6.3715,-6.3974,-6.4157,-6.469,-6.5299,-6.5304,-6.557,-6.5941,-6.5984,-6.5809,-6.5441,-6.5345,-6.5403,-6.5217,-6.5027,-6.4821,-6.5242,-6.5012,-6.4573,-6.4153,-6.4153,-6.3751,-6.3312,-6.2853,-6.2223,-6.1573,-6.079,-6.046,-6.0403,-6.0403,-6.0293,-6.0217,-6.016,-6.0045,-5.9854,-5.9396,-5.9109,-5.8994,-5.8651,-5.8249,-5.7944,-5.7867,-5.7695,-5.7485,-5.7466,-5.7619,-5.781,-5.7848,-5.8268,-5.8956,-5.8981,-5.9338,-5.983,-6.0021,-6.0102,-6.0269,-6.0403,-6.0403,-6.0403,-6.0403,-6.0403,-6.0403,-6.0403,-6.0403,-6.0403,-6.0403,-6.0403,-6.0403,-6.0384,-6.0141,-5.9701,-5.9357,-5.8962,-5.844,-5.7734,-5.6625,-5.5995,-5.5575,-5.539,-5.5409,-5.5447,-5.5575,-5.5919,-5.6148,-5.6625,-5.7141,-5.6925,-5.6944,-5.7504,-5.7551,-5.6839,-5.6307,-5.5824,-5.4836,-5.3627,-5.3219,-5.3244,-5.289,-5.2516,-5.2498,-5.2498,-5.2498,-5.2498,-5.2498,-5.2498,-5.2498,-6.218,-6.2494,-6.3203,-6.3305,-6.3048,-6.3235,-6.3405,-6.3573,-6.3969,-6.4482,-6.4967,-6.515,-6.5604,-6.6134,-6.6217,-6.6238,-6.6392,-6.6302,-6.608,-6.5905,-6.5916,-6.5705,-6.5532,-6.5425,-6.5394,-6.5394,-6.5375,-6.5318,-6.4993,-6.4898,-6.4879,-6.4535,-6.3828,-6.2949,-6.1936,-6.1211,-6.1019,-6.0518,-6.0403,-6.0384,-6.0403,-6.0403,-6.0403,-6.0403,-6.0026,-5.9873,-5.9854,-5.9434,-5.9166,-5.8784,-5.8708,-5.8517,-5.8173,-5.8058,-5.8249,-5.8555,-5.8708,-5.909,-5.9701,-5.995,-6.0045,-6.0327,-6.0403,-6.0403,-6.0403,-6.0403,-6.0403,-6.0403,-6.0403,-6.0403,-6.0403,-6.0403,-6.0403,-6.0403,-6.0403,-6.0403,-6.0403,-6.0384,-6.0179,-5.9568,-5.9114,-5.8803,-5.8345,-5.8058,-5.7122,-5.6587,-5.6262,-5.5689,-5.5556,-5.5536,-5.5613,-5.6129,-5.6492,-5.6855,-5.7065,-5.6931,-5.7103,-5.7657,-5.7788,-5.7506,-5.7036,-5.6652,-5.599,-5.4937,-5.4359,-5.3867,-5.3453,-5.3059,-5.2625,-5.2498,-5.2679,-5.2625,-5.2498,-5.2498,-5.2498,-6.3197,-6.354,-6.4252,-6.472,-6.4868,-6.4578,-6.4608,-6.4942,-6.5123,-6.5507,-6.5917,-6.6014,-6.6249,-6.6642,-6.6666,-6.659,-6.656,-6.6379,-6.6191,-6.6026,-6.5953,-6.5756,-6.5575,-6.5469,-6.5425,-6.5409,-6.5394,-6.5375,-6.5318,-6.5375,-6.5299,-6.5127,-6.484,-6.3904,-6.2892,-6.228,-6.1669,-6.1153,-6.0924,-6.0714,-6.0537,-6.0403,-6.0403,-6.0403,-6.0346,-6.0365,-6.0384,-6.0307,-6.0141,-5.9682,-5.9434,-5.9281,-5.8861,-5.8822,-5.9033,-5.9415,-5.9625,-5.9873,-6.0198,-6.0346,-6.0327,-6.0384,-6.0403,-6.0403,-6.0403,-6.0403,-6.0403,-6.0403,-6.0403,-6.0403,-6.0403,-6.0403,-6.0403,-6.0403,-6.0403,-6.0403,-6.0403,-6.0384,-6.0327,-5.9682,-5.9434,-5.8975,-5.8479,-5.8096,-5.7657,-5.7313,-5.7008,-5.6434,-5.5861,-5.5708,-5.5613,-5.5919,-5.6282,-5.6473,-5.6778,-5.7027,-5.7313,-5.781,-5.7846,-5.7791,-5.7665,-5.7248,-5.6757,-5.6174,-5.5241,-5.4454,-5.4067,-5.3675,-5.3331,-5.3168,-5.3222,-5.3005,-5.2607,-5.2607,-5.2715,-6.4525,-6.5279,-6.5543,-6.6051,-6.6541,-6.5867,-6.6029,-6.6714,-6.6737,-6.67,-6.6759,-6.67,-6.6731,-6.672,-6.6638,-6.66,-6.6585,-6.6413,-6.6234,-6.6079,-6.6026,-6.5781,-6.5597,-6.5494,-6.5435,-6.5409,-6.5394,-6.5394,-6.5394,-6.5394,-6.5394,-6.5394,-6.5261,-6.4649,-6.4,-6.3446,-6.2643,-6.1975,-6.1402,-6.1115,-6.079,-6.046,-6.0422,-6.0403,-6.0403,-6.0403,-6.0403,-6.0365,-6.0365,-6.0269,-6.0288,-6.0307,-6.0307,-6.0365,-6.0384,-6.0365,-6.0313,-6.0346,-6.0384,-6.0403,-6.0403,-6.0403,-6.0403,-6.0403,-6.0403,-6.0403,-6.0403,-6.0403,-6.0403,-6.0403,-6.0403,-6.0403,-6.0403,-6.0403,-6.0403,-6.0403,-6.0403,-6.0403,-6.0403,-6.0212,-6.0193,-5.9835,-5.9262,-5.8803,-5.8517,-5.8383,-5.8096,-5.76,-5.6931,-5.5957,-5.5804,-5.5447,-5.5747,-5.588,-5.6205,-5.6587,-5.695,-5.7275,-5.7886,-5.7933,-5.7881,-5.7801,-5.744,-5.676,-5.5713,-5.4992,-5.4526,-5.4291,-5.411,-5.4001,-5.3929,-5.3729,-5.3422,-5.3186,-5.315,-6.5286,-6.5582,-6.6185,-6.658,-6.6759,-6.6541,-6.6583,-6.6778,-6.6798,-6.6798,-6.6798,-6.6798,-6.6759,-6.6681,-6.6713,-6.6666,-6.6605,-6.6527,-6.6379,-6.6226,-6.6039,-6.5837,-6.5671,-6.5537,-6.5465,-6.5405,-6.5394,-6.5409,-6.5394,-6.5394,-6.5394,-6.5394,-6.5394,-6.5165,-6.4993,-6.4764,-6.3732,-6.2815,-6.2147,-6.165,-6.1172,-6.0771,-6.0632,-6.0518,-6.0422,-6.0422,-6.0403,-6.0403,-6.0403,-6.0403,-6.0403,-6.0403,-6.0403,-6.0403,-6.0384,-6.0403,-6.0384,-6.0403,-6.0403,-6.0403,-6.0403,-6.0403,-6.0403,-6.0403,-6.0403,-6.0403,-6.0403,-6.0403,-6.0403,-6.0403,-6.0403,-6.0403,-6.0499,-6.0594,-6.0594,-6.0556,-6.0575,-6.0676,-6.0656,-6.0594,-6.0594,-6.0307,-5.9778,-5.9739,-5.9491,-5.9434,-5.9166,-5.867,-5.7963,-5.695,-5.6301,-5.5976,-5.5823,-5.6129,-5.5766,-5.5957,-5.6339,-5.6759,-5.7351,-5.7873,-5.7967,-5.7901,-5.7912,-5.7379,-5.6364,-5.5567,-5.4894,-5.4762,-5.4744,-5.4707,-5.4635,-5.4454,-5.4255,-5.3929,-5.3711,-6.6053,-6.6131,-6.6583,-6.6798,-6.6798,-6.6798,-6.6798,-6.6798,-6.6798,-6.6798,-6.6798,-6.6798,-6.6756,-6.6705,-6.6709,-6.6701,-6.667,-6.6439,-6.6303,-6.6267,-6.6068,-6.5869,-6.5709,-6.5632,-6.5576,-6.5484,-6.542,-6.544,-6.5409,-6.5394,-6.5394,-6.5394,-6.5394,-6.5394,-6.5337,-6.5184,-6.484,-6.3962,-6.3197,-6.2548,-6.1936,-6.1325,-6.0981,-6.0809,-6.0695,-6.0499,-6.0479,-6.0479,-6.0441,-6.0422,-6.0403,-6.0403,-6.0403,-6.0403,-6.0403,-6.0403,-6.0403,-6.0403,-6.0403,-6.0403,-6.0403,-6.0403,-6.0403,-6.0403,-6.0403,-6.0403,-6.0403,-6.0403,-6.0403,-6.0403,-6.0403,-6.0441,-6.0651,-6.0867,-6.0823,-6.0766,-6.0867,-6.1019,-6.0981,-6.0886,-6.0728,-6.0479,-6.0346,-6.0422,-6.0365,-6.0097,-5.9797,-5.9396,-5.8689,-5.7772,-5.7237,-5.6912,-5.6664,-5.6587,-5.6148,-5.588,-5.632,-5.6683,-5.6759,-5.7262,-5.7687,-5.7696,-5.7438,-5.7259,-5.7018,-5.6335,-5.5686,-5.5474,-5.5395,-5.5414,-5.5522,-5.5468,-5.5088,-5.4418,-5.4255,-6.6798,-6.6778,-6.6798,-6.6798,-6.6798,-6.6798,-6.6798,-6.6798,-6.6798,-6.6798,-6.6798,-6.6798,-6.679,-6.672,-6.6682,-6.6709,-6.6615,-6.6385,-6.6287,-6.6272,-6.6041,-6.5853,-6.582,-6.578,-6.5646,-6.5537,-6.5479,-6.5435,-6.5409,-6.5394,-6.5394,-6.5394,-6.5394,-6.5394,-6.5394,-6.5394,-6.5184,-6.4917,-6.4325,-6.3751,-6.2949,-6.2261,-6.1688,-6.1573,-6.1172,-6.0766,-6.0714,-6.0656,-6.0561,-6.0556,-6.0537,-6.0575,-6.0422,-6.0403,-6.0403,-6.0403,-6.0403,-6.0403,-6.0403,-6.0403,-6.0403,-6.0403,-6.0403,-6.0403,-6.0403,-6.0403,-6.0403,-6.0403,-6.0403,-6.0403,-6.0403,-6.0709,-6.0981,-6.1249,-6.1363,-6.1573,-6.1898,-6.1917,-6.1765,-6.1669,-6.1497,-6.1249,-6.1134,-6.123,-6.1153,-6.079,-6.0274,-5.9911,-5.9663,-5.8803,-5.8173,-5.7829,-5.7409,-5.7141,-5.695,-5.674,-5.6721,-5.6836,-5.683,-5.6797,-5.7319,-5.7172,-5.6834,-5.6803,-5.6768,-5.6985,-5.6655,-5.6327,-5.6156,-5.6464,-5.6518,-5.6536,-5.6029,-5.5214,-5.4907,-6.6798,-6.6798,-6.6798,-6.6798,-6.6798,-6.6798,-6.6798,-6.6798,-6.6798,-6.6798,-6.6798,-6.6792,-6.6733,-6.6674,-6.6723,-6.6746,-6.66,-6.6432,-6.6307,-6.6219,-6.605,-6.591,-6.5826,-6.5807,-6.5701,-6.5594,-6.5523,-6.545,-6.5409,-6.5394,-6.5394,-6.5394,-6.5394,-6.5394,-6.5394,-6.5394,-6.5394,-6.5375,-6.5127,-6.4611,-6.3885,-6.3159,-6.2567,-6.2529,-6.2242,-6.2108,-6.2108,-6.2185,-6.1822,-6.1497,-6.1363,-6.1,-6.0446,-6.046,-6.0422,-6.0422,-6.0594,-6.0651,-6.067,-6.0709,-6.0695,-6.0575,-6.0537,-6.0441,-6.0403,-6.0403,-6.0403,-6.0422,-6.0403,-6.0403,-6.0575,-6.0981,-6.144,-6.1726,-6.1956,-6.2433,-6.2911,-6.2796,-6.2605,-6.249,-6.2357,-6.2166,-6.2013,-6.1936,-6.1879,-6.1421,-6.0714,-6.0408,-6.0752,-6.0293,-5.9243,-5.8746,-5.8039,-5.7734,-5.7619,-5.7581,-5.7562,-5.7504,-5.7504,-5.7332,-5.7103,-5.7047,-5.7011,-5.6606,-5.6498,-5.6713,-5.6879,-5.6847,-5.6826,-5.6917,-5.6953,-5.6699,-5.6699,-5.6084,-5.583,-6.6798,-6.6798,-6.6798,-6.6798,-6.6798,-6.6798,-6.6798,-6.6798,-6.6798,-6.6798,-6.6798,-6.6795,-6.6736,-6.6678,-6.6765,-6.6784,-6.6661,-6.6513,-6.6379,-6.6262,-6.6108,-6.5955,-6.5871,-6.5833,-6.5793,-6.5688,-6.5552,-6.5465,-6.5409,-6.5394,-6.5394,-6.5394,-6.5394,-6.5394,-6.5394,-6.5394,-6.5394,-6.5394,-6.5394,-6.5108,-6.4592,-6.3981,-6.3503,-6.3465,-6.3178,-6.3064,-6.2911,-6.2911,-6.2643,-6.2319,-6.2204,-6.207,-6.1707,-6.1669,-6.1573,-6.1573,-6.1593,-6.1497,-6.1459,-6.1421,-6.1402,-6.1363,-6.1459,-6.1669,-6.1039,-6.1,-6.0709,-6.067,-6.0441,-6.0403,-6.0943,-6.1402,-6.2261,-6.2777,-6.272,-6.2873,-6.3331,-6.356,-6.3484,-6.3446,-6.3121,-6.2624,-6.251,-6.2471,-6.2433,-6.2414,-6.165,-6.1497,-6.1745,-6.165,-6.0618,-5.9854,-5.93,-5.867,-5.844,-5.8421,-5.8421,-5.8345,-5.8236,-5.7794,-5.7472,-5.7358,-5.7201,-5.68,-5.6496,-5.647,-5.6635,-5.6679,-5.655,-5.6373,-5.6536,-5.6681,-5.6736,-5.6826,-5.6591,-6.6798,-6.6798,-6.6798,-6.6798,-6.6834,-6.6951,-6.6912,-6.6837,-6.6932,-6.6912,-6.6798,-6.6798,-6.6798,-6.6798,-6.6798,-6.6798,-6.6753,-6.661,-6.6464,-6.6299,-6.6177,-6.6016,-6.5909,-6.5885,-6.5833,-6.5747,-6.5599,-6.5494,-6.5425,-6.5409,-6.5394,-6.5394,-6.5394,-6.5394,-6.5394,-6.5394,-6.5394,-6.5394,-6.5394,-6.5394,-6.507,-6.4745,-6.4439,-6.4057,-6.3694,-6.3274,-6.3236,-6.3255,-6.3255,-6.2968,-6.2873,-6.2662,-6.2624,-6.251,-6.2586,-6.2548,-6.249,-6.2548,-6.2643,-6.2567,-6.2643,-6.2758,-6.2911,-6.2605,-6.1936,-6.1612,-6.1287,-6.1096,-6.0862,-6.0905,-6.1478,-6.2147,-6.3064,-6.3656,-6.3503,-6.3484,-6.3942,-6.432,-6.432,-6.432,-6.3885,-6.3331,-6.3255,-6.3216,-6.3121,-6.3121,-6.3025,-6.3025,-6.2911,-6.249,-6.1822,-6.1344,-6.0962,-6.0332,-5.951,-5.9338,-5.9357,-5.9163,-5.8996,-5.8335,-5.7811,-5.7643,-5.7351,-5.6959,-5.6722,-5.6772,-5.6452,-5.6377,-5.617,-5.6169,-5.6518,-5.688,-5.6953,-5.7043,-5.7098,-6.6798,-6.6798,-6.6798,-6.6817,-6.6912,-6.7517,-6.7459,-6.699,-6.7517,-6.7478,-6.6915,-6.6798,-6.6798,-6.6798,-6.6798,-6.6795,-6.6787,-6.6666,-6.6495,-6.6307,-6.6203,-6.6052,-6.5946,-6.5903,-6.5859,-6.5761,-6.5641,-6.5552,-6.5465,-6.5425,-6.5394,-6.5394,-6.5394,-6.5394,-6.5394,-6.5394,-6.5394,-6.5394,-6.5394,-6.5394,-6.5394,-6.5203,-6.5222,-6.507,-6.5031,-6.4936,-6.4917,-6.4936,-6.4535,-6.3981,-6.3427,-6.3197,-6.3178,-6.3236,-6.3236,-6.3331,-6.3293,-6.3255,-6.3312,-6.3312,-6.3369,-6.3293,-6.3293,-6.314,-6.272,-6.2643,-6.2414,-6.2338,-6.2147,-6.2013,-6.249,-6.3178,-6.3981,-6.4267,-6.4305,-6.4573,-6.4936,-6.5012,-6.5012,-6.5012,-6.4879,-6.463,-6.4611,-6.4458,-6.421,-6.4038,-6.356,-6.3579,-6.3847,-6.3427,-6.2968,-6.2682,-6.2414,-6.1478,-6.0485,-6.037,-6.0318,-6.0103,-5.976,-5.9153,-5.8509,-5.7855,-5.7529,-5.738,-5.7322,-5.7354,-5.6945,-5.6163,-5.6514,-5.6648,-5.6912,-5.7152,-5.7188,-5.7188,-5.7188]},{"header":{"parameterUnit":"m.s-1","parameterCategory":1,"la1":31.0,"la2":29.5877,"lo1":-88.7671,"lo2":-86.6584,"dy":0.0162,"dx":0.0185,"nx":115,"ny":88,"refTime":"2025-03-04T06:00:00:Z","depth":0,"parameterNumber":3,"parameterNumberName":"V-component_of_WINDS"},"data":[0.0,0.0,0.0,0.0,0.0,0.0,0.0,0.0,0.0,0.0,0.0,0.0,0.0,0.0,0.0,0.0,0.0,0.0,0.0,0.0,0.0,0.0,0.0,0.0,0.0,0.0,0.0,0.0,0.0,0.0,0.0,0.0,0.0,0.0,0.0,0.0,0.0,0.0,0.0,0.0,0.0,0.0,0.0,0.0,0.0,0.0,0.0,0.0,0.0,0.0,0.0,0.0,0.0,0.0,0.0,0.0,0.0,0.0,0.0,0.0,0.0,0.0,0.0,0.0,0.0,0.0,0.0,0.0,0.0,0.0,0.0,0.0,0.0,0.0,0.0,0.0,0.0,0.0,0.0,0.0,0.0,0.0,0.0,0.0,0.0,0.0,0.0,0.0,0.0,0.0,0.0,0.0,0.0,0.0,0.0,0.0,0.0,0.0,0.0,0.0,0.0,0.0,0.0,0.0,0.0,0.0,0.0,0.0,0.0,0.0,0.0,0.0,0.0,0.0,0.0,0.0,0.0,0.0,0.0,0.0,0.0,0.0,0.0,0.0,0.0,0.0,0.0,0.0,0.0,0.0,0.0,0.0,0.0,0.0,0.0,0.0,0.0,0.0,0.0,0.0,0.0,0.0,0.0,0.0,0.0,0.0,0.0,0.0,0.0,0.0,0.0,0.0,0.0,0.0,0.0,0.0,0.0,0.0,0.0,0.0,0.0,0.0,0.0,0.0,0.0,0.0,0.0,0.0,0.0,0.0,0.0,0.0,0.0,0.0,0.0,0.0,0.0,0.0,0.0,0.0,0.0,0.0,0.0,0.0,0.0,0.0,0.0,0.0,0.0,0.0,0.0,0.0,0.0,0.0,0.0,0.0,0.0,0.0,0.0,0.0,0.0,0.0,0.0,0.0,0.0,0.0,0.0,0.0,0.0,0.0,0.0,0.0,0.0,0.0,0.0,0.0,0.0,0.0,0.0,0.0,0.0,0.0,0.0,0.0,0.0,0.0,0.0,0.0,0.0,0.0,0.0,0.0,0.0,0.0,0.0,0.0,0.0,0.0,0.0,0.0,0.0,0.0,0.0,0.0,0.0,0.0,0.0,0.0,0.0,0.0,0.0,0.0,0.0,0.0,0.0,0.0,0.0,0.0,0.0,0.0,0.0,0.0,0.0,0.0,0.0,0.0,0.0,0.0,0.0,0.0,0.0,0.0,0.0,0.0,0.0,0.0,0.0,0.0,0.0,0.0,0.0,0.0,0.0,0.0,0.0,0.0,0.0,0.0,0.0,0.0,0.0,0.0,0.0,0.0,0.0,0.0,0.0,0.0,0.0,0.0,0.0,0.0,0.0,0.0,0.0,0.0,0.0,0.0,0.0,0.0,0.0,0.0,0.0,0.0,0.0,0.0,0.0,0.0,0.0,0.0,0.0,0.0,0.0,0.0,0.0,0.0,0.0,0.0,0.0,0.0,0.0,0.0,0.0,0.0,0.0,0.0,0.0,0.0,0.0,0.0,0.0,0.0,0.0,0.0,0.0,0.0,0.0,0.0,0.0,0.0,0.0,0.0,0.0,0.0,0.0,0.0,0.0,0.0,0.0,0.0,0.0,0.0,0.0,0.0,0.0,0.0,0.0,0.0,0.0,0.0,0.0,0.0,0.0,0.0,0.0,0.0,0.0,0.0,0.0,0.0,0.0,0.0,0.0,0.0,0.0,0.0,0.0,0.0,0.0,0.0,0.0,0.0,0.0,0.0,0.0,0.0,0.0,0.0,0.0,0.0,0.0,0.0,0.0,0.0,0.0,0.0,0.0,0.0,0.0,0.0,0.0,0.0,0.0,0.0,0.0,0.0,0.0,0.0,0.0,0.0,0.0,0.0,0.0,0.0,0.0,0.0,0.0,0.0,0.0,0.0,0.0,0.0,0.0,0.0,0.0,0.0,0.0,0.0,0.0,0.0,0.0,0.0,0.0,0.0,0.0,0.0,0.0,0.0,0.0,0.0,0.0,0.0,0.0,0.0,0.0,0.0,0.0,0.0,0.0,0.0,0.0,0.0,0.0,0.0,0.0,0.0,0.0,0.0,0.0,0.0,0.0,0.0,0.0,0.0,0.0,0.0,0.0,0.0,0.0,0.0,0.0,0.0,0.0,0.0,0.0,0.0,0.0,0.0,0.0,0.0,0.0,0.0,0.0,0.0,0.0,0.0,0.0,0.0,0.0,0.0,0.0,0.0,0.0,0.0,0.0,0.0,0.0,0.0,0.0,0.0,0.0,0.0,0.0,0.0,0.0,0.0,0.0,0.0,0.0,0.0,0.0,0.0,0.0,0.0,0.0,0.0,0.0,0.0,0.0,0.0,0.0,0.0,0.0,0.0,0.0,0.0,0.0,0.0,0.0,0.0,0.0,0.0,0.0,0.0,0.0,0.0,0.0,0.0,0.0,0.0,0.0,0.0,0.0,0.0,0.0,0.0,0.0,0.0,0.0,0.0,0.0,0.0,0.0,0.0,0.0,0.0,0.0,0.0,0.0,0.0,0.0,0.0,0.0,0.0,0.0,0.0,0.0,0.0,0.0,0.0,0.0,0.0,0.0,0.0,0.0,0.0,0.0,0.0,0.0,0.0,0.0,0.0,0.0,0.0,0.0,0.0,0.0,0.0,0.0,0.0,0.0,0.0,0.0,0.0,0.0,0.0,0.0,0.0,0.0,0.0,0.0,0.0,0.0,0.0,0.0,0.0,0.0,0.0,0.0,0.0,0.0,0.0,0.0,0.0,0.0,0.0,0.0,0.0,0.0,0.0,0.0,0.0,0.0,0.0,0.0,0.0,0.0,0.0,0.0,0.0,0.0,0.0,0.0,0.0,0.0,0.0,0.0,0.0,0.0,0.0,0.0,0.0,0.0,0.0,0.0,0.0,0.0,0.0,0.0,0.0,0.0,0.0,0.0,0.0,0.0,0.0,0.0,0.0,0.0,0.0,0.0,0.0,0.0,0.0,0.0,0.0,0.0,0.0,0.0,0.0,0.0,0.0,0.0,0.0,0.0,0.0,0.0,0.0,0.0,0.0,0.0,0.0,0.0,0.0,0.0,0.0,0.0,0.0,0.0,0.0,0.0,0.0,0.0,0.0,0.0,0.0,0.0,0.0,0.0,0.0,0.0,0.0,0.0,0.0,0.0,0.0,0.0,0.0,0.0,0.0,0.0,0.0,0.0,0.0,0.0,0.0,0.0,0.0,0.0,0.0,0.0,0.0,0.0,0.0,0.0,0.0,0.0,0.0,0.0,0.0,0.0,0.0,0.0,0.0,0.0,0.0,0.0,0.0,0.0,0.0,0.0,0.0,0.0,0.0,0.0,0.0,0.0,0.0,0.0,0.0,0.0,0.0,0.0,0.0,0.0,0.0,0.0,0.0,0.0,0.0,0.0,0.0,0.0,0.0,0.0,0.0,0.0,0.0,0.0,0.0,0.0,0.0,0.0,0.0,0.0,0.0,0.0,0.0,0.0,0.0,0.0,0.0,0.0,0.0,0.0,0.0,0.0,0.0,0.0,0.0,0.0,0.0,0.0,0.0,0.0,0.0,0.0,0.0,0.0,0.0,0.0,0.0,0.0,0.0,0.0,0.0,0.0,0.0,0.0,0.0,0.0,0.0,0.0,0.0,0.0,0.0,0.0,0.0,0.0,0.0,0.0,0.0,0.0,0.0,0.0,0.0,0.0,0.0,0.0,0.0,0.0,0.0,0.0,0.0,0.0,0.0,0.0,0.0,0.0,0.0,0.0,0.0,0.0,0.0,0.0,0.0,0.0,0.0,0.0,0.0,0.0,0.0,0.0,0.0,0.0,0.0,0.0,0.0,0.0,0.0,0.0,0.0,0.0,0.0,0.0,0.0,0.0,0.0,0.0,0.0,0.0,0.0,0.0,0.0,0.0,0.0,0.0,0.0,0.0,0.0,0.0,0.0,0.0,0.0,0.0,0.0,0.0,0.0,0.0,0.0,0.0,0.0,0.0,0.0,0.0,0.0,0.0,0.0,0.0,0.0,0.0,0.0,0.0,0.0,0.0,0.0,0.0,0.0,0.0,0.0,0.0,0.0,0.0,0.0,0.0,0.0,0.0,0.0,0.0,0.0,0.0,0.0,0.0,0.0,0.0,0.0,0.0,0.0,0.0,0.0,0.0,0.0,0.0,0.0,0.0,0.0,0.0,0.0,0.0,0.0,0.0,0.0,0.0,0.0,0.0,0.0,0.0,0.0,0.0,0.0,0.0,0.0,0.0,0.0,0.0,0.0,0.6929,0.0,0.0,0.0,0.0,0.0,0.0,0.0,0.0,0.0,0.0,0.0,0.0,0.0,0.0,0.0,0.0,0.0,0.0,0.0,0.0,0.0,0.0,0.0,0.0,0.0,0.0,0.0,0.0,0.0,0.0,0.0,0.0,0.0,0.0,0.0,0.0,0.0,0.0,0.0,0.0,0.0,0.0,0.0,0.0,0.0,0.0,0.0,0.0,0.0,0.0,0.0,0.0,0.0,0.0,0.0,0.0,0.0,0.0,0.0,0.0,0.0,0.0,0.0,0.0,0.0,0.0,0.0,0.0,0.0,0.0,0.0,0.0,0.0,0.0,0.0,0.0,0.0,0.0,0.0,0.0,0.0,0.0,0.0,0.0,0.0,0.0,0.0,0.0,0.0,0.0,0.0,0.0,0.0,0.0,0.0,0.0,0.0,0.0,0.0,0.0,0.0,0.0,0.0,0.0,0.0,0.0,0.0,0.0,0.0,0.0,0.659,0.6815,0.7259,0.7314,0.6999,0.0,0.0,0.0,0.0,0.0,0.0,0.0,0.0,0.0,0.0,0.0,0.0,0.0,0.0,0.0,0.0,0.0,0.0,0.0,0.0,0.0,0.0,0.0,0.0,0.0,0.0,0.0,0.0,0.0,0.0,0.0,0.0,0.0,0.0,0.0,0.0,0.0,0.0,0.0,0.0,0.0,0.0,0.0,0.0,0.0,0.0,0.0,0.0,0.0,0.0,0.0,0.0,0.0,0.0,0.0,0.0,0.0,0.0,0.0,0.0,0.0,0.0,0.0,0.0,0.0,0.0,0.0,0.0,0.0,0.0,0.0,0.0,0.0,0.0,0.0,0.0,0.0,0.0,0.0,0.0,0.0,0.0,0.0,0.0,0.0,0.0,0.0,0.0,0.0,0.0,0.0,0.0,0.0,0.0,0.0,0.0,0.0,0.0,0.0,0.0,0.0,0.0,0.0,0.0,0.0,0.0,0.0,0.0,0.0,0.0,0.0,0.0,0.7348,0.7444,0.7213,0.0,0.0,0.0,0.0,0.0,0.0,0.0,0.0,0.0,0.0,0.0,0.0,0.0,0.0,0.0,0.0,0.0,0.0,0.0,0.0,0.0,0.0,0.0,0.0,0.0,0.0,0.0,0.0,0.0,0.0,0.0,0.0,0.0,0.0,0.0,0.0,0.0,0.0,0.0,0.0,0.0,0.0,0.0,0.0,0.0,0.0,0.0,0.0,0.0,0.0,0.0,0.0,0.0,0.0,0.0,0.0,0.0,0.0,0.0,0.0,0.0,0.0,0.0,0.0,0.0,0.0,0.0,0.0,0.0,0.0,0.0,0.0,0.0,0.0,0.0,0.0,0.0,0.0,0.0,0.0,0.0,0.0,0.0,0.0,0.0,0.0,0.0,0.0,0.0,0.0,0.0,0.0,0.0,0.0,0.0,0.0,0.0,0.0,0.0,0.0,0.0,0.0,0.0,0.0,0.0,0.0,0.0,0.0,0.0,0.0,0.6779,0.7511,0.7562,0.0,0.7815,0.0,0.0,0.0,0.0,0.0,0.0,0.0,0.0,0.0,0.0,0.0,0.0,0.0,0.0,0.0,0.0,0.0,0.0,0.0,0.0,0.0,0.0,0.0,0.0,0.0,0.0,0.0,0.0,0.0,0.0,0.0,0.0,0.0,0.0,0.0,0.0,0.0,0.0,0.0,0.0,0.0,0.0,0.0,0.0,0.0,0.0,0.0,0.0,0.0,0.0,0.0,0.0,0.0,0.0,0.0,0.0,0.0,0.0,0.0,0.0,0.0,0.0,0.0,0.0,0.0,0.0,0.0,0.0,0.0,0.0,0.0,0.0,0.0,0.0,0.0,0.0,0.0,0.0,0.0,0.0,0.0,0.0,0.0,0.0,0.0,0.0,0.0,0.0,0.0,0.0,0.0,0.0,0.0,0.0,0.0,0.0,0.0,0.0,0.0,0.0,0.0,0.0,0.0,0.0,0.0,0.0,0.0,0.0,0.0,0.0,0.0,0.7413,0.7502,0.7667,0.0,0.0,0.0,0.0,0.0,0.0,0.0,0.0,0.0,0.0,0.0,0.0,0.0,0.0,0.0,0.0,0.0,0.0,0.0,0.0,0.0,0.0,0.0,0.0,0.0,0.0,0.0,0.0,0.0,0.0,0.0,0.0,0.0,0.0,0.0,0.0,0.0,0.0,0.0,0.0,0.0,0.0,0.0,0.0,0.0,0.0,0.0,0.0,0.0,0.0,0.0,0.0,0.0,0.0,0.0,0.0,0.0,0.0,0.0,0.0,0.0,0.0,0.0,0.0,0.0,0.0,0.0,0.0,0.0,0.0,0.0,0.0,0.0,0.0,0.0,0.0,0.0,0.0,0.0,0.0,0.0,0.0,0.0,0.0,0.0,0.0,0.0,0.0,0.0,0.0,0.0,0.0,0.0,0.0,0.0,0.0,0.0,0.0,0.0,0.0,0.0,0.0,0.0,0.0,0.0,0.0,0.0,0.0,0.0,0.0,0.7346,0.0,0.7555,0.7647,0.7743,0.7834,0.0,0.0,0.0,0.0,0.0,0.0,0.0,0.0,0.0,0.0,0.0,0.0,0.0,0.0,0.0,0.0,0.0,0.0,0.0,0.0,0.0,0.0,0.0,0.0,0.0,0.0,0.0,0.0,0.0,0.0,0.0,0.0,0.0,0.0,0.0,0.0,0.0,0.0,0.0,0.0,0.0,0.0,0.0,0.0,0.0,0.0,0.0,0.0,0.0,0.0,0.0,0.0,0.0,0.0,0.0,0.0,0.0,0.0,0.0,0.0,0.0,0.0,0.0,0.0,0.0,0.0,0.0,0.0,0.0,0.0,0.0,0.0,0.0,0.0,0.0,0.0,0.0,0.0,0.0,0.0,0.0,0.0,0.0,0.0,0.0,0.0,0.0,0.0,0.0,0.0,0.0,0.0,0.0,0.0,0.0,0.0,0.0,0.0,0.0,0.0,0.0,0.0,0.0,0.0,0.0,0.0,0.0,0.0,0.0,0.7691,0.7511,0.8145,0.8151,0.8011,0.0,0.0,0.0,0.0,0.0,0.0,0.0,0.0,0.0,0.0,0.0,0.0,0.0,0.0,0.0,0.0,0.0,0.0,0.0,0.0,0.0,0.0,0.0,0.0,0.0,0.0,0.0,0.0,0.0,0.0,0.0,0.0,0.0,0.0,0.0,0.0,0.0,0.0,0.0,0.0,0.0,0.0,0.0,0.0,0.0,0.0,0.0,0.0,0.0,0.0,0.0,0.0,0.0,0.0,0.0,0.0,0.0,0.0,0.0,0.0,0.0,0.0,0.0,0.0,0.0,0.0,0.0,0.0,0.0,0.0,0.0,0.0,0.0,0.0,0.0,0.0,0.0,0.0,0.0,0.0,0.0,0.0,0.0,0.0,0.0,0.0,0.0,0.0,0.0,0.0,0.0,0.0,0.0,0.0,0.0,0.0,0.0,0.0,0.0,0.0,0.0,0.0,0.0,0.0,0.0,0.0,0.0,0.0,0.0,0.7182,0.7224,0.7781,0.8885,0.8047,0.7735,0.0,0.0,0.0,0.0,0.0,0.0,0.0,0.0,0.0,0.0,0.0,0.0,0.0,0.0,0.0,0.0,0.0,0.0,0.0,0.0,0.0,0.0,0.0,0.0,0.0,0.0,0.0,0.0,0.0,0.0,0.0,0.0,0.0,0.0,0.0,0.0,0.0,0.0,0.0,0.0,0.0,0.0,0.0,0.0,0.0,0.0,0.0,0.0,0.0,0.0,0.0,0.0,0.0,0.0,0.0,0.0,0.0,0.0,0.0,0.0,0.0,0.0,0.0,0.0,0.0,0.0,0.0,0.0,0.0,0.0,0.0,0.0,0.0,0.0,0.0,0.0,0.0,0.0,0.0,0.0,0.0,0.0,0.0,0.0,0.0,0.0,0.0,0.0,0.0,0.0,0.0,0.0,0.0,0.0,0.0,0.0,0.0,0.0,0.0,0.0,0.0,0.0,0.0,0.0,0.0,0.0,0.0,0.0,0.0,0.6886,0.0,0.8154,0.0,0.7941,0.7542,0.0,0.0,0.0,0.0,0.0,0.0,0.0,0.0,0.0,0.0,0.0,0.0,0.0,0.0,0.0,0.0,0.0,0.0,0.0,0.0,0.0,0.0,0.0,0.0,0.0,0.0,0.0,0.0,0.0,0.0,0.0,0.0,0.0,0.0,0.0,0.0,0.0,0.0,0.0,0.0,0.0,0.0,0.0,0.0,0.0,0.0,0.0,0.0,0.0,0.0,0.0,0.0,0.0,0.0,0.0,0.0,0.0,0.0,0.0,0.0,0.0,0.0,0.0,0.0,0.0,0.0,0.0,0.0,0.0,0.0,0.0,0.0,0.0,0.0,0.0,0.0,0.0,0.0,0.0,0.0,0.0,0.0,0.0,0.0,0.0,0.0,0.0,0.0,0.0,0.0,0.0,0.0,0.0,0.0,0.0,0.0,0.0,0.0,0.0,0.0,0.0,0.0,0.0,0.0,0.0,0.0,0.0,0.0,0.0,0.7847,0.8638,0.8674,0.7961,0.7895,0.7448,0.0,0.0,0.0,0.0,0.0,0.0,0.0,0.0,0.0,0.0,0.0,0.0,0.0,0.0,0.0,0.0,0.0,0.0,0.0,0.0,0.0,0.0,0.0,0.0,0.0,0.0,0.0,0.0,0.0,0.0,0.0,0.0,0.0,0.0,0.0,0.0,0.0,0.0,0.0,0.0,0.0,0.0,0.0,0.0,0.0,0.0,0.0,0.0,0.0,0.0,0.0,0.0,0.0,0.0,0.0,0.0,0.0,0.0,0.0,0.0,0.0,0.0,0.0,0.0,0.0,0.0,0.0,0.0,0.0,0.0,0.0,0.0,0.0,0.0,0.0,0.0,0.0,0.0,0.0,0.0,0.0,0.0,0.0,0.0,0.0,0.0,0.0,0.0,0.0,0.0,0.0,0.0,0.0,0.0,0.0,0.0,0.0,0.0,0.0,0.0,0.0,0.0,0.0,0.0,0.0,0.0,0.0,0.0,0.0,0.7424,0.8151,0.862,0.8698,0.7876,0.7533,0.0,0.0,0.0,0.0,0.0,0.0,0.0,0.0,0.0,0.0,0.0,0.0,0.0,0.0,0.0,0.0,0.0,0.0,0.0,0.0,0.0,0.0,0.0,0.0,0.0,0.0,0.0,0.0,0.0,0.0,0.0,0.0,0.0,0.0,0.0,0.0,0.0,0.0,0.0,0.0,0.0,0.0,0.0,0.0,0.0,0.0,0.0,0.0,0.0,0.0,0.0,0.0,0.0,0.0,0.0,0.0,0.0,0.0,0.0,0.0,0.0,0.0,0.0,0.0,0.0,0.0,0.0,0.0,0.0,0.0,0.0,0.0,0.0,0.0,0.0,0.0,0.0,0.0,0.0,0.0,0.0,0.0,0.0,0.0,0.0,0.0,0.0,0.0,0.0,0.0,0.0,0.0,0.0,0.0,0.0,0.0,0.0,0.0,0.0,0.0,0.0,0.0,0.0,0.0,0.0,0.0,0.0,0.0,0.0,0.8238,0.8746,0.9113,0.9251,0.8371,0.7937,0.8021,0.0,0.0,0.0,0.0,0.0,0.0,0.0,0.0,0.0,0.0,0.0,0.0,0.0,0.0,0.0,0.0,0.0,0.0,0.0,0.0,0.0,0.0,0.0,0.0,0.0,0.0,0.0,0.0,0.0,0.0,0.0,0.0,0.0,0.0,0.0,0.0,0.0,0.0,0.0,0.0,0.0,0.0,0.0,0.0,0.0,0.0,0.0,0.0,0.0,0.0,0.0,0.0,0.0,0.0,0.0,0.0,0.0,0.0,0.0,0.0,0.0,0.0,0.0,0.0,0.0,0.0,0.0,0.0,0.0,0.0,0.0,0.0,0.0,0.0,0.0,0.0,0.0,0.0,0.0,0.0,0.0,0.0,0.0,0.0,0.0,0.0,0.0,0.0,0.0,0.0,0.0,0.0,0.0,0.0,0.0,0.0,0.0,0.0,0.0,0.0,0.0,0.0,0.0,0.0,0.0,0.0,0.0,0.0,0.9997,1.0274,1.0172,0.9622,0.9293,0.8644,0.0,0.0,0.0,0.0,0.0,0.0,0.0,0.0,0.0,0.0,0.0,0.0,0.0,0.0,0.0,0.0,0.0,0.0,0.0,0.0,0.0,0.0,0.0,0.0,0.0,0.0,0.0,0.0,0.0,0.0,0.0,0.0,0.0,0.0,0.0,0.0,0.0,0.0,0.0,0.0,0.0,0.0,0.0,0.0,0.0,0.0,0.0,0.0,0.0,0.0,0.0,0.0,0.0,0.0,0.0,0.0,0.0,0.0,0.0,0.0,0.0,0.0,0.0,0.0,0.0,0.0,0.0,0.0,0.0,0.0,0.0,0.0,0.0,0.0,0.0,0.0,0.0,0.0,0.0,0.0,0.0,0.0,0.0,0.0,0.0,0.0,0.0,0.0,0.0,0.0,0.0,0.0,0.0,0.0,0.0,0.0,0.0,0.0,0.0,0.0,0.0,0.0,0.0,0.0,0.0,0.0,0.0,0.0,0.0,1.1062,1.1751,1.1745,1.0984,0.9961,0.9179,0.0,0.0,0.0,0.0,0.0,0.0,0.0,0.0,0.0,0.0,0.0,0.0,0.0,0.0,0.0,0.0,0.0,0.0,0.0,0.0,0.0,0.0,0.0,0.0,0.0,0.0,0.0,0.0,0.0,0.0,0.0,0.0,0.0,0.0,0.0,0.0,0.0,0.0,0.0,0.0,0.0,0.0,0.0,0.0,0.0,0.0,0.0,0.0,0.0,0.0,0.0,0.0,0.0,0.0,0.0,0.0,0.0,0.0,0.0,0.0,0.0,0.0,0.0,0.0,0.0,0.0,0.0,0.0,0.0,0.0,0.0,0.0,0.0,0.0,0.0,0.0,0.0,0.0,0.0,0.0,0.0,0.0,0.0,0.0,0.0,0.0,0.0,0.0,0.0,0.0,0.0,0.0,0.0,0.0,0.0,0.0,0.0,0.0,0.0,0.0,0.0,0.0,0.0,0.0,0.0,0.0,0.0,0.0,1.0601,1.1569,1.2769,1.3049,1.2337,1.1146,1.0118,0.0,0.0,0.0,0.0,0.0,0.0,0.0,0.0,0.0,0.0,0.0,0.0,0.0,0.0,0.0,0.0,0.0,0.0,0.0,0.0,0.0,0.0,0.0,0.0,0.0,0.0,0.0,0.0,0.0,0.0,0.0,0.0,0.0,0.0,0.0,0.0,0.0,0.0,0.0,0.0,0.0,0.0,0.0,0.0,0.0,0.0,0.0,0.0,0.0,0.0,0.0,0.0,0.0,0.0,0.0,0.0,0.0,0.0,0.0,0.0,0.0,0.0,0.0,0.0,0.0,0.0,0.0,0.0,0.0,0.0,0.0,0.0,0.0,0.0,0.0,0.0,0.0,0.0,0.0,0.0,0.0,0.0,0.0,0.0,0.0,0.0,0.0,0.0,0.0,0.0,0.0,0.0,0.0,0.0,0.0,0.0,0.0,0.0,0.0,0.0,0.0,0.0,0.0,0.0,0.0,0.0,0.0,0.0,1.1164,1.1727,1.3377,1.3968,1.3453,1.2451,1.1164,0.0,0.0,0.0,0.0,0.0,0.0,0.0,0.0,0.0,0.0,0.0,0.0,0.0,0.0,0.0,0.0,0.0,0.0,0.0,0.0,0.0,0.0,0.0,0.0,0.0,0.0,0.0,0.0,0.0,0.0,0.0,0.0,0.0,0.0,0.0,0.0,0.0,0.0,0.0,0.0,0.0,0.0,0.0,0.0,0.0,0.0,0.0,0.0,0.0,0.0,0.0,0.0,0.0,0.0,0.0,0.0,0.0,0.0,0.0,0.0,0.0,0.0,0.0,0.0,0.0,0.0,0.0,0.0,0.0,0.0,0.0,0.0,0.0,0.0,0.0,0.0,0.0,0.0,0.0,0.0,0.0,0.0,0.0,0.0,0.0,0.0,0.0,0.0,0.0,0.0,0.0,0.0,0.0,0.0,0.0,0.0,0.0,0.0,0.0,0.0,0.0,0.0,0.0,0.0,0.0,0.0,0.0,0.0,1.0836,1.189,1.305,1.3528,1.3164,1.2373,1.1371,0.0,0.0,0.0,0.0,0.0,0.0,0.0,0.0,0.0,0.0,0.0,0.0,0.0,0.0,0.0,0.0,0.0,0.0,0.0,0.0,0.0,0.0,0.0,0.0,0.0,0.0,0.0,0.0,0.0,0.0,0.0,0.0,0.0,0.0,0.0,0.0,0.0,0.0,0.0,0.0,0.0,0.0,0.0,0.0,0.0,0.0,0.0,0.0,1.2514,0.0,0.0,0.0,0.0,0.0,0.0,0.0,0.0,0.0,0.0,0.0,0.0,0.0,0.0,0.0,0.0,0.0,0.0,0.0,0.0,0.0,0.0,0.0,0.0,0.0,0.0,0.0,0.0,0.0,0.0,0.0,0.0,0.0,0.0,0.0,0.0,0.0,0.0,0.0,0.0,0.0,0.0,0.0,0.0,0.0,0.0,0.0,0.0,0.0,0.0,0.0,0.0,0.0,0.0,0.0,0.0,0.0,0.0,0.0,1.0734,1.1701,1.285,1.3423,1.3252,1.2742,1.1826,0.0,0.0,0.0,0.0,0.0,0.0,0.0,0.0,0.0,0.0,0.0,0.0,0.0,0.0,0.0,0.0,0.0,0.0,0.0,0.0,0.0,0.0,0.0,0.0,0.0,0.0,0.0,0.0,0.0,0.0,0.0,0.0,0.0,0.0,0.0,0.0,0.0,0.0,0.0,0.0,0.0,0.0,0.0,0.0,0.0,0.0,0.0,0.0,0.0,0.0,0.0,0.0,0.0,0.0,0.0,0.0,0.0,0.0,0.0,0.0,0.0,0.0,0.0,0.0,0.0,0.0,0.0,0.0,0.0,0.0,0.0,0.0,0.0,0.0,0.0,0.0,0.0,0.0,0.0,0.0,0.0,0.0,0.0,0.0,0.0,0.0,0.0,0.0,0.0,0.0,0.0,0.0,0.0,0.0,0.0,0.0,0.0,0.0,0.0,0.0,0.0,0.0,0.0,0.0,0.0,0.0,0.0,0.9607,1.0641,1.1482,1.2745,1.3394,1.348,1.3225,1.2349,1.0846,0.0,0.0,0.0,0.0,0.0,0.0,0.0,0.0,0.0,0.0,0.0,0.0,0.0,0.0,0.0,0.0,0.0,0.0,0.0,0.0,0.0,0.0,0.0,0.0,0.0,0.0,0.0,0.0,0.0,0.0,0.0,0.0,0.0,0.0,0.0,0.0,0.0,0.0,0.9798,1.1333,0.0,0.0,0.0,0.0,0.0,0.0,0.0,0.0,1.3126,0.0,0.0,0.0,0.0,0.0,0.0,0.0,0.0,0.0,0.0,0.0,0.0,0.0,0.0,0.0,0.0,0.0,0.0,0.0,0.0,0.0,0.0,0.0,0.0,0.0,0.0,0.0,0.0,0.0,0.0,0.0,0.0,0.0,0.0,0.0,0.0,0.0,0.0,0.0,0.0,0.0,0.0,0.0,0.0,0.0,0.0,0.0,0.0,0.0,0.0,0.0,0.0,0.0,0.0,0.0,0.0,0.9319,0.9425,1.0284,1.1882,1.2576,1.3104,1.3468,1.3271,1.2469,1.1105,0.0,0.0,0.0,0.0,0.0,0.0,0.0,0.0,0.0,0.0,0.0,0.0,0.0,0.0,0.0,0.0,0.0,0.0,0.0,0.0,0.0,0.0,0.0,0.0,0.0,0.0,0.0,0.0,0.0,0.0,0.0,0.0,0.0,0.0,0.0,0.0,0.0,0.0,0.0,1.2301,1.3211,0.0,0.0,0.0,0.0,0.0,0.0,0.0,0.0,1.3013,0.0,0.0,0.0,0.0,0.0,0.0,0.0,0.0,0.0,0.0,0.0,0.0,0.0,0.0,0.0,0.0,0.0,0.0,0.0,0.0,0.0,0.0,0.0,0.0,0.0,0.0,0.0,0.0,0.0,0.0,0.0,0.0,0.0,0.0,0.0,0.0,0.0,0.0,0.0,0.0,0.0,0.0,0.0,0.0,0.0,0.0,0.0,0.0,0.0,0.0,0.0,0.0,0.0,0.0,0.0,0.91,0.9691,1.0503,1.1551,1.2127,1.2613,1.3082,1.2596,1.1905,0.0,0.0,0.0,0.0,0.0,0.0,0.0,0.0,0.0,0.0,0.0,0.0,0.0,0.0,0.0,0.0,0.0,0.0,0.0,0.0,0.0,0.0,0.0,0.0,0.0,0.0,0.0,0.0,0.0,0.0,0.0,0.0,0.0,0.0,0.0,0.0,0.0,0.0,0.0,0.0,1.2625,1.353,1.4313,0.0,0.0,0.0,0.0,0.0,0.0,1.4027,1.3497,0.0,0.0,0.0,0.0,0.0,0.0,0.0,0.0,0.0,0.0,0.0,0.0,0.0,0.0,0.0,0.0,0.0,0.0,0.0,0.0,0.0,0.0,0.0,0.0,0.0,0.0,0.0,0.0,0.0,0.0,0.0,0.0,0.0,0.0,0.0,0.0,0.0,0.0,0.0,0.0,0.0,0.0,0.0,0.0,0.0,0.0,0.0,0.0,0.0,0.0,0.0,0.0,0.0,0.0,0.0,0.8708,0.9856,1.0786,1.1361,1.178,1.2273,1.2743,1.2004,1.1376,0.0,0.0,0.0,0.0,0.0,0.0,0.0,0.0,0.0,0.0,0.0,0.0,0.0,0.0,0.0,0.0,0.0,0.0,0.0,0.0,0.0,0.0,0.0,0.0,0.0,0.0,0.0,0.0,0.0,0.0,0.0,0.0,0.0,0.0,0.0,0.0,0.0,0.0,0.0,0.0,0.0,1.3687,1.4454,1.3584,0.0,0.0,0.0,0.0,1.4546,1.4324,0.0,0.0,0.0,0.0,0.0,0.0,0.0,0.0,0.0,0.0,0.0,0.0,0.0,0.0,0.0,0.0,0.0,0.0,0.0,0.0,0.0,0.0,0.0,0.0,0.0,0.0,0.0,0.0,0.0,0.0,0.0,0.0,0.0,0.0,0.0,0.0,0.0,0.0,0.0,0.0,0.0,0.0,0.0,0.0,0.0,0.0,0.0,0.0,0.0,0.0,0.0,0.0,0.0,0.0,0.0,0.0,0.8685,0.9615,1.0677,1.1833,1.198,1.2224,1.2754,1.217,1.1447,0.0,0.0,0.0,0.0,0.0,0.0,0.0,0.0,0.0,0.0,0.0,0.0,0.0,0.0,0.0,0.0,0.0,0.0,0.0,0.0,0.0,0.0,0.0,0.0,0.0,0.0,0.0,0.0,0.0,0.0,0.0,0.0,0.0,0.0,0.0,0.0,0.0,0.0,0.0,0.0,0.0,1.358,1.3213,1.316,1.3212,0.0,0.0,1.4424,1.5171,1.506,0.0,0.0,0.0,0.0,0.0,0.0,0.0,0.0,0.0,0.0,0.0,0.0,0.0,0.0,0.0,0.0,0.0,0.0,0.0,0.0,0.0,0.0,0.0,0.0,0.0,0.0,0.0,0.0,0.0,0.0,0.0,0.0,0.0,0.0,0.0,0.0,0.0,0.0,0.0,0.0,0.0,0.0,0.0,0.0,0.0,0.0,0.0,0.0,0.0,0.0,0.0,0.0,0.0,0.0,0.0,0.8016,0.8722,0.9993,1.0972,1.1521,1.1536,1.1785,1.2316,1.1189,1.0338,0.0,0.0,0.0,0.0,0.0,0.0,0.0,0.0,0.0,0.0,0.0,0.0,0.0,0.0,0.0,0.0,0.0,0.0,0.0,0.0,0.0,0.0,0.0,0.0,0.0,0.0,0.0,0.0,0.0,0.0,0.0,0.0,0.0,0.0,0.0,0.0,0.0,0.0,0.0,0.0,0.0,0.0,1.3558,1.3414,0.0,0.0,0.0,1.4392,1.467,0.0,0.0,0.0,0.0,0.0,0.0,0.0,0.0,0.0,0.0,0.0,0.0,0.0,0.0,0.0,0.0,0.0,0.0,0.0,0.0,0.0,0.0,0.0,0.0,0.0,0.0,0.0,0.0,0.0,0.0,0.0,0.0,0.0,0.0,0.0,0.0,0.0,0.0,0.0,0.0,0.0,0.0,0.0,0.0,0.0,0.0,0.0,0.0,0.0,0.0,0.0,0.0,0.0,0.0,0.0,0.0,0.0,0.8722,1.0348,1.1194,1.1194,1.1194,1.1365,1.1681,1.0433,0.0,0.0,0.0,0.0,0.0,0.0,0.0,0.0,0.0,0.0,0.0,0.0,0.0,0.0,0.0,0.0,0.0,0.0,0.0,0.0,0.0,0.0,0.0,0.0,0.0,0.0,0.0,0.0,0.0,0.0,0.0,0.0,0.0,0.0,0.0,0.0,0.0,0.0,0.0,0.0,0.0,0.0,1.3126,1.3701,1.3572,1.3574,0.0,0.0,1.4098,1.4209,1.4922,1.4901,0.0,0.0,0.0,0.0,0.0,0.0,0.0,0.0,0.0,0.0,0.0,0.0,0.0,0.0,0.0,0.0,0.0,0.0,0.0,0.0,0.0,0.0,0.0,0.0,0.0,0.0,0.0,0.0,0.0,0.0,0.0,0.0,0.0,0.0,0.0,0.0,0.0,0.0,0.0,0.0,0.0,0.0,0.0,0.0,0.0,0.0,0.0,0.0,0.0,0.0,0.0,0.0,0.0,0.0,0.0,0.8741,1.0348,1.1194,1.1194,1.1194,1.1104,1.0963,1.0706,1.0003,0.0,0.0,0.0,0.0,0.0,0.0,0.0,0.0,0.0,0.0,0.0,0.0,0.0,0.0,0.0,0.0,0.0,0.0,0.0,0.0,0.0,0.0,0.0,0.0,0.0,0.0,0.0,0.0,0.0,0.0,0.0,0.0,0.0,0.0,0.0,0.0,0.0,0.0,0.0,0.0,0.0,1.2734,1.2959,1.3194,1.367,0.0,0.0,1.3621,1.4148,1.4943,1.4606,1.2048,0.0,0.0,0.0,0.0,0.0,0.0,0.0,0.0,0.0,0.0,0.0,0.0,0.0,0.0,0.0,0.0,0.0,0.0,0.0,0.0,0.0,0.0,0.0,0.0,0.0,0.0,0.0,0.0,0.0,0.0,0.0,0.0,0.0,0.0,0.0,0.0,0.0,0.0,0.0,0.0,0.0,0.0,0.0,0.0,0.0,0.0,0.0,0.0,0.0,0.0,0.0,0.0,0.0,0.822,0.8718,1.0348,1.1194,1.1194,1.1194,1.1161,1.108,1.0534,0.9717,0.0,0.0,0.0,0.0,0.0,0.0,0.0,0.0,0.0,0.0,0.0,0.0,0.0,0.0,0.0,0.0,0.0,0.0,0.0,0.0,0.0,0.0,0.0,0.0,0.0,0.0,0.0,0.0,0.7088,0.725,0.7036,0.0,0.0,0.0,0.0,0.0,0.0,0.0,0.0,0.0,0.0,1.2874,1.3787,1.392,0.0,0.0,1.4192,1.3945,1.4148,1.4206,1.3596,1.1896,1.188,0.0,0.0,0.0,0.0,0.0,0.0,0.0,0.0,0.0,0.0,0.0,0.0,0.0,0.0,0.0,0.0,0.0,0.0,0.0,0.0,0.0,0.0,0.0,0.0,0.0,0.0,0.0,0.0,0.0,0.0,0.0,0.0,0.0,0.0,0.0,0.0,0.0,0.0,0.0,0.0,0.0,0.0,0.0,0.0,0.0,0.0,0.0,0.0,0.0,0.0,0.0,0.0,0.8107,0.8716,1.029,1.1096,1.1194,1.1194,1.117,1.1094,1.0464,0.9629,0.0,0.0,0.0,0.0,0.0,0.0,0.0,0.0,0.0,0.0,0.0,0.0,0.0,0.0,0.0,0.0,0.0,0.0,0.0,0.0,0.0,0.0,0.0,0.0,0.0,0.0,0.0,0.0,0.7231,0.7188,0.6907,0.0,0.0,0.0,0.0,0.0,0.0,0.0,0.0,0.0,0.0,1.2974,1.4097,1.4097,1.4041,1.4235,1.3954,1.3754,1.3868,1.3598,1.3012,1.1866,0.0,0.0,0.0,0.0,0.0,0.0,0.0,0.0,0.0,0.0,0.0,0.0,0.0,0.0,0.0,0.0,0.0,0.0,0.0,0.0,0.0,0.0,0.0,0.0,0.0,0.0,0.0,0.0,0.0,0.0,0.5687,0.0,0.0,0.0,0.0,0.0,0.0,0.0,0.0,0.0,0.0,0.0,0.0,0.0,0.0,0.0,0.0,0.0,0.0,0.0,0.0,0.0,0.0,0.0,0.8779,1.0127,1.0953,1.1194,1.1194,1.1109,1.091,1.0494,0.9871,0.9011,0.0,0.0,0.0,0.0,0.0,0.0,0.0,0.0,0.0,0.0,0.0,0.0,0.0,0.0,0.0,0.0,0.0,0.0,0.0,0.0,0.0,0.0,0.0,0.0,0.0,0.0,0.6843,0.6596,0.6378,0.0,0.0,0.0,0.0,0.0,0.0,0.0,0.0,0.0,0.0,1.2029,1.2886,1.3447,1.3513,1.3519,1.3538,1.3085,1.2831,1.3109,1.3323,1.3076,0.0,0.0,0.0,0.0,0.0,0.0,0.0,0.0,0.0,0.0,0.0,0.0,0.0,0.0,0.0,0.0,0.0,0.0,0.0,0.0,0.0,0.0,0.0,0.0,0.0,0.0,0.0,0.5713,0.5657,0.0,0.0,0.0,0.0,0.0,0.0,0.0,0.0,0.0,0.0,0.0,0.7441,0.7516,0.0,0.0,0.0,0.0,0.0,0.0,0.0,0.0,0.0,0.0,0.0,0.0,0.7897,0.8537,0.9861,1.0659,1.0953,1.0949,1.097,1.1094,1.0693,0.9889,0.8647,0.0,0.0,0.0,0.0,0.0,0.0,0.0,0.0,0.0,0.0,0.0,0.0,0.0,0.0,0.0,0.0,0.0,0.0,0.0,0.0,0.0,0.0,0.0,0.0,0.0,0.6771,0.0,0.0,0.0,0.0,0.0,0.0,0.0,0.0,0.0,0.0,0.0,0.9722,1.0811,1.145,1.2072,1.2944,1.3059,1.3072,0.0,0.0,0.0,0.0,0.0,0.0,0.0,0.0,0.0,0.0,0.0,0.0,0.0,0.0,1.6818,1.4443,1.3846,1.3786,1.3977,0.0,0.0,0.0,0.0,0.0,0.0,0.0,0.0,0.0,0.0,0.0,0.0,0.0,0.0,0.663,0.0,0.6449,0.0,0.0,0.0,0.0,0.0,0.0,0.0,0.0,0.7634,0.802,0.8175,0.8239,0.8142,0.0,0.7661,0.7057,0.0,0.0,0.0,0.0,0.0,0.0,0.0,0.0,0.7863,0.8534,0.965,1.0364,1.0659,1.0659,1.0757,1.0895,1.0533,0.9836,0.876,0.7995,0.7305,0.0,0.0,0.0,0.0,0.0,0.0,0.0,0.0,0.0,0.0,0.0,0.0,0.0,0.0,0.0,0.0,0.0,0.0,0.0,0.0,0.0,0.0,0.0,0.6701,0.0,0.0,0.0,0.0,0.0,0.0,0.0,0.0,0.0,0.8252,0.9237,1.0229,1.1038,1.145,1.1886,1.2361,0.0,0.0,0.0,0.0,0.0,0.0,0.0,1.1458,1.175,1.1793,1.1922,1.2361,1.4522,1.6208,1.6209,0.0,0.0,1.6035,1.5403,1.5335,1.547,1.5732,1.585,1.5696,1.601,1.641,0.0,0.0,0.0,0.0,0.0,0.0,0.0,0.0,0.7264,0.7382,0.0,0.6997,0.0,0.0,0.0,0.0,0.0,0.7375,0.0,0.0,0.8882,0.9216,0.8877,0.8869,0.8771,0.8653,0.8637,0.8261,0.7496,0.669,0.0,0.0,0.0,0.0,0.0,0.0,0.7923,0.8696,0.955,1.0117,1.0364,1.0364,1.0404,1.0373,1.0087,0.9683,0.931,0.8703,0.8132,0.7513,0.6859,0.0,0.0,0.0,0.0,0.0,0.0,0.0,0.0,0.0,0.0,0.0,0.0,0.0,0.0,0.0,0.0,0.0,0.0,0.0,0.0,0.6966,0.0,0.0,0.0,0.0,0.0,0.0,0.0,0.0,0.0,0.0,0.8979,1.0076,1.1033,1.149,0.0,0.0,0.0,0.0,1.1836,1.1407,1.1096,1.0979,1.0995,1.1304,1.1581,1.1636,0.0,0.0,1.4058,1.5998,1.7239,1.6249,1.7925,1.9338,1.908,1.8059,1.7502,1.7804,1.7319,1.6956,1.7274,1.7605,1.7848,0.8617,0.0,0.0,0.0,0.0,0.798,0.8227,0.878,0.8613,0.8442,0.829,0.8143,0.0,0.0,0.0,0.0,0.0,0.0,0.8143,0.8714,0.9082,0.9384,0.9778,0.9778,0.962,0.9328,0.9324,0.9015,0.8446,0.8178,0.7358,0.6049,0.0,0.0,0.0,0.0,0.8171,0.8763,0.9399,0.9826,1.0117,1.0117,1.0087,0.9957,0.9884,0.9566,0.9019,0.8707,0.8274,0.7682,0.7197,0.0,0.0,0.0,0.0,0.0,0.0,0.0,0.0,0.0,0.0,0.0,0.0,0.0,0.0,0.0,0.0,0.0,0.0,0.0,0.6207,0.648,0.6574,0.0,0.0,0.0,0.0,0.0,0.0,0.0,0.0,0.0,0.9676,1.0005,1.0347,0.0,0.0,1.0751,1.0883,1.1246,1.1502,1.1497,0.0,0.0,0.0,1.1675,1.1693,1.2231,1.3154,1.3819,1.385,1.5894,1.7448,1.7115,1.8523,1.9758,1.9667,1.9414,1.9077,1.8993,1.8754,1.8665,1.8799,1.871,1.8734,0.9616,0.8844,0.8633,0.8718,0.8918,0.884,0.9104,0.9608,0.9453,0.9328,0.9241,0.9051,0.8706,0.8253,0.8045,0.0,0.0,0.0,0.8804,0.9409,0.9486,0.975,1.0196,1.0212,1.005,0.9839,0.9762,0.9527,0.909,0.8999,0.8349,0.724,0.0,0.0,0.7367,0.7996,0.8528,0.893,0.9388,0.9677,0.9821,0.9821,0.9793,0.9664,0.9647,0.9459,0.9095,0.8846,0.8508,0.8082,0.7592,0.7083,0.0,0.0,0.0,0.0,0.0,0.0,0.0,0.0,0.0,0.0,0.0,0.6044,0.0,0.0,0.0,0.0,0.6199,0.6431,0.6634,0.6875,0.0,0.0,0.0,0.0,0.0,0.0,0.0,0.8694,0.9318,0.9795,1.0089,1.0194,1.0322,1.0494,1.0409,1.046,1.068,0.0,1.129,1.1428,1.155,1.1678,1.1761,1.1707,1.1895,1.276,1.3279,1.3883,1.4612,1.6164,1.7449,1.8015,1.9067,2.0025,2.014,2.014,2.0032,1.9677,1.9614,1.9614,1.9614,1.928,1.9207,1.0355,1.0212,0.9718,0.9502,0.9506,0.962,0.9786,0.9945,0.9949,1.0086,1.0156,0.9835,0.9592,0.9437,0.8955,0.0,0.9185,0.9396,0.96,0.9933,1.0155,1.0245,1.0257,1.0257,1.0253,1.0233,1.001,0.9839,0.9657,0.9328,0.9076,0.8851,0.8564,0.8377,0.8353,0.867,0.8934,0.912,0.9441,0.9562,0.9624,0.9624,0.9506,0.9384,0.9372,0.9337,0.9235,0.8991,0.8758,0.855,0.803,0.748,0.6946,0.0,0.0,0.0,0.0,0.0,0.0,0.0,0.0,0.0,0.0,0.0,0.0,0.0,0.0,0.0,0.7141,0.0,0.7815,0.7844,0.0,0.0,0.0,0.7551,0.8196,0.8581,0.8973,0.936,0.0,0.0,1.0324,0.0,1.0679,1.0891,1.0896,1.0877,1.0896,1.1071,1.1222,1.1304,1.1288,1.1298,1.1423,1.1655,1.2139,1.2993,1.3261,1.3868,1.5198,1.6309,1.7331,1.815,1.9287,2.0012,2.0292,2.0305,2.037,1.9976,1.9932,1.9957,1.9941,1.9686,1.9487,1.0603,1.0554,1.0428,1.0302,1.018,1.0173,1.0343,1.0497,1.0497,1.0452,1.0363,1.0229,1.014,1.0012,0.989,0.9882,0.9963,1.0,1.0091,1.0249,1.0347,1.044,1.0562,1.0566,1.0497,1.0371,1.0327,1.0213,1.003,0.9807,0.9677,0.962,0.9417,0.9104,0.8718,0.8917,0.9116,0.9339,0.9424,0.9486,0.962,0.9624,0.9458,0.9155,0.9189,0.9021,0.8756,0.8698,0.852,0.8152,0.8003,0.7681,0.7171,0.653,0.0,0.0,0.0,0.0,0.0,0.0,0.0,0.0,0.0,0.6524,0.5473,0.0,0.6641,0.0,0.7416,0.7956,0.8038,0.8102,0.0,0.0,0.8453,0.859,0.9436,0.9786,0.9937,1.0036,1.0461,1.0702,1.0467,1.0698,1.0848,1.0847,1.0711,1.0707,1.0872,1.1212,1.1496,1.1657,1.1864,1.2029,1.1869,1.1992,1.2143,1.2556,1.2985,1.3423,1.3851,1.4953,1.5896,1.6268,1.7647,1.8708,1.8975,1.9554,2.0092,2.0069,2.0155,2.0265,2.0265,1.9987,1.9869,1.0814,1.081,1.0724,1.059,1.0387,1.0517,1.0603,1.0688,1.0692,1.0639,1.0554,1.055,1.0493,1.0453,1.0449,1.04,1.0396,1.0396,1.0452,1.0546,1.0546,1.0603,1.0692,1.0692,1.0643,1.055,1.0473,1.0383,1.0278,1.0095,1.0057,1.0006,0.9912,0.9636,0.9202,0.9283,0.938,0.9474,0.9478,0.9563,0.9726,0.9587,0.9336,0.8986,0.8901,0.8653,0.8265,0.8253,0.8114,0.7793,0.7688,0.7497,0.7111,0.6546,0.6121,0.0,0.0,0.0,0.0,0.0,0.0,0.0,0.0,0.0,0.0,0.0,0.6997,0.0,0.7831,0.835,0.8444,0.8622,0.885,0.9182,0.9078,0.9275,0.9958,1.0159,1.0213,1.0347,1.0557,1.0642,1.0453,1.069,1.0872,1.0792,1.0784,1.0925,1.1274,1.1515,1.1751,1.1996,1.2165,1.218,1.1973,1.2024,1.2118,1.2285,1.2601,1.3039,1.3635,1.4745,1.5796,1.6387,1.7713,1.8826,1.8982,1.9457,1.9931,2.0115,2.0197,2.0284,2.0253,2.0103,2.0029,1.0944,1.0932,1.0826,1.0664,1.0517,1.0668,1.0688,1.0623,1.0623,1.0639,1.066,1.068,1.0692,1.0692,1.0692,1.0692,1.0692,1.0692,1.0692,1.0692,1.0692,1.0692,1.0692,1.0692,1.0692,1.0684,1.0488,1.0415,1.0461,1.0286,1.0249,1.0245,1.0204,0.9969,0.9673,0.9636,0.9624,0.9628,0.9599,0.9726,0.9843,0.9575,0.922,0.8804,0.8621,0.8331,0.7829,0.78,0.7714,0.7492,0.7362,0.7212,0.7057,0.6597,0.6232,0.0,0.5644,0.0,0.0,0.0,0.0,0.0,0.0,0.0,0.0,0.7285,0.7484,0.7785,0.8346,0.874,0.894,0.9122,0.9348,0.9563,0.9557,0.9709,1.0075,1.0123,1.0233,1.0395,1.0413,1.0413,1.0355,1.0609,1.0757,1.0668,1.0821,1.1116,1.156,1.1667,1.1874,1.2264,1.2137,1.193,1.1879,1.1902,1.1996,1.2048,1.2219,1.2675,1.3623,1.4767,1.5907,1.6871,1.7921,1.8932,1.931,1.9361,1.9604,1.9833,1.9876,1.9935,2.0076,2.0061,2.0027,1.0773,1.077,1.102,1.1025,1.0871,1.0903,1.0722,1.0314,1.0314,1.0347,1.0493,1.0631,1.0692,1.0692,1.0692,1.0692,1.0692,1.0692,1.0692,1.0692,1.0692,1.0692,1.0692,1.0692,1.0692,1.0692,1.066,1.0647,1.0639,1.0465,1.0383,1.0371,1.0087,0.99,0.9835,0.0,0.0,0.0,0.9766,0.9782,0.9673,0.9466,0.9163,0.8633,0.8438,0.0,0.7824,0.78,0.7714,0.7539,0.7633,0.0,0.0,0.0,0.0,0.0,0.0,0.0,0.0,0.0,0.0,0.0,0.7434,0.7438,0.7233,0.7768,0.8176,0.833,0.8784,0.9146,0.9287,0.9516,0.9686,0.9927,0.9918,1.0038,1.0307,1.0307,1.0373,1.0404,1.0413,1.0314,1.0117,1.031,1.0408,1.022,1.0349,1.0698,1.1189,1.135,1.1582,1.186,1.1737,1.1699,1.1803,1.1718,1.1732,1.1831,1.1898,1.2049,1.2382,1.3446,1.4226,1.4698,1.6172,1.7582,1.7627,1.8102,1.8699,1.8978,1.9029,1.9264,1.9966,2.0076,2.0148,1.095,0.0,1.1199,1.1126,0.0,1.0968,1.082,1.0424,1.0424,1.0473,1.057,1.0655,1.0692,1.0688,1.0603,1.0566,1.0562,1.0473,1.0477,1.0562,1.0566,1.0611,1.0692,1.0692,1.0692,1.0692,1.0692,1.0692,1.0688,1.0603,1.0521,1.0432,1.0249,1.0067,0.9884,0.9799,0.9754,0.9754,0.9843,0.9888,0.988,0.9628,0.9275,0.8844,0.0,0.0,0.0,0.0,0.0,0.0,0.0,0.0,0.0,0.0,0.0,0.7241,0.7167,0.7155,0.7334,0.7551,0.7804,0.8117,0.8394,0.8404,0.7923,0.8381,0.8767,0.8939,0.9167,0.9345,0.9479,0.9578,0.9681,0.9839,0.9821,0.9871,0.9969,1.0019,1.0019,1.0019,0.9969,0.9974,0.9826,1.0019,1.0167,1.0027,1.0203,1.0458,1.0725,1.0932,1.1155,1.1415,1.1494,1.1465,1.151,1.1543,1.1543,1.1652,1.1751,1.1808,1.1817,1.3287,1.4453,1.4602,1.6247,1.7686,1.7722,1.8053,1.8357,1.8503,1.8547,1.8692,1.9179,1.9594,1.9931,1.1185,1.1473,1.1328,1.122,1.1062,1.1062,1.0956,1.0781,0.0,0.0,0.0,1.0769,1.0781,1.0773,1.0607,1.053,1.0463,1.0339,1.0339,1.0477,1.0427,1.0558,1.0688,1.0692,1.0692,1.0692,1.0692,1.0692,1.0692,1.0692,1.0623,1.0435,1.0452,1.027,0.9953,0.99,0.9888,0.9888,0.9888,0.9957,1.0147,0.9795,0.9458,0.9108,0.8755,0.8371,0.7865,0.7816,0.7622,0.7304,0.7346,0.7345,0.7411,0.7415,0.7561,0.7914,0.7971,0.8118,0.8365,0.8442,0.8629,0.8982,0.9307,0.9322,0.8792,0.9031,0.9295,0.9482,0.9526,0.9608,0.9705,0.9721,0.9721,0.9721,0.9721,0.9726,0.9726,0.9721,0.9742,0.9721,0.9738,0.9721,0.9738,0.9938,1.0,1.0004,1.0138,1.0285,1.0328,1.0534,1.0755,1.0956,1.1139,1.1288,1.1175,1.1286,1.1458,1.1458,1.159,1.175,1.2215,1.3656,1.4954,1.5306,1.6961,1.7965,1.8162,1.8089,1.816,1.8203,1.8218,1.824,1.8335,1.8918,1.9427,1.1057,1.1358,1.1583,1.1593,1.1427,1.1423,1.1317,1.1139,1.0997,1.0988,1.0996,1.1086,1.1151,1.1139,1.0972,1.0895,1.0883,1.0704,1.0631,0.0,1.0655,1.0668,1.0692,1.0692,1.0692,1.0692,1.0692,1.0692,1.0692,1.0692,1.068,1.0639,1.0455,1.0331,1.018,0.9965,0.9888,0.9888,0.9888,0.9896,0.992,0.973,0.9458,0.9108,0.8763,0.8385,0.7992,0.7894,0.778,0.7731,0.7825,0.7975,0.813,0.8142,0.8235,0.8482,0.8593,0.8694,0.8751,0.9031,0.9404,0.9701,0.9984,0.9869,0.9363,0.9616,0.9786,0.9815,0.9988,1.0106,1.0083,1.0079,1.0075,1.0079,1.0139,1.0087,1.0075,1.0118,1.011,1.0059,1.0139,1.0071,1.0106,1.0114,1.01,1.0014,1.0092,1.0158,1.0083,1.0237,1.0412,1.0502,1.0699,1.0883,1.0936,1.1065,1.1215,1.1236,1.1283,1.1573,1.226,1.3715,1.5017,1.5908,1.6995,1.7785,1.7874,1.76,1.7655,1.7823,1.7882,1.7962,1.8174,1.8421,1.869,1.1095,1.1587,1.1712,1.1732,1.165,1.165,1.1602,1.1516,1.1443,1.1289,1.1118,1.1187,1.122,1.1208,1.1045,1.0967,1.081,1.0635,1.0554,1.0554,1.0554,1.0603,1.0684,1.0692,1.0692,1.0692,1.0692,1.0692,1.0692,1.0692,1.0692,1.068,1.0467,1.0391,1.0302,1.0128,0.9985,0.9888,0.9888,0.9888,0.988,0.9807,0.9689,0.9527,0.9271,0.9064,0.8851,0.8816,0.8731,0.8677,0.8743,0.8783,0.8906,0.8914,0.9041,0.9263,0.9352,0.9441,0.9543,0.9751,0.991,1.0022,1.0163,1.0114,0.9865,0.9992,1.009,1.009,1.0171,1.0212,1.0216,1.0249,1.031,1.0306,1.031,1.031,1.0294,1.0213,1.0212,1.0212,1.0212,1.0212,1.0212,1.0212,1.0192,1.0054,1.0171,1.0123,1.0046,1.0087,1.0133,1.0192,1.0413,1.0713,1.0888,1.0969,1.1107,1.129,1.1269,1.1399,1.1965,1.3279,1.454,1.5223,1.6436,1.7403,1.7505,1.7443,1.7374,1.7432,1.7545,1.7633,1.775,1.7904,1.8201,1.1035,1.1591,1.1587,1.1591,1.1591,1.1651,1.1647,1.1712,1.1768,1.1614,1.137,1.1346,1.1346,1.133,1.1163,1.0988,1.0806,1.0635,1.0534,1.0493,1.0439,1.0566,1.068,1.0692,1.0692,1.0692,1.0692,1.0692,1.0692,1.0692,1.0692,1.0676,1.0558,1.0493,1.0485,1.0314,1.0152,1.0014,0.9969,0.9929,0.9888,0.9888,0.9884,0.9876,0.9754,0.9669,0.9628,0.9624,0.9559,0.9477,0.9417,0.9482,0.9518,0.9522,0.9665,0.9955,0.9949,1.0006,1.02,1.0253,1.0225,1.0225,1.0257,1.0335,1.0278,1.0335,1.0314,1.029,1.0363,1.0416,1.0445,1.0521,1.056,1.056,1.056,1.0577,1.0544,1.0456,1.0396,1.0396,1.0363,1.0343,1.0335,1.0335,1.0343,1.0351,1.0249,1.0225,1.0209,1.0095,1.0051,1.0096,1.0211,1.0536,1.0928,1.0988,1.113,1.1521,1.1463,1.1513,1.19,1.3062,1.3985,1.4466,1.5764,1.6737,1.6958,1.7192,1.7293,1.7315,1.7323,1.7308,1.7344,1.7505,1.7808,1.0547,1.0849,1.0914,1.0914,1.097,1.1212,1.1333,1.1398,1.1647,1.1764,1.1707,1.1723,1.1711,1.1699,1.1524,1.1342,1.1155,1.0997,1.0826,1.0676,1.0668,1.0676,1.0692,1.0692,1.0692,1.0692,1.0692,1.0692,1.0692,1.0692,1.0692,1.0692,1.0676,1.0664,1.0643,1.0497,1.0346,1.0379,1.0221,1.0106,0.9896,0.9888,0.9888,0.9884,0.9868,0.9786,0.9657,0.9624,0.962,0.9604,0.9612,0.9681,0.9819,0.9839,0.9929,1.0171,1.0192,1.02,1.0228,1.0314,1.0354,1.0366,1.0542,1.0623,1.0627,1.0631,1.057,1.0497,1.0704,1.0902,1.0959,1.1033,1.1114,1.1102,1.1114,1.1151,1.1094,1.1001,1.0951,1.0947,1.0743,1.0639,1.0603,1.0599,1.0615,1.0586,1.0477,1.0408,1.0404,1.0359,1.0278,1.0223,1.0293,1.0463,1.0755,1.1113,1.1307,1.1667,1.1709,1.1841,1.2359,1.2775,1.3347,1.4038,1.5175,1.5988,1.6224,1.6608,1.7286,1.7293,1.7301,1.7308,1.7293,1.7381,1.7611,1.0486,1.0793,1.0793,1.0793,1.0849,1.1152,1.1269,1.1333,1.1647,1.1837,1.1837,1.1837,1.1837,1.1768,1.1695,1.1561,1.1378,1.12,1.1025,1.0854,1.0745,1.0692,1.0692,1.0692,1.0692,1.0692,1.0692,1.0692,1.0692,1.0692,1.0692,1.0692,1.0692,1.0692,1.0684,1.0623,1.0538,1.0432,1.0363,1.0237,1.0063,0.9941,0.9888,0.9888,0.9888,0.9912,0.9941,0.9945,0.9989,1.0039,1.0051,1.0132,1.0351,1.0363,1.0396,1.0469,1.0477,1.0473,1.0477,1.0546,1.0586,1.0586,1.0651,1.0692,1.0692,1.0692,1.07,1.0769,1.0887,1.1005,1.1114,1.1281,1.1386,1.1386,1.1386,1.1346,1.1228,1.1078,1.0936,1.0826,1.0741,1.0692,1.0692,1.0692,1.0692,1.0688,1.0623,1.0582,1.0578,1.0447,1.0354,1.0339,1.0363,1.0487,1.0732,1.0837,1.1102,1.1356,1.1272,1.1397,1.1936,1.2422,1.2823,1.3417,1.4762,1.5635,1.5846,1.656,1.7286,1.7337,1.749,1.7571,1.7563,1.7765,1.7889,1.0304,1.0486,1.0547,1.0547,1.0547,1.091,1.1091,1.1212,1.1526,1.1712,1.1837,1.1837,1.1837,1.1837,1.1837,1.1675,1.1496,1.1358,1.1175,1.0976,1.083,1.0741,1.0696,1.0692,1.0692,1.0692,1.0692,1.0692,1.0692,1.0692,1.0692,1.0692,1.0692,1.0692,1.0692,1.0692,1.0631,1.0521,1.0505,1.0416,1.0245,1.0107,1.001,0.9969,1.001,1.0103,1.0233,1.0335,1.0367,1.0497,1.0505,1.0558,1.068,1.0692,1.0692,1.0692,1.0692,1.0692,1.0692,1.0692,1.0692,1.0696,1.0733,1.0765,1.0777,1.081,1.0919,1.109,1.1114,1.1183,1.1289,1.1468,1.1569,1.1573,1.1577,1.15,1.1325,1.1143,1.0976,1.0802,1.0741,1.0692,1.0692,1.0692,1.0692,1.0688,1.0688,1.0692,1.068,1.0586,1.0455,1.0505,1.0501,1.0588,1.0823,1.0879,1.096,1.1146,1.1186,1.1197,1.1438,1.1899,1.2143,1.2809,1.4399,1.5377,1.5499,1.6245,1.753,1.7618,1.7779,1.7947,1.7947,1.816,1.816,0.9822,0.9822,0.9819,0.9879,0.9883,1.0243,1.0547,1.091,1.1212,1.1522,1.1772,1.1837,1.1837,1.1837,1.1837,1.1679,1.152,1.1484,1.1305,1.1017,1.1012,1.0858,1.0696,1.0692,1.0692,1.0692,1.0692,1.0692,1.0692,1.0692,1.0692,1.0692,1.0692,1.0692,1.0692,1.0692,1.0688,1.0664,1.0664,1.0595,1.0391,1.0358,1.0318,1.0249,1.0306,1.0326,1.0416,1.057,1.0655,1.0672,1.0655,1.0676,1.0692,1.0692,1.0692,1.0692,1.0692,1.0692,1.0692,1.0692,1.0692,1.0712,1.0826,1.1,1.0915,1.1041,1.12,1.1439,1.1419,1.1451,1.1496,1.163,1.1736,1.174,1.1812,1.1667,1.1496,1.1313,1.1143,1.0972,1.0814,1.072,1.0696,1.0692,1.0692,1.0692,1.0692,1.0692,1.0688,1.0676,1.066,1.0655,1.0706,1.0732,1.087,1.0882,1.115,1.1259,1.124,1.1464,1.1603,1.1712,1.1797,1.2282,1.383,1.4832,1.506,1.6029,1.7489,1.8035,1.816,1.8269,1.8277,1.8284,1.8313,0.9819,0.9819,0.9819,0.9819,0.9819,1.0183,1.0486,1.0846,1.1152,1.1458,1.1772,1.1837,1.1837,1.1837,1.1837,1.174,1.1671,1.1557,1.1427,1.1285,1.1074,1.0932,1.0867,1.0749,1.0692,1.0692,1.0692,1.0692,1.0692,1.0692,1.0692,1.0692,1.0692,1.0692,1.0692,1.0692,1.0692,1.0692,1.0692,1.066,1.0603,1.0599,1.0566,1.0497,1.0339,1.0262,1.0262,1.0322,1.0404,1.0526,1.053,1.0578,1.0676,1.0692,1.0692,1.0692,1.0692,1.0692,1.0692,1.0692,1.0692,1.0696,1.0749,1.0806,1.0822,1.0956,1.1131,1.1297,1.1443,1.1533,1.1658,1.1744,1.1837,1.1837,1.1833,1.1703,1.1545,1.1435,1.133,1.1155,1.0976,1.0834,1.0729,1.0692,1.0692,1.0692,1.0692,1.0692,1.0692,1.0692,1.0692,1.0692,1.0688,1.0726,1.0732,1.0803,1.0899,1.092,1.0937,1.1188,1.1352,1.1389,1.1447,1.2269,1.3634,1.4956,1.5532,1.6738,1.8043,1.8321,1.846,1.8606,1.8613,1.8672,1.8694,0.9819,0.9819,0.9819,0.9819,0.9822,1.0001,1.0429,1.0789,1.1031,1.1402,1.1716,1.1837,1.1837,1.1837,1.1837,1.1837,1.1764,1.1646,1.1557,1.148,1.1248,1.1078,1.096,1.0842,1.0749,1.07,1.0692,1.0692,1.0692,1.0692,1.0692,1.0692,1.0692,1.0692,1.0692,1.0692,1.0692,1.0692,1.0692,1.0692,1.0692,1.0692,1.0692,1.066,1.0456,1.0331,1.0335,1.0384,1.0383,1.0497,1.0517,1.057,1.068,1.0692,1.0692,1.0692,1.0692,1.0692,1.0692,1.0692,1.0692,1.0696,1.0753,1.0781,1.0798,1.1001,1.1179,1.1321,1.148,1.1654,1.18,1.1837,1.1837,1.1837,1.1837,1.1699,1.1533,1.15,1.1411,1.1236,1.1062,1.0915,1.0806,1.0733,1.07,1.0692,1.0692,1.0692,1.0692,1.0692,1.0692,1.0692,1.0692,1.0692,1.0722,1.0731,1.0747,1.0773,1.0761,1.0962,1.1242,1.1207,1.156,1.2394,1.3619,1.5071,1.6372,1.7595,1.8153,1.8526,1.876,1.8942,1.9001,1.9089,1.9038,0.9819,0.9819,0.9819,0.9819,0.9819,0.9819,1.0183,1.0728,1.0853,1.116,1.1712,1.1776,1.1837,1.1837,1.1837,1.1837,1.1768,1.1752,1.1667,1.1524,1.148,1.1293,1.1029,1.0988,1.0891,1.0753,1.0708,1.0704,1.072,1.0704,1.0692,1.0692,1.0692,1.0692,1.0692,1.0692,1.0692,1.0692,1.0692,1.0692,1.0692,1.0692,1.0692,1.0692,1.0664,1.0647,1.0664,1.0664,1.0655,1.0668,1.0676,1.0688,1.0688,1.0692,1.0692,1.0692,1.0692,1.0692,1.0692,1.0692,1.0692,1.0712,1.0906,1.0988,1.0996,1.1232,1.1443,1.1451,1.1622,1.1833,1.1828,1.1837,1.1837,1.1837,1.1837,1.1699,1.1573,1.1508,1.1431,1.1265,1.1102,1.1041,1.0928,1.0798,1.07,1.0692,1.0692,1.0692,1.0692,1.0692,1.0692,1.0692,1.0692,1.0692,1.0692,1.0692,1.0692,1.0743,1.0739,1.084,1.1214,1.1365,1.1881,1.2744,1.4626,1.6103,1.7545,1.8593,1.868,1.8979,1.9155,1.9199,1.9213,1.922,1.9242,0.9819,0.9819,0.9819,0.9819,0.9819,0.9819,1.0061,1.0486,1.0668,1.1031,1.1462,1.1712,1.1837,1.1837,1.1837,1.1841,1.1837,1.1772,1.174,1.1675,1.1561,1.1447,1.1325,1.12,1.111,1.1041,1.094,1.0883,1.0863,1.0757,1.0692,1.0692,1.0692,1.0692,1.0692,1.0692,1.0692,1.0692,1.0692,1.0692,1.0692,1.0692,1.0692,1.0692,1.0692,1.0692,1.0692,1.0692,1.0692,1.0692,1.0692,1.0692,1.0692,1.0692,1.0692,1.0692,1.0692,1.0692,1.0692,1.0692,1.0692,1.0724,1.0918,1.0943,1.0906,1.1228,1.1427,1.1378,1.1581,1.1837,1.1837,1.1837,1.1837,1.1837,1.1837,1.1756,1.1691,1.1679,1.1602,1.1435,1.1252,1.111,1.0976,1.0818,1.0716,1.0704,1.07,1.0692,1.0692,1.0692,1.0692,1.0692,1.0692,1.0692,1.0692,1.0692,1.0692,1.0692,1.0747,1.0802,1.1185,1.1568,1.211,1.3545,1.5435,1.7036,1.8462,1.9118,1.9162,1.9191,1.9228,1.925,1.9272,1.9272,1.9272,0.9852,0.9839,0.9842,0.989,0.9968,0.988,1.0073,1.0461,1.0786,1.1103,1.1525,1.1848,1.1971,1.1971,1.1975,1.1935,1.1874,1.187,1.1833,1.1772,1.1671,1.1573,1.1488,1.1309,1.122,1.1204,1.1114,1.1066,1.1053,1.0887,1.0794,1.0794,1.0729,1.0692,1.0692,1.0692,1.0692,1.0692,1.0692,1.0692,1.0692,1.0692,1.0692,1.0692,1.0692,1.0692,1.0692,1.0692,1.0692,1.0692,1.0692,1.0692,1.0692,1.0692,1.0692,1.0692,1.0692,1.0692,1.0692,1.0692,1.0692,1.072,1.0863,1.0923,1.0903,1.1244,1.1419,1.1399,1.1598,1.1837,1.1837,1.1837,1.1837,1.1837,1.1837,1.1837,1.1837,1.1837,1.1736,1.1593,1.1443,1.1293,1.1163,1.0996,1.081,1.0789,1.0733,1.0692,1.0692,1.0692,1.0692,1.0692,1.0692,1.0692,1.0692,1.0692,1.0692,1.0692,1.0692,1.0857,1.1131,1.1514,1.2001,1.4256,1.6231,1.7449,1.8828,1.9109,1.925,1.9272,1.9272,1.9272,1.9272,1.9272,1.9272,0.9862,0.9974,0.991,1.0015,1.0209,0.9985,1.0205,1.0717,1.0999,1.1257,1.1689,1.1937,1.2146,1.2221,1.2059,1.1983,1.2007,1.1921,1.1922,1.1878,1.1797,1.1707,1.1541,1.139,1.1325,1.1301,1.1261,1.1236,1.1232,1.1066,1.0984,1.0968,1.0842,1.0733,1.0765,1.0729,1.0729,1.0737,1.0708,1.0692,1.0692,1.0692,1.0692,1.0692,1.0692,1.0692,1.0692,1.0692,1.0692,1.0692,1.0692,1.0692,1.0692,1.0692,1.0692,1.0692,1.0692,1.0692,1.0692,1.0692,1.0708,1.0749,1.0899,1.1041,1.1037,1.1317,1.1524,1.1484,1.1658,1.1837,1.1837,1.1837,1.1837,1.1837,1.1837,1.1837,1.1837,1.1837,1.1816,1.1732,1.1618,1.148,1.1407,1.1131,1.0988,1.0915,1.0802,1.0716,1.0733,1.0737,1.07,1.0692,1.0692,1.0692,1.0692,1.0692,1.0692,1.0692,1.0747,1.0857,1.145,1.1937,1.3073,1.5215,1.6876,1.8055,1.8803,1.9116,1.9272,1.9272,1.9272,1.9272,1.9272,1.9272,1.9272,1.0017,1.0212,1.0178,1.0209,1.027,1.0185,1.0262,1.0464,1.0749,1.1006,1.1165,1.1355,1.1553,1.1482,1.1549,1.1578,1.1803,1.1854,1.2035,1.2154,1.2016,1.187,1.1732,1.1654,1.1618,1.1598,1.1484,1.1427,1.1411,1.1244,1.1159,1.1155,1.1094,1.107,1.107,1.0948,1.0955,1.0875,1.0753,1.0704,1.07,1.07,1.0692,1.0692,1.0692,1.0692,1.0692,1.0692,1.0692,1.0692,1.0692,1.0692,1.0692,1.0692,1.0696,1.0708,1.07,1.07,1.0704,1.0708,1.0757,1.0891,1.1057,1.1155,1.1171,1.1492,1.1606,1.1577,1.1667,1.1837,1.1837,1.1837,1.1837,1.1837,1.1837,1.1837,1.1837,1.1837,1.1837,1.1816,1.1614,1.148,1.1334,1.1163,1.1009,1.1028,1.0858,1.0749,1.081,1.0745,1.0692,1.0692,1.0692,1.0692,1.0692,1.0692,1.0692,1.0692,1.0747,1.0907,1.1878,1.3009,1.4733,1.6829,1.7779,1.8907,1.9063,1.9272,1.9272,1.9272,1.9272,1.9272,1.9272,1.9272,1.9272,1.0114,1.0351,1.0168,1.0236,1.0419,1.0266,1.029,1.0494,1.0777,1.0881,1.0945,1.1201,1.1389,1.1389,1.1389,1.1581,1.184,1.19,1.2052,1.2225,1.219,1.2008,1.1833,1.1837,1.1837,1.1768,1.1671,1.1622,1.1585,1.1431,1.1346,1.1317,1.1261,1.1224,1.12,1.1135,1.1078,1.1062,1.0964,1.0887,1.0814,1.081,1.0753,1.0716,1.0692,1.0692,1.0692,1.0692,1.0692,1.0692,1.0692,1.0692,1.0692,1.0692,1.0724,1.0794,1.081,1.0838,1.0903,1.0915,1.096,1.1082,1.1236,1.1321,1.1382,1.1614,1.1711,1.1663,1.1727,1.1764,1.1837,1.1837,1.1837,1.1837,1.1837,1.1837,1.1837,1.1837,1.1837,1.1748,1.1683,1.1585,1.1455,1.1293,1.1212,1.1208,1.0984,1.0932,1.0975,1.0849,1.0712,1.0737,1.0733,1.0733,1.0737,1.0741,1.0757,1.0753,1.0876,1.0969,1.2419,1.3862,1.5423,1.714,1.8422,1.9272,1.9272,1.9272,1.9272,1.9272,1.9272,1.9272,1.9272,1.9345,1.9338,1.0097,1.0456,1.0059,1.0212,1.0605,1.0307,1.0371,1.0705,1.0895,1.0969,1.1037,1.1358,1.1362,1.1492,1.1362,1.1621,1.1942,1.1942,1.2098,1.227,1.2308,1.2178,1.1918,1.1902,1.1894,1.1878,1.1825,1.1801,1.1756,1.1614,1.1537,1.1504,1.1374,1.1305,1.133,1.1281,1.1252,1.1244,1.1191,1.1102,1.1013,1.0984,1.0915,1.0777,1.0753,1.0777,1.0781,1.0777,1.0777,1.0761,1.0729,1.0753,1.0753,1.0761,1.083,1.1012,1.1001,1.1053,1.1171,1.1171,1.1216,1.1269,1.1399,1.1512,1.1549,1.1691,1.1824,1.1804,1.1833,1.1837,1.1837,1.1837,1.1837,1.1837,1.1837,1.1837,1.1837,1.1837,1.1837,1.1837,1.1776,1.1772,1.1711,1.1622,1.1484,1.1338,1.1175,1.1094,1.1062,1.0984,1.0899,1.0846,1.0826,1.0785,1.0789,1.0794,1.0818,1.0834,1.0978,1.1415,1.3028,1.4456,1.569,1.7081,1.8579,1.9227,1.9272,1.9272,1.9272,1.9272,1.9272,1.9272,1.9286,1.9418,1.9462,1.0195,1.0483,1.0385,1.049,1.0683,1.0619,1.0622,1.0711,1.0749,1.0785,1.0792,1.0861,1.0923,1.0923,1.0972,1.1263,1.1841,1.1899,1.2095,1.2523,1.2511,1.2398,1.2223,1.2194,1.2186,1.2146,1.2028,1.1979,1.1931,1.1813,1.1715,1.1703,1.1654,1.165,1.1622,1.1492,1.1439,1.1419,1.1313,1.1232,1.1187,1.1167,1.1086,1.0928,1.0907,1.098,1.1082,1.111,1.111,1.1078,1.0997,1.0976,1.1045,1.1078,1.1106,1.1147,1.1167,1.1187,1.122,1.1261,1.1289,1.1431,1.1488,1.1565,1.1707,1.174,1.1837,1.1837,1.1837,1.1837,1.1837,1.1837,1.1837,1.1837,1.1837,1.1837,1.1837,1.1837,1.1837,1.1837,1.1772,1.1727,1.1593,1.1577,1.1508,1.1476,1.1386,1.1269,1.1208,1.1159,1.1078,1.0992,1.0997,1.0976,1.0976,1.0972,1.0972,1.0972,1.1101,1.1945,1.3578,1.4861,1.606,1.7404,1.8855,1.9182,1.9256,1.9272,1.9272,1.9272,1.9279,1.9272,1.9316,1.9462,1.9647,1.0199,1.0575,1.0453,1.0521,1.069,1.0649,1.0653,1.0711,1.0721,1.0677,1.0622,1.0612,1.0612,1.0616,1.0681,1.1034,1.1769,1.2177,1.2393,1.2637,1.269,1.2641,1.2584,1.2532,1.2491,1.2333,1.2215,1.2162,1.2113,1.1996,1.1898,1.1882,1.1825,1.1756,1.1837,1.1675,1.1634,1.1618,1.1541,1.1447,1.137,1.135,1.1265,1.1126,1.109,1.1139,1.1204,1.1216,1.1265,1.1301,1.1265,1.1204,1.1212,1.1228,1.1261,1.1338,1.135,1.1407,1.1447,1.1488,1.1533,1.161,1.163,1.1683,1.1812,1.1837,1.1837,1.1837,1.1837,1.1837,1.1837,1.1837,1.1837,1.1837,1.1837,1.1837,1.1837,1.1837,1.1837,1.1837,1.1837,1.1736,1.1663,1.161,1.1618,1.1626,1.15,1.1386,1.1338,1.1285,1.1212,1.1155,1.1179,1.1183,1.1183,1.1175,1.1155,1.1147,1.1135,1.2436,1.4112,1.5265,1.6278,1.7769,1.9204,1.921,1.9262,1.9271,1.9308,1.9294,1.9294,1.9279,1.936,1.961,1.9713,1.0321,1.0666,1.0415,1.047,1.0677,1.0592,1.0612,1.0711,1.0721,1.0663,1.0551,1.0527,1.0571,1.0541,1.0551,1.1006,1.1677,1.2309,1.2618,1.261,1.2738,1.2726,1.2718,1.2689,1.267,1.2402,1.2357,1.2349,1.2296,1.217,1.2048,1.2008,1.1894,1.1817,1.1853,1.1837,1.1752,1.174,1.1723,1.1671,1.1569,1.1541,1.1455,1.1366,1.1277,1.1305,1.1346,1.1366,1.1395,1.1529,1.1541,1.1455,1.1354,1.1313,1.1362,1.1537,1.1541,1.1593,1.1679,1.1732,1.1804,1.1837,1.1768,1.1768,1.1833,1.1837,1.1837,1.1792,1.1805,1.1857,1.1853,1.1902,1.1878,1.1837,1.1821,1.1805,1.1841,1.1837,1.1837,1.1837,1.1837,1.1748,1.1748,1.1727,1.1816,1.1812,1.1622,1.1524,1.1476,1.1447,1.1399,1.139,1.1431,1.1443,1.1443,1.1423,1.1399,1.137,1.1338,1.277,1.4432,1.5438,1.6508,1.8176,1.9256,1.9348,1.9451,1.9528,1.9484,1.9434,1.9397,1.936,1.9491,1.9713,1.9852,1.0354,1.0524,1.0477,1.0561,1.0704,1.069,1.069,1.0714,1.0721,1.0707,1.068,1.068,1.067,1.0673,1.068,1.0899,1.1442,1.2045,1.2441,1.2507,1.2638,1.277,1.277,1.2766,1.2718,1.2726,1.2613,1.2523,1.2479,1.2349,1.2207,1.2069,1.2012,1.1943,1.1845,1.1837,1.1801,1.1801,1.1849,1.18,1.1715,1.1699,1.1687,1.1614,1.1512,1.1524,1.163,1.1671,1.1703,1.1732,1.1732,1.1703,1.165,1.1646,1.1671,1.1691,1.1699,1.1784,1.1828,1.1837,1.1837,1.1837,1.1837,1.1837,1.1837,1.1841,1.1849,1.1837,1.1926,1.2044,1.2207,1.2166,1.2117,1.204,1.1963,1.1922,1.1825,1.178,1.1837,1.1837,1.1837,1.1837,1.1837,1.1837,1.1837,1.1837,1.1775,1.1663,1.1646,1.165,1.1658,1.1671,1.1707,1.1711,1.1711,1.1687,1.1663,1.163,1.1899,1.2954,1.4378,1.5429,1.6767,1.8657,1.9654,1.9867,1.9906,1.9798,1.9798,1.9806,1.9652,1.9484,1.974,2.0003,2.0223,1.0477,1.0605,1.0612,1.0653,1.0711,1.0721,1.0721,1.0721,1.0721,1.0721,1.0721,1.0721,1.0721,1.0721,1.0721,1.092,1.1314,1.1975,1.2239,1.2375,1.2638,1.277,1.277,1.277,1.277,1.2746,1.2743,1.2698,1.2686,1.2523,1.2389,1.2316,1.2227,1.213,1.2044,1.1963,1.1914,1.1894,1.1829,1.1845,1.1841,1.1837,1.1837,1.1744,1.1699,1.1699,1.1744,1.1837,1.1833,1.1833,1.1833,1.1837,1.1837,1.1837,1.1837,1.1837,1.1837,1.1837,1.1837,1.1837,1.1837,1.1837,1.1837,1.1837,1.1837,1.1841,1.1825,1.1935,1.2069,1.2207,1.2288,1.2316,1.2259,1.2182,1.2101,1.2012,1.1918,1.1837,1.1805,1.1849,1.1837,1.1837,1.1837,1.1837,1.1837,1.1837,1.1837,1.1837,1.1837,1.1837,1.1837,1.1772,1.1772,1.1772,1.1776,1.1776,1.1837,1.1837,1.2134,1.32,1.4555,1.5714,1.7422,1.938,1.9998,2.0306,2.019,2.0047,2.0081,2.0146,2.0018,1.9923,2.0135,2.0362,2.0537,1.0609,1.0721,1.0721,1.0721,1.0721,1.0721,1.0721,1.0721,1.0721,1.0721,1.0721,1.0721,1.0721,1.0651,1.0452,1.0515,1.1049,1.1574,1.1769,1.2239,1.2572,1.277,1.277,1.277,1.277,1.2766,1.2758,1.277,1.2791,1.2686,1.2609,1.2503,1.2398,1.2328,1.2259,1.2138,1.2027,1.2,1.1955,1.1878,1.1833,1.1792,1.1837,1.1837,1.1837,1.1768,1.1837,1.1837,1.1837,1.1837,1.1837,1.1837,1.1837,1.1837,1.1837,1.1837,1.1837,1.1837,1.1837,1.1837,1.1837,1.1837,1.1837,1.1837,1.1797,1.1837,1.1926,1.2109,1.2255,1.2393,1.2454,1.243,1.2402,1.2337,1.2235,1.2117,1.2056,1.1979,1.1878,1.1849,1.1805,1.1792,1.1801,1.1837,1.1837,1.1837,1.1837,1.1837,1.1837,1.1837,1.1837,1.1837,1.1837,1.1837,1.1837,1.1776,1.1837,1.1837,1.2134,1.2904,1.4495,1.6079,1.7958,1.9665,2.0416,2.0603,2.0419,2.0321,2.0424,2.0486,2.034,2.0377,2.0589,2.0625,2.0684,1.0704,1.0721,1.0721,1.0721,1.0721,1.0721,1.0721,1.0721,1.0721,1.0721,1.0721,1.0721,1.0721,1.0452,0.9377,0.9646,1.0323,1.0373,1.0913,1.1873,1.2518,1.277,1.277,1.277,1.277,1.277,1.277,1.277,1.2758,1.28,1.2714,1.2596,1.2556,1.2475,1.2381,1.2308,1.219,1.2093,1.2166,1.215,1.1996,1.1853,1.1801,1.1837,1.1837,1.1837,1.1837,1.1837,1.1837,1.1837,1.1837,1.1837,1.1837,1.1837,1.1837,1.1837,1.1837,1.1837,1.1837,1.1837,1.1837,1.1837,1.1837,1.1837,1.1837,1.1975,1.2158,1.2475,1.2527,1.2584,1.2682,1.2677,1.2686,1.258,1.2467,1.2369,1.2288,1.2121,1.2024,1.1983,1.1967,1.1882,1.1841,1.1805,1.1837,1.1837,1.1837,1.1837,1.1837,1.1837,1.1837,1.1837,1.1837,1.1837,1.1837,1.1837,1.1837,1.1837,1.2134,1.2724,1.4669,1.6433,1.8015,1.9489,2.0337,2.0972,2.0861,2.083,2.0859,2.0779,2.0655,2.0801,2.1042,2.0998,2.0867,1.0721,1.0721,1.0721,1.0721,1.0721,1.0721,1.0721,1.0721,1.0721,1.0721,1.0721,1.0721,1.0721,1.0256,0.9241,0.9422,1.0404,0.9952,1.0492,1.1744,1.2441,1.2782,1.277,1.277,1.277,1.2794,1.277,1.277,1.277,1.277,1.2779,1.2731,1.2714,1.2698,1.2564,1.2499,1.2422,1.2353,1.2312,1.2207,1.206,1.1959,1.1878,1.1784,1.1845,1.1845,1.178,1.1837,1.1837,1.1837,1.1837,1.1837,1.1837,1.1837,1.1837,1.1837,1.1837,1.1837,1.1837,1.1841,1.1845,1.178,1.1792,1.1817,1.1935,1.2166,1.2357,1.26,1.2661,1.2755,1.2816,1.2766,1.2795,1.2722,1.2633,1.2564,1.245,1.2304,1.2186,1.2154,1.2117,1.2036,1.1931,1.1829,1.1805,1.1805,1.1792,1.1837,1.1837,1.1837,1.1837,1.1837,1.1837,1.1837,1.1837,1.1837,1.1837,1.1837,1.1837,1.2784,1.496,1.678,1.8131,1.9486,2.063,2.1052,2.1139,2.1145,2.1042,2.1006,2.0976,2.1079,2.1174,2.1159,2.1072,1.0721,1.0721,1.0721,1.0721,1.0721,1.0721,1.0721,1.0721,1.0721,1.0518,1.0114,0.9782,0.9528,0.9491,0.8636,0.876,1.0234,0.9783,1.0688,1.1731,1.2515,1.2865,1.2944,1.299,1.2994,1.2966,1.3019,1.2978,1.2921,1.2901,1.2831,1.2774,1.2742,1.2746,1.2791,1.2706,1.2617,1.2605,1.2406,1.2276,1.2194,1.213,1.2036,1.1947,1.187,1.1837,1.1833,1.1784,1.1837,1.1837,1.1837,1.1837,1.1837,1.1837,1.1837,1.1837,1.1837,1.1809,1.1841,1.1861,1.1841,1.1853,1.1914,1.2024,1.2178,1.2438,1.2609,1.2645,1.2739,1.2746,1.277,1.277,1.2758,1.2779,1.2722,1.267,1.2605,1.2462,1.2353,1.2312,1.2268,1.2207,1.2081,1.1902,1.1837,1.1837,1.1817,1.1841,1.1837,1.1837,1.1784,1.1784,1.1788,1.1788,1.1853,1.1849,1.1845,1.1849,1.1849,1.3015,1.5316,1.6609,1.7723,1.9138,2.0788,2.1081,2.1139,2.1146,2.1203,2.1137,2.1101,2.1152,2.1203,2.1211,2.1211,1.0721,1.0721,1.0651,1.0654,1.0721,1.0721,1.0717,1.0518,1.0585,0.9854,0.8659,0.7514,0.7098,0.6951,0.7319,0.7781,0.9062,0.9397,1.0705,1.1884,1.2647,1.3006,1.3126,1.3258,1.3287,1.3287,1.325,1.3173,1.3112,1.308,1.2986,1.2794,1.2794,1.2778,1.2762,1.273,1.2775,1.2722,1.2523,1.2434,1.2406,1.2361,1.2259,1.2211,1.2101,1.195,1.1942,1.1902,1.1817,1.1821,1.1813,1.178,1.1784,1.1837,1.1837,1.1817,1.1821,1.1886,1.1971,1.1987,1.1942,1.1995,1.2154,1.2288,1.2422,1.2503,1.2641,1.2767,1.275,1.2762,1.277,1.277,1.277,1.2754,1.2783,1.2771,1.2714,1.2633,1.2532,1.2479,1.2406,1.2328,1.219,1.2,1.1922,1.1922,1.1813,1.1837,1.1837,1.1837,1.1792,1.1801,1.1801,1.1805,1.1813,1.1837,1.1902,1.1878,1.1853,1.3592,1.5784,1.6727,1.7255,1.937,2.096,2.1024,2.1089,2.1146,2.1211,2.1211,2.1211,2.1211,2.1211,2.1211,2.1211,1.0721,1.0651,0.9782,0.9915,1.0721,1.0721,1.0183,0.951,0.9377,0.8622,0.726,0.6722,0.6498,0.6493,0.6727,0.7539,0.8879,0.9376,1.0736,1.1931,1.2678,1.3037,1.3231,1.3388,1.3364,1.3388,1.338,1.3356,1.3275,1.3262,1.3242,1.3137,1.2962,1.2786,1.277,1.2774,1.277,1.2746,1.2633,1.2637,1.2523,1.2507,1.2414,1.2296,1.2268,1.2203,1.219,1.2142,1.2048,1.1967,1.1939,1.189,1.1829,1.1813,1.1853,1.1918,1.1935,1.2028,1.213,1.2121,1.2077,1.2223,1.2357,1.2499,1.2657,1.2653,1.2739,1.275,1.277,1.277,1.277,1.277,1.277,1.277,1.277,1.277,1.2738,1.2722,1.2661,1.2584,1.2499,1.2414,1.2255,1.2089,1.204,1.2,1.1874,1.1837,1.1837,1.1841,1.1801,1.1829,1.1837,1.1943,1.1967,1.2004,1.2036,1.1991,1.1935,1.3681,1.5466,1.6079,1.6903,1.919,2.0838,2.0967,2.1031,2.1146,2.1211,2.1211,2.1211,2.1211,2.1211,2.1211,2.1211,1.0073,0.9907,0.8561,0.8806,0.9924,0.9622,0.8895,0.8094,0.7995,0.7159,0.5852,0.5514,0.5208,0.5329,0.5906,0.6935,0.8052,0.8745,1.0453,1.1519,1.2271,1.2762,1.3249,1.3547,1.3579,1.353,1.3522,1.353,1.3453,1.3453,1.3396,1.3283,1.3137,1.3023,1.2909,1.279,1.2774,1.277,1.2754,1.2787,1.2653,1.2641,1.2617,1.2483,1.243,1.2385,1.2357,1.2304,1.2215,1.215,1.2101,1.2052,1.1983,1.1951,1.2,1.2065,1.213,1.2203,1.2288,1.23,1.2276,1.2471,1.2568,1.2637,1.2678,1.2763,1.275,1.2762,1.277,1.277,1.277,1.277,1.277,1.277,1.277,1.277,1.277,1.2783,1.2739,1.2682,1.2588,1.2479,1.2349,1.2182,1.2016,1.1959,1.1853,1.1837,1.1837,1.1849,1.1805,1.1841,1.1878,1.2016,1.2158,1.2101,1.2065,1.2162,1.2341,1.3219,1.4595,1.528,1.6644,1.8842,2.0134,2.0673,2.0974,2.1153,2.1211,2.1211,2.1211,2.1211,2.1211,2.1211,2.1211,0.8644,0.8473,0.7111,0.733,0.8347,0.7208,0.6634,0.6506,0.6365,0.5644,0.4333,0.3222,0.2683,0.3065,0.4352,0.5737,0.6785,0.7299,0.9029,1.1392,1.1375,1.2048,1.312,1.3748,1.3778,1.3868,1.3819,1.3725,1.3636,1.3636,1.3551,1.3457,1.336,1.3226,1.3088,1.2921,1.2782,1.277,1.277,1.2816,1.28,1.2787,1.2763,1.2722,1.2625,1.2564,1.254,1.2467,1.2381,1.2316,1.23,1.2264,1.2219,1.2215,1.2247,1.2288,1.2296,1.2385,1.2532,1.2604,1.2613,1.2649,1.2689,1.2775,1.2742,1.277,1.277,1.277,1.277,1.277,1.277,1.277,1.277,1.277,1.277,1.277,1.277,1.2766,1.2783,1.269,1.2617,1.26,1.2422,1.2272,1.2036,1.1902,1.1813,1.1837,1.1841,1.1849,1.1813,1.1886,1.1935,1.2036,1.2146,1.2035,1.2039,1.2223,1.2561,1.3318,1.4104,1.4958,1.6504,1.8531,1.9502,2.0106,2.0701,2.1218,2.1211,2.1211,2.1211,2.1211,2.1211,2.1211,2.1211,0.7222,0.7051,0.5669,0.5399,0.5863,0.6367,0.6035,0.5003,0.4123,0.3379,0.305,0.2417,0.2291,0.2743,0.3833,0.4995,0.5517,0.6896,0.8773,1.0512,1.044,1.1807,1.3035,1.3757,1.39,1.39,1.3896,1.3884,1.3815,1.3794,1.379,1.3717,1.3567,1.338,1.3165,1.3011,1.297,1.2794,1.277,1.2766,1.277,1.277,1.277,1.277,1.2759,1.2726,1.2722,1.2633,1.2576,1.2495,1.2479,1.2438,1.2365,1.2341,1.2381,1.2446,1.2479,1.256,1.269,1.2743,1.2763,1.2754,1.277,1.277,1.277,1.277,1.277,1.277,1.277,1.277,1.277,1.277,1.277,1.277,1.277,1.277,1.277,1.2766,1.2791,1.2661,1.2633,1.2499,1.2402,1.2341,1.2142,1.2028,1.1959,1.1837,1.1809,1.1805,1.1821,1.1931,1.2008,1.2085,1.213,1.2101,1.2138,1.2255,1.2481,1.2946,1.3759,1.4651,1.632,1.8315,1.8983,1.9606,2.0653,2.1437,2.1262,2.1211,2.1284,2.1262,2.1211,2.1211,2.1211,0.5737,0.5629,0.4282,0.3675,0.3825,0.4657,0.4518,0.3546,0.263,0.2288,0.2302,0.2305,0.2313,0.2764,0.3859,0.4729,0.4873,0.6319,0.8054,0.972,1.0078,1.1521,1.2821,1.3543,1.3757,1.3829,1.39,1.3896,1.3884,1.3896,1.388,1.3843,1.3782,1.3583,1.3368,1.3238,1.3108,1.2999,1.295,1.2905,1.2798,1.277,1.277,1.277,1.2758,1.2762,1.2766,1.275,1.2783,1.2686,1.2633,1.2601,1.2511,1.2503,1.2548,1.2629,1.2674,1.2726,1.2795,1.2758,1.2754,1.2766,1.277,1.277,1.277,1.277,1.277,1.277,1.277,1.277,1.277,1.277,1.277,1.277,1.277,1.277,1.277,1.2766,1.2754,1.2686,1.2633,1.2536,1.243,1.2349,1.2255,1.2182,1.2117,1.1996,1.1874,1.1841,1.1821,1.1886,1.1963,1.2004,1.2069,1.2121,1.2182,1.2288,1.2493,1.2746,1.3645,1.4606,1.6342,1.8117,1.9359,2.0495,2.123,2.1686,2.1547,2.1481,2.1503,2.1415,2.1254,2.1254,2.1298,0.43,0.4136,0.2862,0.2379,0.2324,0.2588,0.245,0.2403,0.233,0.2256,0.2258,0.2256,0.2476,0.2767,0.4003,0.4584,0.4802,0.6176,0.7693,0.9213,0.972,1.1377,1.2602,1.3325,1.3611,1.3829,1.39,1.39,1.39,1.39,1.39,1.39,1.3872,1.3742,1.3604,1.3486,1.3315,1.3173,1.3051,1.299,1.2921,1.2782,1.2774,1.277,1.277,1.277,1.277,1.2762,1.2762,1.2742,1.2746,1.275,1.275,1.2762,1.2766,1.2762,1.282,1.2758,1.2766,1.277,1.277,1.277,1.277,1.277,1.277,1.277,1.277,1.277,1.277,1.277,1.277,1.277,1.277,1.277,1.277,1.277,1.277,1.277,1.277,1.273,1.2726,1.2718,1.2596,1.2499,1.2438,1.241,1.2349,1.2243,1.2101,1.1894,1.1861,1.1849,1.1849,1.1878,1.1947,1.2028,1.2105,1.2174,1.2304,1.2645,1.3496,1.4411,1.5862,1.7692,2.0072,2.1385,2.1822,2.1935,2.1862,2.1818,2.1789,2.1708,2.1584,2.1489,2.1474,0.2922,0.2863,0.2456,0.2325,0.2258,0.2324,0.2252,0.2259,0.226,0.226,0.226,0.226,0.2769,0.3932,0.335,0.3859,0.4511,0.5309,0.6319,0.7765,0.9502,1.1165,1.232,1.3111,1.3468,1.3753,1.39,1.3829,1.39,1.39,1.39,1.39,1.39,1.3851,1.3815,1.3766,1.3547,1.3352,1.321,1.3104,1.3003,1.2917,1.2819,1.2794,1.2774,1.2774,1.277,1.277,1.277,1.277,1.277,1.277,1.277,1.277,1.2766,1.277,1.2766,1.277,1.277,1.277,1.277,1.277,1.277,1.277,1.277,1.277,1.277,1.277,1.277,1.277,1.277,1.277,1.279,1.2811,1.2811,1.2803,1.2807,1.2897,1.2893,1.2811,1.2811,1.275,1.2706,1.2698,1.2645,1.2633,1.2576,1.2471,1.232,1.2105,1.1967,1.1898,1.1866,1.1931,1.1853,1.1894,1.1975,1.2065,1.219,1.2367,1.2851,1.3834,1.5314,1.7474,2.0167,2.1469,2.2109,2.2125,2.2118,2.2103,2.2074,2.2001,2.192,2.1789,2.1701,0.2307,0.2309,0.2252,0.226,0.226,0.226,0.226,0.226,0.226,0.226,0.226,0.226,0.2842,0.3496,0.3423,0.3569,0.3786,0.6105,0.7261,0.7404,0.9432,1.1096,1.2327,1.2832,1.3118,1.3472,1.3682,1.3686,1.3829,1.39,1.39,1.39,1.39,1.39,1.3888,1.3855,1.3782,1.3595,1.3433,1.3295,1.3165,1.3035,1.2962,1.2925,1.2901,1.279,1.2786,1.2786,1.2778,1.2774,1.277,1.277,1.277,1.277,1.277,1.277,1.277,1.277,1.277,1.277,1.277,1.277,1.277,1.277,1.277,1.277,1.277,1.277,1.277,1.277,1.277,1.2778,1.2823,1.2938,1.2859,1.2847,1.2938,1.297,1.2962,1.2942,1.2839,1.2786,1.2758,1.2774,1.2762,1.2706,1.271,1.2625,1.2475,1.228,1.2166,1.2097,1.2044,1.2028,1.1935,1.1878,1.1971,1.2048,1.2065,1.2237,1.2393,1.3852,1.5794,1.8122,2.0542,2.1484,2.2287,2.2343,2.2381,2.2389,2.2432,2.241,2.2257,2.1986,2.192,0.226,0.2259,0.226,0.226,0.226,0.226,0.226,0.226,0.226,0.226,0.226,0.226,0.2478,0.3205,0.3568,0.3423,0.4366,0.6465,0.7406,0.7185,1.0017,1.176,1.2051,1.2266,1.276,1.3111,1.3396,1.3611,1.3829,1.39,1.39,1.39,1.39,1.39,1.39,1.39,1.3855,1.3798,1.3673,1.3551,1.338,1.3234,1.3112,1.3088,1.3003,1.2847,1.2905,1.2893,1.2873,1.2803,1.2798,1.2807,1.2774,1.277,1.277,1.277,1.277,1.277,1.277,1.277,1.277,1.277,1.277,1.277,1.277,1.277,1.277,1.277,1.277,1.277,1.277,1.2835,1.2962,1.3019,1.3043,1.3088,1.3157,1.3161,1.3128,1.3108,1.3072,1.3019,1.2994,1.3015,1.2999,1.2921,1.2812,1.2735,1.2682,1.2499,1.2365,1.2292,1.2203,1.2146,1.2105,1.206,1.2056,1.2081,1.2015,1.2073,1.2249,1.4188,1.6566,1.8456,2.0312,2.159,2.2388,2.2472,2.2689,2.2813,2.2835,2.2842,2.2637,2.2308,2.2184,0.226,0.226,0.226,0.226,0.226,0.226,0.226,0.226,0.226,0.226,0.226,0.2405,0.2914,0.3713,0.3132,0.306,0.4584,0.5958,0.7042,0.7984,1.0092,1.1548,1.2126,1.2122,1.2474,1.2824,1.3182,1.3539,1.3829,1.39,1.39,1.39,1.39,1.39,1.39,1.39,1.39,1.3896,1.3843,1.3734,1.3579,1.3425,1.3299,1.3291,1.323,1.3202,1.3202,1.3218,1.3141,1.3072,1.3043,1.2966,1.2848,1.2782,1.2774,1.2774,1.2811,1.2823,1.2827,1.2835,1.2901,1.2807,1.2798,1.2778,1.277,1.277,1.277,1.2774,1.277,1.277,1.2807,1.2962,1.3059,1.312,1.3169,1.3271,1.3372,1.3348,1.3307,1.3283,1.3254,1.3214,1.3181,1.3165,1.3153,1.3055,1.2905,1.284,1.2913,1.2816,1.2592,1.2487,1.2337,1.2272,1.2247,1.2239,1.2235,1.2223,1.2223,1.2186,1.2138,1.3959,1.5945,1.7984,1.973,2.0922,2.1976,2.2751,2.2959,2.2996,2.301,2.2908,2.2908,2.2659,2.2557,0.226,0.226,0.226,0.226,0.226,0.226,0.226,0.226,0.226,0.226,0.226,0.2333,0.2841,0.364,0.2623,0.2624,0.3931,0.5235,0.6319,0.7623,0.9291,1.0815,1.1541,1.1979,1.2194,1.2545,1.3039,1.3468,1.3829,1.39,1.39,1.39,1.39,1.39,1.39,1.39,1.39,1.39,1.39,1.3839,1.3729,1.36,1.3498,1.349,1.3429,1.3405,1.3372,1.3372,1.3315,1.3246,1.3222,1.3193,1.3116,1.3108,1.3088,1.3088,1.3092,1.3072,1.3063,1.3055,1.3051,1.3043,1.3063,1.3108,1.2974,1.2966,1.2835,1.2827,1.2778,1.277,1.2954,1.3051,1.3234,1.3344,1.3331,1.3364,1.3461,1.351,1.3494,1.3486,1.3417,1.3311,1.3287,1.3279,1.3271,1.3267,1.3104,1.3072,1.3124,1.3104,1.2885,1.2722,1.2605,1.2471,1.2422,1.2418,1.2418,1.2402,1.2445,1.2548,1.2741,1.3837,1.5327,1.7162,1.8766,1.9928,2.0964,2.2112,2.2704,2.2776,2.2842,2.2901,2.2923,2.2959,2.2864,0.226,0.226,0.226,0.226,0.2334,0.2338,0.2337,0.2261,0.2337,0.2337,0.226,0.226,0.226,0.226,0.226,0.226,0.2914,0.4439,0.5596,0.7115,0.8639,1.0308,1.1325,1.1691,1.1979,1.2334,1.29,1.3325,1.3757,1.3829,1.39,1.39,1.39,1.39,1.39,1.39,1.39,1.39,1.39,1.39,1.3831,1.3762,1.3697,1.3616,1.3539,1.3449,1.3441,1.3445,1.3445,1.3384,1.3364,1.3319,1.3311,1.3287,1.3303,1.3295,1.3283,1.3295,1.3315,1.3299,1.3315,1.334,1.3372,1.3307,1.3165,1.3096,1.3027,1.2986,1.2867,1.2946,1.3068,1.321,1.3405,1.353,1.3498,1.3494,1.3591,1.3598,1.3598,1.3598,1.3579,1.3461,1.3445,1.3437,1.3417,1.3417,1.3396,1.3396,1.3372,1.3283,1.3141,1.3039,1.2958,1.2824,1.2649,1.2613,1.2617,1.2778,1.2809,1.2999,1.328,1.3905,1.4832,1.6131,1.7681,1.8927,2.0268,2.143,2.1914,2.2551,2.2835,2.2981,2.301,2.3047,2.3069,0.226,0.226,0.226,0.226,0.2337,0.2358,0.2356,0.2339,0.2358,0.2356,0.2264,0.226,0.226,0.226,0.226,0.2333,0.2551,0.3859,0.5452,0.7042,0.8275,0.9945,1.1109,1.1472,1.1835,1.2262,1.2685,1.3039,1.3468,1.3757,1.39,1.39,1.39,1.39,1.39,1.39,1.39,1.39,1.39,1.39,1.39,1.3859,1.3863,1.3831,1.3823,1.3803,1.3798,1.3803,1.3717,1.36,1.3482,1.3433,1.3429,1.3441,1.3441,1.3461,1.3453,1.3445,1.3457,1.3457,1.347,1.3453,1.3453,1.3421,1.3331,1.3315,1.3267,1.325,1.321,1.3181,1.3283,1.3429,1.36,1.366,1.3669,1.3725,1.3803,1.3819,1.3819,1.3819,1.379,1.3738,1.3734,1.3701,1.3648,1.3612,1.351,1.3514,1.3571,1.3482,1.3384,1.3323,1.3267,1.3068,1.2856,1.2832,1.289,1.305,1.3248,1.3453,1.3642,1.369,1.4611,1.5711,1.6776,1.8015,1.933,2.072,2.1835,2.2457,2.285,2.3091,2.3106,2.3106,2.3106]}]]